GFSGL_sfc_wetblb_000.txt.gz
Wetbulb
31.50 30.96 29.72 28.48 27.28 26.17 25.62 24.49 23.66 23.41 22.77 22.15 21.99 21.64 21.33 20.97 21.27 20.40 20.50 20.45 19.19 19.45 20.29 19.99 19.88 20.59 19.65 19.71 20.29 20.50 20.35 21.31 18.72 20.54 22.93 24.45 24.21 25.48 27.43 28.71 29.76 29.36 30.44
30.92 29.66 28.39 26.81 25.96 24.95 23.85 23.30 23.02 21.77 21.73 21.05 20.52 20.08 19.78 19.64 19.34 18.78 17.69 18.02 16.79 16.50 17.42 17.61 17.05 18.63 16.32 16.87 16.57 16.08 16.24 17.43 16.56 14.64 17.45 18.65 19.71 21.94 23.09 24.05 26.13 28.00 27.63
29.95 28.93 26.98 25.72 24.69 23.70 22.91 22.57 21.83 20.86 19.91 19.97 19.20 18.20 18.06 18.15 17.66 17.51 17.02 16.72 16.11 15.81 16.00 15.77 15.82 15.84 14.91 15.35 15.72 15.42 15.84 17.10 16.10 14.31 13.83 17.18 17.80 19.54 19.79 21.38 22.14 23.36 26.62
29.21 27.64 25.73 24.29 23.65 22.59 22.12 21.16 20.20 19.34 18.37 17.90 17.60 17.14 16.67 16.10 16.46 16.11 17.01 15.87 15.31 15.88 16.44 16.68 16.42 16.39 15.72 15.45 15.60 15.02 15.58 14.26 14.41 13.84 13.66 14.60 16.29 18.94 19.75 18.77 19.47 22.83 24.87
28.30 26.23 24.37 23.35 22.39 21.63 20.06 18.46 17.73 17.36 17.20 17.12 15.98 15.38 15.15 14.63 15.35 14.98 15.95 14.87 15.41 15.67 17.07 17.43 17.57 17.76 19.69 20.46 18.68 17.53 17.90 16.57 15.68 14.55 13.95 14.36 14.96 16.19 16.87 19.75 19.69 21.44 23.03
26.55 24.27 23.47 21.07 20.06 18.69 17.10 16.64 15.78 15.32 14.99 14.52 13.55 13.23 13.15 15.05 18.20 20.47 20.01 17.21 17.20 16.35 15.53 16.74 17.68 17.24 18.47 20.88 22.09 23.12 22.21 18.15 16.78 16.33 17.13 16.24 16.51 17.81 19.42 19.03 19.07 19.53 19.54
24.34 22.42 20.48 19.52 17.93 16.55 15.84 15.06 14.69 14.40 14.57 13.64 13.55 13.56 13.40 14.21 18.21 19.97 20.67 18.84 16.95 16.04 15.86 16.15 16.93 18.95 18.62 18.42 20.58 22.31 22.29 22.93 23.09 19.29 16.84 17.57 18.04 20.62 21.44 20.78 20.95 20.99 20.77
22.81 21.11 18.95 17.78 16.35 14.76 14.41 14.12 14.09 14.15 13.52 13.06 12.91 13.43 13.16 13.59 18.16 19.40 19.64 18.60 16.68 16.33 17.01 17.85 18.24 18.71 19.84 20.44 19.95 19.13 19.37 20.02 20.89 20.81 19.27 19.36 20.30 21.88 22.36 21.93 21.18 21.16 22.70
20.18 18.50 17.42 17.14 15.07 14.00 13.13 12.77 13.40 13.24 12.79 12.71 12.68 11.08 10.90 11.32 15.32 17.65 19.29 16.27 16.42 16.88 18.46 19.28 19.57 19.06 20.54 22.73 19.39 17.46 17.55 18.29 22.24 23.77 24.48 25.34 26.35 28.21 26.73 23.42 20.90 19.13 18.23
19.22 18.06 17.03 16.40 14.09 12.85 13.05 12.35 13.12 12.98 12.01 12.36 12.02 12.19 11.08 9.52 14.33 17.72 19.86 15.69 12.82 16.01 17.55 19.24 19.77 19.45 21.24 23.26 20.28 18.39 15.11 16.77 18.19 17.54 19.32 21.08 23.54 23.27 25.72 24.96 24.41 20.92 22.45
18.92 16.62 14.86 14.32 12.75 13.13 11.18 11.50 10.98 10.58 11.24 10.90 10.65 11.38 11.72 12.39 12.01 17.73 20.07 18.14 16.56 17.80 16.04 15.77 16.60 19.95 22.58 21.91 22.57 16.87 16.48 19.83 20.13 17.57 19.41 20.91 21.02 21.68 22.46 23.23 23.96 23.31 21.76
16.32 13.49 12.69 12.05 11.39 11.03 10.17 8.76 7.61 8.98 8.29 7.94 9.42 11.36 14.24 15.69 15.99 16.64 19.38 20.76 21.92 15.69 15.70 16.06 16.48 21.61 20.33 19.77 18.05 19.45 20.42 19.62 12.87 13.57 14.62 16.61 20.22 21.91 22.79 24.16 25.33 26.07 26.45
12.78 11.10 8.44 8.44 7.54 7.67 7.20 5.90 6.63 7.45 8.94 9.55 10.74 11.70 11.89 13.56 14.06 16.05 17.99 20.18 20.12 17.76 17.03 18.50 19.64 18.07 17.45 15.05 16.09 17.75 15.13 12.04 11.71 10.61 10.87 13.31 17.34 20.85 25.16 25.79 26.43 27.41 27.28
9.97 8.22 6.71 5.93 4.74 5.50 7.93 8.01 8.39 7.68 9.43 10.43 11.21 10.68 10.58 11.58 11.65 12.25 14.21 13.08 17.95 17.10 17.12 10.84 12.80 13.41 13.98 13.68 10.89 12.49 12.35 11.43 12.08 11.28 11.79 13.67 15.52 16.86 17.76 21.14 24.23 27.72 26.13
8.91 7.02 6.34 5.86 5.66 6.04 8.40 9.09 10.46 11.46 11.57 10.25 9.85 9.26 8.44 7.11 9.42 17.23 16.59 15.19 15.22 15.76 8.14 3.67 3.90 5.26 5.76 7.02 7.13 8.66 10.33 10.41 11.33 11.76 11.48 11.56 12.34 14.96 15.83 18.72 21.25 26.84 26.06
9.41 6.86 5.67 5.12 6.18 7.30 7.73 9.66 15.11 14.17 16.54 16.35 15.66 11.62 8.78 14.26 16.54 17.53 18.02 18.58 16.71 16.51 -3.15 -3.96 1.70 3.03 3.59 4.68 4.92 6.02 8.43 8.88 10.42 11.74 11.48 11.21 11.01 12.68 12.63 13.89 16.40 18.39 25.72
10.61 8.64 6.94 6.95 7.15 6.82 6.29 6.44 7.20 12.40 15.70 15.53 14.51 14.37 14.07 14.09 15.13 15.80 16.55 15.11 12.94 8.05 -11.49 -2.42 -0.04 1.61 2.60 4.40 4.85 5.71 6.51 8.15 10.94 11.44 10.93 10.33 12.32 11.49 10.61 10.62 12.27 15.17 18.97
11.04 9.14 8.02 7.74 7.56 7.13 6.74 6.30 6.06 4.97 5.09 6.48 11.57 11.99 11.59 12.83 13.44 14.09 14.10 5.65 -8.24 -2.37 -10.36 -2.93 -1.56 0.28 1.95 3.27 4.28 5.47 6.80 7.12 10.09 10.68 10.28 11.62 10.19 8.92 8.04 8.02 9.55 11.05 14.23
9.69 8.21 8.44 7.68 7.55 7.92 8.31 7.87 6.70 5.79 4.60 2.92 3.04 9.22 5.61 10.61 11.91 10.60 8.85 -7.95 -13.50 -14.06 -10.24 -4.02 -1.79 -0.63 0.79 2.38 3.80 5.36 6.41 6.05 10.43 10.10 11.71 10.21 8.82 7.89 6.81 7.21 8.08 9.73 11.75
9.72 8.43 8.10 6.50 5.50 4.72 4.99 4.41 4.34 3.96 3.02 2.25 1.46 1.46 -1.44 -2.46 -9.42 -13.08 -13.94 -16.31 -17.60 -16.40 -10.32 -5.76 -3.24 -1.77 -0.33 1.58 2.95 4.73 5.85 6.67 10.50 11.24 11.02 9.61 8.65 8.18 7.27 6.99 7.61 7.59 9.04
8.38 6.72 6.58 4.92 4.02 3.57 3.31 3.11 3.11 2.18 1.05 -0.26 -1.08 -0.27 6.21 -6.81 -11.74 -15.03 -17.58 -16.85 -17.83 -16.95 -9.44 -6.29 -4.49 -3.43 -0.83 1.20 2.96 3.88 4.93 6.42 10.67 12.06 10.86 9.42 8.46 7.26 8.05 8.66 8.64 9.08 9.71
5.20 3.14 3.65 2.99 3.07 2.97 2.56 2.22 1.47 0.49 -0.70 -1.32 -2.60 0.68 5.90 -2.85 -8.95 -12.58 -14.54 -17.57 -17.56 -15.92 -11.58 -10.41 -6.58 -4.06 -1.72 0.53 1.95 3.37 5.39 6.24 10.73 12.42 10.71 9.09 8.63 8.34 8.05 7.90 7.81 8.53 9.98
3.84 2.92 2.18 1.70 1.77 1.13 -0.11 -0.57 -1.40 -1.98 -3.05 -4.06 -5.16 -3.74 -5.14 -12.38 -14.07 -15.64 -17.86 -20.16 -17.02 -11.07 -8.73 -10.89 -8.07 -5.29 -1.63 0.43 2.14 3.68 6.34 6.48 11.64 13.12 10.11 8.48 8.23 7.88 7.81 7.08 7.23 8.32 10.60
3.01 1.92 0.62 -0.73 -0.65 -1.84 -2.72 -3.28 -2.99 -3.98 -5.79 -8.57 -9.40 -12.63 -9.41 -15.74 -20.41 -18.13 -17.95 -19.33 -15.78 -15.47 -11.66 -11.82 -8.22 -8.14 -4.12 -1.91 1.05 4.39 7.17 8.68 15.59 12.68 10.38 8.89 7.99 7.78 7.94 7.04 7.27 7.75 8.94
1.51 -0.40 -1.21 -1.74 -2.84 -3.29 -4.18 -5.35 -5.79 -7.20 -7.96 -8.27 -11.41 -11.49 -14.39 -14.34 -16.28 -21.85 -22.09 -19.56 -17.11 -14.64 -12.72 -10.98 -8.40 -8.02 -6.87 -4.84 -0.95 3.24 6.67 9.60 15.81 12.72 10.59 9.57 8.06 7.43 7.73 7.09 6.57 7.28 8.76
0.27 -0.53 -1.49 -2.07 -3.43 -4.03 -4.71 -5.91 -7.32 -7.47 -9.27 -10.44 -11.58 -14.56 -13.58 -16.42 -18.20 -21.09 -20.63 -18.56 -15.71 -14.56 -14.33 -11.27 -10.23 -11.09 -8.62 -3.69 1.62 5.27 8.88 15.40 16.24 13.03 10.75 9.18 7.74 7.01 7.57 6.76 6.12 6.30 6.33

GFSGL_sfc_wetblb_003.txt.gz
Wetbulb
32.14 32.31 31.68 30.72 30.52 29.20 28.96 27.85 26.39 25.65 24.52 23.60 23.16 22.71 22.45 21.81 21.98 21.37 21.54 21.55 20.36 20.03 20.75 20.66 20.44 20.57 19.61 19.45 19.83 19.83 19.33 19.51 16.37 18.72 21.66 22.11 21.02 20.43 21.96 23.48 24.51 24.74 26.34
32.18 30.68 30.72 28.99 28.18 27.99 27.60 25.39 24.66 24.37 23.41 22.98 22.32 21.69 21.17 20.83 20.22 20.06 18.72 19.48 18.43 17.81 18.39 18.18 17.51 18.83 16.53 16.92 16.49 16.08 16.22 17.14 15.67 12.98 16.20 16.95 17.58 18.96 19.18 19.32 21.54 23.62 23.57
30.08 29.14 28.81 27.66 26.79 26.57 24.65 23.36 23.86 22.87 21.82 21.77 21.06 20.13 19.50 19.20 18.51 18.38 18.09 17.93 17.55 17.20 16.95 16.28 15.82 15.54 14.68 14.99 14.97 14.60 15.21 16.16 15.95 14.10 13.13 16.23 16.57 17.75 17.35 18.65 19.58 21.12 23.72
29.52 28.80 27.82 27.22 26.38 25.34 23.23 23.05 22.53 21.80 20.29 19.44 19.01 17.98 17.53 17.42 17.18 17.19 18.05 16.85 16.47 16.28 16.32 16.20 15.86 15.72 14.92 14.38 14.61 14.17 15.03 13.87 14.00 13.47 13.28 14.02 15.51 17.78 17.84 16.03 16.29 19.71 20.67
29.60 28.28 27.86 27.00 25.79 23.21 22.28 21.67 19.77 19.57 19.18 18.54 17.00 16.70 16.32 16.16 16.53 16.37 17.02 16.49 15.27 15.71 16.58 16.72 17.25 17.67 18.94 19.21 17.95 17.19 17.16 16.12 15.50 15.02 15.17 16.05 16.85 17.74 17.54 19.15 17.80 19.04 20.45
29.17 27.86 27.00 24.08 21.90 21.39 20.71 19.17 18.60 17.87 16.84 17.06 15.86 15.42 14.27 16.08 20.17 22.01 18.20 16.48 17.15 16.58 16.25 16.94 17.67 17.18 18.36 20.87 22.03 23.19 22.45 18.80 17.56 17.24 17.88 17.30 17.27 18.14 19.09 18.62 18.78 18.19 16.58
28.06 26.37 23.66 21.91 20.59 20.28 19.90 18.62 17.76 16.46 16.31 16.14 14.82 14.78 14.73 15.87 22.25 23.23 23.22 20.22 18.48 17.20 16.91 16.74 16.90 18.44 18.64 18.93 20.90 22.65 22.72 23.32 23.74 20.65 18.23 18.41 18.23 19.72 20.03 18.33 18.18 17.98 17.76
27.07 24.87 22.10 21.26 20.30 19.08 17.86 17.36 16.42 15.52 14.44 14.22 14.06 14.54 15.36 15.95 21.74 22.64 22.52 19.83 18.46 17.80 17.26 17.32 17.25 18.16 19.42 19.64 19.09 19.04 19.89 20.37 20.95 21.19 20.03 19.69 20.24 21.53 20.96 20.25 19.14 18.73 20.09
25.11 23.46 21.03 20.78 19.14 16.97 16.30 15.80 15.44 14.47 13.87 13.97 14.63 13.55 14.42 14.74 21.83 22.33 21.45 18.90 18.35 17.68 18.09 18.51 18.45 18.57 20.52 22.68 20.33 19.58 18.48 18.73 22.91 23.86 24.31 25.37 26.24 26.82 26.41 23.51 21.17 18.14 16.13
24.36 23.01 20.66 19.97 18.09 16.03 16.24 14.82 14.43 13.95 13.39 13.88 13.04 11.59 12.91 10.25 18.89 20.55 21.40 18.69 12.33 15.64 17.20 18.51 21.07 20.37 21.89 23.18 21.50 19.07 15.30 15.34 16.39 18.38 20.05 19.55 19.68 19.66 22.86 21.30 21.19 18.90 18.84
22.37 20.27 18.29 18.20 17.11 16.78 15.37 14.52 12.41 12.28 13.49 12.73 11.94 12.05 10.69 10.59 12.88 20.80 22.40 18.01 14.96 13.62 16.75 16.34 18.19 20.44 22.47 24.00 23.46 18.18 14.79 19.32 18.20 11.61 11.70 13.61 15.05 16.19 18.49 21.72 23.15 21.18 18.72
19.23 17.02 16.54 16.77 15.73 14.17 12.50 11.32 11.57 11.48 10.92 10.37 9.94 10.78 12.73 13.41 15.73 20.35 21.43 21.73 20.71 14.47 12.19 17.34 16.90 21.37 21.38 21.52 19.21 19.20 20.58 18.50 10.27 9.63 9.39 10.61 12.14 13.48 16.10 18.28 20.44 22.83 24.62
16.12 15.75 15.22 12.70 12.25 10.89 10.31 9.15 9.07 9.59 9.54 8.84 10.38 10.40 12.20 14.44 14.32 19.37 20.56 19.96 20.65 17.71 17.52 17.98 18.71 18.09 17.55 15.22 15.89 17.20 14.88 9.77 9.55 8.04 7.77 10.44 13.35 14.73 16.22 16.19 17.52 19.50 21.02
13.39 12.86 11.23 10.19 9.27 9.68 10.39 9.64 9.54 8.70 10.22 10.98 11.12 11.08 11.03 11.56 11.52 12.15 12.18 12.95 18.21 16.95 14.58 8.46 12.05 12.44 13.03 12.86 10.25 11.16 10.42 9.67 9.49 8.92 9.11 11.55 13.73 13.58 13.17 14.74 13.97 16.92 16.80
15.29 11.99 10.91 10.34 9.11 8.18 9.70 10.04 10.60 12.48 13.92 12.26 12.91 11.98 10.34 9.99 10.88 14.34 14.14 13.10 14.02 14.60 -0.24 -2.99 -1.56 3.97 4.91 5.94 6.12 7.33 8.33 8.68 8.32 9.36 8.71 8.96 11.67 12.02 11.87 13.34 13.79 14.17 12.17
13.11 10.97 10.36 8.79 8.78 8.30 8.20 9.75 16.67 15.89 18.81 19.21 18.40 14.28 13.23 15.92 19.10 20.78 19.96 19.03 16.79 14.48 -3.23 -8.80 -3.99 0.56 1.90 2.90 3.34 4.59 6.11 7.09 7.96 8.54 8.22 9.89 10.60 10.78 11.60 12.35 11.47 10.54 9.95
14.03 10.96 9.87 8.66 8.42 8.67 9.08 10.28 9.81 16.77 20.50 20.28 19.39 18.34 17.16 18.54 19.63 19.39 18.97 15.17 14.03 5.57 -9.79 -12.96 -8.36 -3.85 -1.13 1.68 2.33 3.46 3.57 5.80 7.75 7.48 7.52 9.53 11.61 12.12 10.44 9.03 8.81 9.09 8.15
14.65 11.51 9.43 8.96 8.98 8.35 10.26 11.20 11.65 12.08 11.51 12.95 18.62 18.16 18.58 19.18 19.12 18.39 15.64 7.85 -2.39 -4.26 -16.17 -17.86 -15.10 -10.32 -3.53 -1.33 0.16 1.42 2.84 4.02 4.97 6.03 6.49 9.12 12.00 11.17 9.06 7.68 7.74 7.05 6.87
13.45 10.59 9.47 9.22 10.57 10.07 10.48 11.36 11.55 11.24 10.27 9.55 11.51 14.86 16.17 18.34 18.12 16.60 8.90 -1.13 -7.95 -12.37 -16.61 -19.60 -16.18 -10.35 -5.05 -3.78 -2.14 -0.40 0.80 2.15 3.50 4.35 6.64 8.33 11.91 10.73 8.43 7.81 7.86 8.04 7.98
13.49 11.63 10.62 9.77 9.29 8.87 9.14 8.55 8.22 7.67 6.70 6.23 7.65 4.25 3.82 4.12 -0.36 -3.30 -4.22 -7.01 -11.80 -15.14 -14.08 -19.31 -14.36 -13.76 -10.17 -7.10 -4.38 -1.86 -0.09 1.23 2.67 4.98 6.51 10.08 11.11 10.03 8.23 7.49 7.52 6.69 6.72
12.19 10.17 9.97 9.60 9.03 9.45 8.71 7.60 7.03 5.89 4.78 4.50 4.20 3.78 6.65 1.41 -2.71 -5.03 -7.86 -11.58 -14.18 -16.56 -18.71 -19.14 -15.14 -16.62 -11.32 -8.18 -5.78 -3.02 -1.65 1.08 2.89 5.75 5.91 10.72 9.95 8.18 8.65 8.52 7.49 7.63 7.62
10.21 9.29 8.49 7.52 7.45 7.24 7.08 6.73 6.10 5.06 3.82 2.81 2.33 7.13 10.96 -0.73 -3.88 -5.80 -7.70 -11.50 -15.59 -16.31 -19.97 -18.53 -18.18 -17.99 -11.53 -8.55 -5.64 -3.62 -2.03 -0.17 3.73 5.99 6.87 10.37 9.19 8.62 8.48 7.63 6.99 7.32 7.01
7.83 6.97 6.40 5.98 6.36 5.22 4.60 4.52 3.41 2.57 1.80 1.43 1.47 0.80 -2.10 -5.09 -7.76 -8.97 -11.54 -16.27 -14.82 -16.94 -19.36 -19.16 -17.65 -15.44 -11.71 -8.57 -5.63 -4.29 -2.78 -0.20 4.20 7.11 9.93 9.34 8.27 8.07 7.65 6.78 6.59 6.32 5.74
5.77 5.21 4.65 3.72 3.84 3.09 2.26 1.35 0.88 0.25 -1.21 -2.36 -3.15 -4.10 -4.61 -8.62 -11.56 -11.44 -13.66 -15.91 -16.66 -24.71 -21.32 -19.47 -16.85 -17.42 -13.41 -10.09 -7.89 -5.09 -2.18 1.24 5.65 10.05 11.04 9.26 7.76 7.58 7.27 6.50 6.79 6.28 6.00
4.35 3.26 2.72 1.46 1.20 0.40 -0.58 -1.16 -2.21 -3.12 -4.41 -4.82 -6.58 -6.14 -8.50 -9.02 -11.17 -16.48 -17.36 -17.87 -22.13 -22.60 -18.63 -17.46 -17.17 -16.25 -13.88 -12.41 -10.92 -8.50 -3.63 1.66 7.25 13.86 11.19 9.51 7.76 7.12 7.07 6.31 6.59 6.22 5.88
1.82 1.10 0.58 0.07 -1.04 -1.38 -2.50 -3.66 -4.52 -4.82 -5.70 -6.76 -7.13 -8.43 -9.13 -10.21 -12.32 -15.41 -18.04 -21.11 -19.51 -19.00 -19.12 -18.29 -18.61 -16.99 -14.66 -10.77 -8.68 -2.43 1.61 8.47 13.52 13.68 11.34 9.09 7.46 6.50 6.40 6.01 5.96 5.92 5.43

GFSGL_sfc_wetblb_006.txt.gz
Wetbulb
32.50 32.91 32.22 31.26 30.86 29.54 28.37 28.03 27.06 27.12 26.48 26.21 25.68 24.63 23.79 23.23 23.08 22.08 22.00 22.12 21.54 21.19 21.22 20.96 20.86 21.41 20.13 19.86 19.99 19.55 18.78 18.70 14.41 18.55 20.96 20.77 19.51 19.55 20.75 21.10 21.55 21.12 21.49
33.09 32.28 31.45 30.85 29.72 28.93 28.42 27.76 26.68 26.48 25.92 25.53 24.80 24.00 23.06 22.47 21.74 21.35 20.27 20.48 19.21 18.93 19.37 19.19 18.48 19.94 18.37 18.44 17.53 16.76 16.99 17.26 14.97 12.41 16.74 17.25 17.47 18.69 18.79 18.43 20.43 22.27 21.48
32.21 31.01 29.87 29.23 29.25 29.66 28.47 26.43 26.17 25.62 24.72 24.56 24.04 23.01 22.14 21.32 20.45 20.39 19.96 19.11 18.28 18.17 18.29 18.23 17.78 17.32 16.51 16.39 15.91 15.61 15.79 16.46 15.86 13.86 13.25 16.78 16.99 18.18 17.88 18.81 19.41 20.55 22.42
31.63 30.41 29.98 29.19 29.11 29.33 28.33 26.45 26.22 25.36 23.80 23.57 23.18 22.21 20.63 19.68 19.22 18.92 18.65 17.34 16.84 16.95 17.46 17.28 17.29 16.94 17.11 16.42 15.30 15.49 15.57 13.68 13.95 13.77 13.77 14.37 16.02 18.46 19.31 18.03 18.77 21.45 21.56
31.52 30.04 30.10 29.96 29.35 28.45 25.70 25.31 24.97 24.09 23.28 22.74 20.62 19.58 18.92 18.42 18.48 17.97 17.81 16.35 16.05 16.14 16.94 17.59 17.72 18.22 19.53 18.96 16.29 14.71 14.78 13.53 13.84 13.74 14.53 15.77 17.06 18.36 18.68 20.12 18.35 18.88 19.96
30.89 29.97 30.04 28.30 27.05 25.73 24.52 24.31 23.09 22.50 21.50 20.71 19.55 18.43 16.78 18.44 23.22 24.25 19.64 17.04 16.85 16.61 16.39 17.11 18.31 17.98 19.40 21.79 22.86 23.52 22.58 18.21 16.82 16.67 18.03 17.47 17.07 18.18 20.08 19.69 19.01 17.40 14.44
30.34 29.72 28.02 26.76 24.90 23.68 23.52 22.48 21.39 20.79 20.14 19.18 18.30 17.16 16.45 17.34 25.36 25.82 23.14 18.32 17.59 17.45 17.74 17.74 17.75 18.74 18.22 18.24 20.49 22.41 23.13 24.10 24.35 21.23 18.66 18.95 18.26 19.31 19.73 18.29 18.14 17.51 16.71
30.00 28.09 26.19 24.68 23.38 22.07 21.78 21.15 20.96 20.55 19.25 18.64 16.90 17.17 16.91 16.85 26.45 27.21 24.99 19.94 18.54 18.43 18.01 17.85 17.28 17.75 18.76 18.98 19.07 18.09 19.08 19.83 21.11 21.99 21.62 21.21 21.73 22.51 22.26 22.49 21.87 21.08 21.80
27.52 27.21 25.83 24.71 23.40 20.99 20.72 20.85 20.77 19.71 18.83 18.41 17.47 16.42 16.18 16.27 26.74 27.39 25.55 19.18 18.76 18.18 18.37 18.43 18.20 18.09 20.14 22.22 20.05 17.70 18.48 20.39 24.08 24.95 24.84 25.03 25.72 25.70 23.82 19.17 15.19 13.85 12.66
26.10 25.69 24.64 24.29 22.98 21.12 21.22 20.26 20.02 19.60 18.68 18.03 16.14 16.37 16.34 15.30 26.06 26.93 24.89 18.53 16.15 17.04 17.33 18.42 20.81 19.51 22.07 23.42 19.51 18.75 17.66 18.30 17.27 16.93 19.66 16.48 18.33 16.32 19.88 17.37 14.60 11.43 12.17
22.14 20.04 19.21 20.34 20.33 19.70 19.58 19.10 18.05 17.65 16.39 16.56 14.81 14.40 15.25 14.86 20.92 26.37 26.25 18.31 15.66 14.81 15.31 15.67 18.48 21.35 21.89 22.97 24.68 18.85 17.35 19.14 19.01 12.43 11.15 11.84 12.96 13.62 14.54 16.28 16.97 15.25 12.92
19.41 17.78 17.65 17.80 18.99 18.63 16.03 16.04 16.09 15.82 14.48 13.60 11.96 11.31 13.67 14.16 16.71 24.58 25.36 22.77 21.06 13.78 14.90 17.86 18.16 20.21 21.73 22.66 21.00 20.29 20.67 19.58 7.98 7.32 7.59 8.42 9.92 11.44 13.79 15.70 16.68 16.76 17.04
18.96 19.14 17.94 14.91 16.51 16.71 15.68 14.21 13.32 14.01 13.67 11.47 11.89 11.79 11.76 13.21 14.27 22.82 25.15 25.48 23.74 17.26 17.37 18.72 20.22 18.65 18.29 16.57 15.74 17.77 15.69 9.42 7.09 5.72 6.25 8.35 11.48 13.27 14.43 14.03 16.13 16.35 16.39
19.45 17.91 16.43 15.37 14.56 14.89 14.81 14.35 14.27 13.46 13.20 12.54 12.45 11.63 11.68 12.16 13.78 18.15 20.18 21.53 22.43 19.74 17.97 10.04 12.54 12.86 13.09 13.22 10.34 11.10 10.09 9.30 8.29 7.14 7.58 10.10 11.61 11.20 10.60 12.80 12.51 13.10 12.32
19.32 17.55 15.91 15.60 13.86 14.02 14.86 14.10 14.57 14.95 16.19 13.92 14.41 13.67 12.74 11.79 13.81 17.98 16.71 13.82 14.26 14.85 0.30 -1.33 0.74 5.04 5.35 6.21 6.46 6.45 7.68 7.85 7.00 7.69 7.56 7.40 8.35 9.40 9.53 12.15 13.14 13.10 10.25
18.52 16.19 14.89 14.55 13.11 13.41 13.15 12.64 20.41 19.47 20.77 21.74 20.92 17.79 16.62 18.27 19.95 20.93 20.93 20.59 20.62 18.57 -3.76 -6.83 -1.49 1.83 2.39 3.18 2.91 3.20 4.75 5.66 6.52 6.94 6.60 6.72 7.05 7.38 7.60 9.88 12.93 11.44 9.22
20.72 18.42 15.51 14.27 12.37 12.15 11.46 10.44 10.62 17.41 20.85 22.63 22.16 20.94 19.70 20.31 22.36 22.96 23.66 23.19 20.79 11.01 -5.42 -7.33 -5.97 -1.47 -1.03 0.93 1.30 1.76 1.82 3.76 5.85 5.03 5.59 5.44 6.03 6.55 7.35 8.98 11.02 10.44 8.59
20.88 19.82 15.63 13.55 12.23 12.00 11.82 11.83 12.69 12.56 14.16 16.53 21.86 20.27 21.87 23.17 24.14 23.83 22.48 19.00 7.52 1.08 -8.49 -11.07 -9.58 -8.08 -4.52 -2.52 -1.42 -0.89 -0.23 0.97 1.97 3.01 3.56 3.31 4.36 6.14 6.28 9.37 9.59 8.32 7.80
20.04 18.69 15.01 13.12 12.19 12.10 12.27 12.98 13.41 14.51 15.16 15.24 16.25 19.64 22.04 24.27 23.49 22.12 17.26 2.81 -0.35 -3.45 -9.05 -8.38 -10.02 -7.75 -6.23 -6.14 -5.66 -6.48 -5.63 -3.31 -1.00 0.06 1.21 2.83 4.92 5.38 7.96 9.30 9.18 9.00 8.55
20.58 18.78 14.09 12.24 11.19 10.85 11.92 12.54 13.80 14.19 14.27 13.84 14.30 15.42 18.06 18.46 10.08 3.35 -0.33 -2.10 -2.80 -5.44 -5.22 -8.66 -10.09 -12.35 -11.92 -12.86 -12.16 -12.03 -7.90 -5.24 -2.70 -0.26 1.27 3.32 5.41 5.83 8.56 8.18 8.37 7.86 7.22
18.17 15.37 12.06 11.67 11.14 11.01 11.85 12.11 13.10 12.44 12.13 13.05 11.16 11.37 15.00 9.22 2.96 -0.08 -3.74 -3.20 -4.81 -6.02 -6.97 -9.91 -12.39 -13.94 -14.47 -15.37 -16.43 -16.03 -10.25 -5.46 -3.54 -0.63 1.52 3.37 4.62 7.66 8.16 8.38 8.12 8.16 7.75
13.65 10.92 10.76 9.91 10.39 10.24 11.00 11.53 10.21 9.97 9.89 6.24 7.62 13.73 16.03 4.48 1.14 -2.29 -2.63 -4.42 -6.64 -7.96 -9.74 -13.46 -14.40 -15.16 -13.62 -16.26 -17.86 -13.49 -9.12 -7.13 -4.41 -0.89 1.27 2.75 5.07 8.26 7.45 6.98 6.98 7.70 7.03
10.70 9.65 9.49 9.46 9.97 10.19 9.62 9.05 8.45 8.35 6.53 6.37 8.61 10.23 2.38 0.56 -1.39 -2.11 -4.08 -7.85 -8.13 -8.42 -10.49 -13.55 -13.64 -13.23 -13.09 -15.93 -14.78 -10.31 -10.22 -7.87 -4.54 -1.18 -0.15 2.84 7.33 7.41 6.86 5.43 6.11 6.04 6.41
8.53 7.67 7.18 7.55 7.65 7.78 7.32 6.37 6.23 6.00 6.18 5.87 4.59 1.24 -0.74 -2.58 -3.79 -5.45 -7.33 -8.72 -9.67 -12.66 -15.36 -15.38 -14.46 -14.98 -13.91 -15.00 -15.68 -12.65 -10.02 -7.35 -4.52 -0.48 2.01 6.56 7.69 7.55 6.22 5.17 5.38 5.94 6.02
5.60 5.11 5.20 4.94 4.54 3.99 3.63 3.32 3.32 3.79 2.70 1.51 -0.60 -2.21 -4.15 -5.24 -6.41 -7.47 -9.08 -9.66 -11.27 -13.06 -13.25 -14.00 -15.22 -15.45 -15.44 -15.85 -14.61 -13.78 -10.13 -4.99 -3.03 3.26 9.34 7.95 8.17 6.42 5.30 4.93 4.67 5.46 5.78
2.94 2.83 2.46 2.44 2.09 1.79 0.91 0.13 -0.33 0.13 -0.95 -2.03 -3.20 -4.53 -5.02 -5.90 -7.24 -8.85 -9.98 -11.55 -12.06 -12.60 -14.67 -15.24 -16.75 -16.51 -16.25 -13.95 -12.45 -8.22 -2.55 4.88 7.30 12.57 10.22 8.48 8.50 5.78 4.74 4.09 4.11 4.62 5.10

GFSGL_sfc_wetblb_009.txt.gz
Wetbulb
32.25 33.14 33.23 32.67 32.04 31.44 29.92 30.05 29.78 28.93 28.13 27.51 27.54 26.83 26.08 25.34 24.98 24.16 23.52 23.09 22.67 22.47 22.95 23.02 22.41 22.39 20.99 20.43 20.92 20.46 19.70 19.43 15.55 18.19 21.17 20.65 19.92 19.99 20.95 21.35 21.86 21.69 22.39
33.38 33.04 32.59 32.09 30.72 30.51 30.11 29.38 29.68 28.30 27.80 27.56 27.17 26.67 26.13 25.47 24.51 23.89 22.31 22.63 21.85 21.42 21.39 21.01 20.11 20.99 18.73 18.64 18.09 17.66 17.53 17.94 16.03 13.79 17.40 18.29 17.84 19.10 19.34 19.24 21.14 22.90 22.78
32.11 31.29 30.71 30.50 29.54 30.43 30.15 28.69 28.43 28.24 27.12 26.93 26.52 25.92 25.32 24.72 23.53 23.45 22.72 21.64 21.11 20.96 20.55 20.17 19.08 18.43 16.91 16.45 15.99 15.63 16.20 17.29 16.41 14.65 14.15 17.63 17.93 18.99 19.24 20.86 21.52 22.62 24.14
30.70 30.36 30.82 30.63 30.19 31.06 30.64 28.28 27.67 27.74 26.40 25.77 25.94 25.71 24.85 23.99 23.04 22.36 21.98 20.47 19.76 19.24 19.37 18.99 18.19 17.58 17.00 15.89 16.20 15.96 16.04 14.54 14.55 14.50 14.83 15.69 17.22 19.88 20.84 19.78 19.18 21.58 21.84
31.14 31.08 31.08 31.37 31.27 30.85 29.96 27.92 27.30 26.76 26.71 25.53 24.40 24.07 23.64 23.12 22.37 21.15 20.61 19.25 18.49 17.26 17.52 18.26 17.80 18.17 20.93 19.42 16.36 14.81 14.66 12.51 12.76 13.00 14.62 16.32 17.95 19.00 17.96 20.04 19.05 19.52 20.33
31.66 31.69 32.08 30.73 29.28 29.60 29.32 27.53 26.29 25.51 25.10 24.77 23.58 22.94 21.78 22.59 27.14 26.99 22.16 18.82 18.35 17.37 16.03 16.79 18.05 18.89 20.97 23.22 23.44 22.88 17.87 11.64 10.58 12.12 16.88 17.90 17.81 19.15 19.99 18.91 18.40 17.42 15.86
31.61 33.19 30.68 27.36 27.40 27.62 27.00 25.81 25.22 24.66 24.11 23.81 23.10 22.51 21.64 22.42 28.05 28.43 25.37 19.52 18.12 17.52 17.49 17.55 17.81 18.87 18.46 19.05 23.16 24.62 24.59 25.38 25.42 21.71 18.34 18.81 18.56 19.55 20.24 19.11 19.32 19.27 18.98
31.85 31.62 27.51 27.95 28.13 26.35 24.94 24.22 24.20 24.30 23.29 23.09 22.78 22.39 21.72 21.43 28.87 29.24 26.00 19.96 18.65 18.14 18.36 18.51 18.29 18.16 18.72 18.37 18.24 17.91 18.97 19.44 20.23 20.69 20.12 20.15 21.14 22.59 22.32 22.41 20.53 16.93 16.79
27.69 27.46 27.01 26.06 27.04 24.17 24.19 23.77 23.98 23.67 22.97 22.85 22.87 21.37 20.98 20.58 28.99 29.43 26.09 19.17 19.02 18.58 18.98 19.20 18.54 18.34 20.67 23.00 19.04 15.25 17.40 19.77 23.74 25.43 26.46 26.59 26.34 26.30 25.10 18.49 12.00 10.80 9.75
25.49 25.76 23.85 22.81 22.76 23.76 23.99 22.99 23.51 23.84 22.59 22.59 21.04 21.27 21.02 19.60 28.66 29.59 25.76 19.39 17.73 17.87 18.47 18.91 20.68 19.63 21.88 23.62 19.48 13.44 11.28 17.79 19.94 14.99 18.65 20.21 19.34 18.23 20.35 17.18 13.05 9.04 9.37
22.82 20.66 18.03 18.97 19.26 19.82 22.73 22.31 21.30 20.97 20.66 19.99 19.25 19.18 19.02 19.86 25.21 29.76 28.66 19.65 17.84 17.11 16.52 16.95 18.54 23.46 23.32 24.50 24.29 19.28 18.84 19.12 15.51 9.80 10.93 11.81 12.80 13.55 14.27 15.16 15.59 13.65 10.92
23.00 19.17 17.95 15.45 17.70 18.35 17.46 15.58 19.14 19.70 18.47 17.47 16.86 15.73 16.85 18.82 24.68 29.46 29.88 24.05 22.87 16.27 16.49 17.39 18.75 23.56 23.72 23.38 23.35 22.21 22.61 20.29 3.52 1.48 3.84 6.65 9.13 10.82 13.33 14.95 16.23 16.15 16.10
29.92 25.78 21.64 20.23 18.38 19.71 18.58 17.55 17.21 17.37 16.22 15.07 14.64 14.73 13.86 16.10 20.49 28.60 29.56 26.59 24.33 17.07 17.82 19.71 21.97 23.00 22.93 20.95 18.55 17.95 16.07 8.28 3.13 -0.14 4.16 7.33 10.78 12.76 14.58 13.81 14.66 14.63 14.85
24.92 26.60 22.19 19.20 18.27 18.27 18.33 17.13 17.19 15.79 15.96 15.10 14.44 14.72 14.34 14.46 16.30 23.05 25.03 26.04 23.59 19.96 21.12 21.05 20.29 17.21 16.06 14.60 12.13 12.23 10.73 9.71 8.62 6.77 7.03 9.47 11.04 10.47 9.82 11.54 10.12 10.96 9.91
19.74 23.66 22.31 19.28 18.23 17.29 17.64 17.26 17.58 18.57 18.97 16.56 16.74 16.74 14.05 12.92 14.75 21.27 23.33 23.25 21.75 19.65 11.38 10.26 7.68 8.79 8.14 8.41 7.86 7.40 7.93 8.24 7.12 7.17 6.75 6.56 7.43 8.22 8.55 10.19 9.59 8.72 7.44
13.96 17.51 21.78 19.05 17.55 16.99 16.31 15.91 22.54 22.90 23.03 24.93 23.90 20.61 18.16 20.76 21.68 23.82 25.85 26.54 23.65 21.36 9.33 6.25 6.42 6.71 6.56 6.47 5.11 4.63 5.64 6.05 6.43 6.31 5.40 5.30 5.56 5.94 6.08 7.19 7.88 7.59 6.62
11.03 13.86 19.01 19.39 18.06 15.58 15.12 15.10 13.59 19.28 24.09 24.39 25.39 24.74 22.79 21.87 23.06 24.75 25.94 25.44 24.67 19.75 8.37 6.80 6.06 5.17 4.42 4.37 3.03 2.63 2.71 4.33 5.37 4.27 3.95 3.64 4.32 4.23 4.00 4.39 5.98 6.77 7.32
10.02 12.30 15.35 20.84 17.70 16.10 15.66 14.79 14.88 15.05 16.46 16.98 24.35 24.14 24.30 23.65 24.30 25.28 25.14 24.54 20.25 10.60 6.05 4.01 2.32 0.94 1.08 1.00 1.20 0.88 0.88 0.69 0.62 1.59 0.59 -0.18 0.18 0.93 2.19 3.19 5.13 4.43 6.89
9.96 11.70 14.83 19.71 18.77 16.41 15.37 14.40 13.93 14.74 15.55 16.39 19.09 23.47 22.50 24.53 25.45 25.32 25.17 17.03 7.83 3.56 2.92 1.26 0.35 -0.83 -0.99 -2.04 -3.10 -5.36 -7.81 -7.85 -4.57 -4.73 -7.65 -3.98 -0.70 0.47 1.95 3.86 4.74 6.70 6.78
9.05 11.23 13.95 17.21 15.92 14.14 13.44 12.84 13.14 13.91 14.63 16.22 17.16 17.80 19.00 21.37 20.67 20.85 12.68 8.80 5.66 3.11 0.72 -0.27 -3.19 -4.21 -5.31 -6.88 -9.75 -12.66 -14.74 -13.40 -8.38 -8.45 -7.65 -2.99 -0.71 1.43 2.78 3.38 5.12 5.99 5.18
6.66 11.11 14.89 18.52 13.29 12.88 12.69 12.52 13.27 14.05 14.90 15.43 16.47 18.22 22.05 20.39 17.79 6.58 5.22 5.50 3.75 1.35 -1.02 -2.34 -4.50 -7.56 -10.93 -12.35 -14.11 -17.71 -15.88 -9.99 -7.90 -10.54 -7.03 -3.11 -0.85 -0.18 2.35 3.80 6.88 6.40 5.26
10.77 12.94 15.04 12.51 11.69 11.62 12.23 13.15 13.84 14.61 15.00 14.47 15.57 19.02 23.80 9.92 7.77 4.82 3.36 1.51 -0.05 -1.11 -2.46 -4.12 -7.56 -9.45 -10.49 -11.69 -12.68 -12.90 -13.43 -11.27 -11.06 -11.83 -7.12 -2.39 -1.68 -0.07 2.45 5.87 6.32 5.37 4.40
10.73 10.66 10.30 10.53 10.83 11.46 12.07 12.90 13.03 13.56 12.89 12.30 14.00 14.75 7.93 5.37 3.71 2.09 0.40 -2.56 -3.56 -5.32 -6.73 -8.71 -9.80 -10.68 -11.20 -13.24 -11.83 -10.96 -11.81 -10.77 -10.67 -12.83 -7.19 -4.74 -2.44 0.55 4.34 6.07 5.48 3.59 2.82
7.09 7.89 8.36 9.05 9.63 9.64 8.87 9.14 10.39 8.38 9.86 11.55 8.29 5.36 3.64 2.48 1.02 -1.04 -2.57 -4.29 -4.94 -7.32 -8.22 -9.42 -9.93 -11.57 -13.80 -15.09 -14.54 -14.65 -13.50 -11.65 -12.89 -10.45 -7.85 -4.73 -2.10 3.11 6.34 6.10 4.23 2.74 2.64
5.49 5.84 6.19 6.32 6.37 6.41 6.55 6.43 6.42 7.45 7.50 3.26 2.00 1.01 0.03 -0.56 -1.63 -3.60 -4.88 -4.81 -6.25 -8.69 -8.96 -9.19 -9.44 -10.46 -12.35 -12.59 -12.80 -13.70 -13.14 -7.79 -9.68 -7.13 -4.49 0.54 6.54 3.48 5.92 4.18 2.27 1.91 2.18
2.42 2.83 3.07 3.38 3.18 3.60 4.15 4.32 3.42 2.78 1.53 0.87 -0.22 -0.88 -1.32 -2.32 -3.89 -5.24 -6.48 -7.03 -7.48 -7.63 -8.23 -8.90 -9.85 -10.90 -11.27 -11.48 -11.69 -8.96 -6.54 0.71 1.93 6.53 10.28 10.85 2.24 4.66 5.76 1.94 0.25 0.85 1.17

GFSGL_sfc_wetblb_012.txt.gz
Wetbulb
30.67 31.64 31.34 30.88 30.56 30.74 30.19 30.81 30.72 29.81 29.19 28.00 28.92 28.23 27.50 27.00 26.88 26.47 26.01 24.87 24.88 23.95 23.85 23.88 23.52 24.21 23.41 22.97 22.99 22.13 21.45 20.67 17.01 18.71 20.58 20.23 19.97 19.82 21.05 21.58 22.15 22.12 22.95
31.39 30.62 30.24 30.67 29.68 29.25 29.65 30.23 29.95 29.12 28.81 28.74 28.58 27.97 27.58 27.38 26.70 26.59 25.21 24.94 24.04 22.96 22.84 22.96 22.30 23.16 21.14 20.79 20.27 19.43 19.26 19.52 17.65 15.39 17.51 17.49 17.83 18.97 19.58 19.37 21.04 23.37 23.35
33.03 30.21 30.26 29.87 29.24 29.97 30.75 30.31 29.51 29.65 28.65 28.71 28.27 27.64 27.31 27.05 26.20 26.46 25.84 24.44 23.97 23.45 22.71 22.31 21.47 21.09 19.15 18.70 17.94 17.37 17.34 18.56 17.08 15.68 14.79 17.52 17.60 18.70 18.95 20.27 21.09 22.36 24.12
32.03 30.07 29.99 29.79 30.29 31.67 31.82 30.05 28.86 29.46 28.37 27.98 27.96 27.61 27.15 26.66 26.11 25.75 25.08 23.75 23.04 22.46 21.98 21.92 20.75 20.30 19.39 17.63 17.21 16.78 16.65 15.68 15.68 15.04 15.14 15.59 16.94 19.29 20.32 19.74 19.55 21.73 21.52
32.08 32.58 32.02 30.69 30.11 30.31 30.30 30.10 28.37 28.45 28.50 27.90 26.89 26.51 26.29 25.91 25.63 24.79 24.59 23.61 22.35 20.97 20.76 21.19 20.36 20.66 23.21 20.48 17.66 16.09 15.84 13.44 13.35 13.38 14.69 16.22 17.97 19.01 18.49 19.95 18.91 19.63 20.80
31.41 31.18 32.13 31.05 29.25 28.50 29.39 29.14 26.94 27.14 27.34 26.67 26.14 26.26 24.57 25.42 29.69 30.13 26.78 23.51 22.55 21.08 19.24 19.17 19.20 20.55 23.67 25.10 24.62 22.60 18.54 11.08 5.75 9.57 16.66 17.12 18.36 19.00 19.59 19.03 19.01 18.16 16.94
30.81 31.06 30.57 30.47 29.81 28.84 26.92 27.17 26.63 26.19 26.82 25.95 26.03 25.84 24.98 25.42 30.40 31.30 30.42 24.02 22.74 21.39 20.23 19.20 18.43 19.63 19.91 21.84 25.42 24.35 23.69 24.36 19.86 17.62 18.08 19.01 18.68 19.24 19.83 19.63 20.32 20.05 18.31
29.69 29.28 29.34 28.29 27.58 27.99 25.27 25.91 25.74 25.41 25.63 25.77 25.61 25.40 25.28 25.06 30.38 32.26 30.90 23.99 22.85 21.49 20.61 19.94 19.52 18.88 19.34 20.33 21.46 22.51 22.02 22.02 22.21 21.83 20.20 19.71 19.71 21.23 22.18 22.64 20.58 15.88 15.99
29.70 29.16 28.66 27.76 26.13 25.84 25.63 25.45 25.84 25.03 25.47 25.98 26.47 25.52 24.98 25.29 29.92 32.40 30.25 22.44 22.25 20.50 20.34 20.38 20.17 19.24 22.02 23.97 18.69 17.16 18.55 19.44 23.29 24.97 25.65 26.38 26.63 26.09 24.76 15.75 7.27 4.31 7.94
26.46 27.60 27.03 26.06 23.85 23.77 24.25 23.23 25.33 25.56 25.58 24.95 25.22 25.83 24.88 24.80 28.77 32.24 30.24 21.52 19.76 18.98 19.74 20.05 22.30 20.60 24.14 25.41 17.51 15.84 13.79 17.18 19.28 16.86 19.65 20.57 20.51 18.34 20.26 17.61 10.44 1.10 7.05
22.71 22.82 27.25 26.72 23.96 22.58 22.04 19.06 20.04 22.58 23.41 22.68 21.48 23.06 23.16 23.28 24.44 31.70 31.55 21.79 20.47 19.10 18.51 18.37 19.57 24.62 25.22 26.63 23.92 17.92 16.94 19.58 19.14 13.73 13.00 12.80 13.71 13.97 14.42 15.56 16.03 13.75 9.57
20.28 21.69 21.77 23.87 25.16 23.37 19.78 18.61 16.23 19.86 20.09 18.40 15.39 16.20 18.38 19.93 24.31 31.13 31.85 24.79 24.33 19.53 18.78 19.11 19.57 25.32 25.32 26.57 25.64 23.90 24.52 18.68 8.13 6.60 3.57 6.51 9.72 11.00 13.11 14.66 15.82 16.13 16.28
16.61 16.46 17.31 19.94 23.60 21.74 21.54 20.33 19.12 19.12 17.42 16.92 16.75 15.78 16.06 18.01 21.28 28.84 31.48 28.20 25.78 20.64 20.24 20.77 22.65 25.79 25.83 26.23 27.03 26.00 19.59 11.45 6.57 5.13 4.11 7.89 10.99 12.63 13.96 13.59 14.14 13.79 14.04
11.47 11.82 13.38 14.56 17.76 22.99 20.67 21.32 19.55 18.79 18.08 17.91 16.17 16.04 15.02 15.83 18.41 22.73 27.76 28.78 25.45 21.26 22.26 21.44 22.58 24.55 25.62 19.15 20.94 20.72 14.02 11.58 9.38 6.91 7.50 10.01 11.45 10.67 9.63 11.11 9.57 9.70 8.29
8.24 8.91 9.98 11.89 14.32 19.71 20.86 20.48 19.67 21.22 21.16 19.40 18.73 18.52 16.73 15.13 17.51 23.24 27.32 26.21 23.33 19.52 19.97 20.09 20.35 17.08 15.28 12.41 11.16 10.84 10.71 10.18 8.75 8.12 7.96 7.58 7.82 7.91 8.30 9.89 8.85 7.14 4.78
4.81 6.17 8.05 10.10 11.67 14.75 19.09 19.25 23.54 24.93 24.69 26.11 26.04 22.27 20.50 22.10 23.16 25.55 28.81 29.71 26.15 24.93 18.01 16.36 14.17 12.81 11.72 10.14 8.72 8.15 8.85 8.61 8.85 8.12 6.93 6.60 5.55 5.65 5.95 6.93 7.22 4.71 3.66
2.37 3.85 5.73 8.05 9.51 12.07 16.27 16.76 16.47 19.34 25.57 26.61 26.53 27.07 25.68 22.47 24.94 25.41 28.00 30.30 27.50 24.86 16.02 13.86 12.12 10.88 10.55 9.87 8.65 7.99 7.26 7.94 7.80 6.48 6.03 5.27 4.92 4.10 3.37 3.27 4.08 4.81 3.83
2.23 4.07 5.64 7.35 9.01 10.81 13.34 16.84 16.69 16.71 15.42 19.21 25.36 25.63 27.54 25.81 25.78 25.65 27.62 29.68 24.95 21.41 13.82 12.11 10.39 9.81 8.88 7.82 6.84 6.06 5.71 4.77 4.22 4.09 3.22 1.64 -0.61 -1.44 -1.26 -0.28 1.75 1.77 2.73
2.45 3.35 5.34 6.30 7.55 9.75 12.48 15.56 16.67 15.91 15.94 17.45 18.76 23.24 25.55 27.09 24.95 26.20 27.58 24.26 21.09 10.05 11.24 10.83 9.47 7.84 6.45 5.59 4.58 3.43 1.85 0.12 -1.24 -2.30 -3.64 -5.63 -5.89 -6.06 -3.27 -0.87 1.52 3.12 3.65
2.45 3.94 4.11 4.77 6.70 8.53 11.14 14.94 14.85 13.98 14.48 16.35 16.69 18.79 21.73 21.94 20.10 21.46 23.36 23.24 13.51 12.04 9.93 7.09 5.79 4.79 3.49 2.02 0.05 -1.71 -3.54 -5.41 -6.10 -6.83 -6.96 -6.64 -5.40 -5.72 -1.48 -0.91 0.77 1.56 1.83
1.67 2.27 3.45 4.54 6.17 9.42 12.57 13.54 13.81 13.20 13.51 14.93 16.16 19.63 22.41 18.80 19.07 20.24 22.15 13.57 10.69 7.71 6.90 4.70 2.45 1.24 -0.52 -2.45 -4.65 -5.08 -6.19 -4.48 -6.12 -8.41 -8.59 -10.34 -9.20 -5.56 -2.69 -0.09 0.38 1.79 3.75
4.18 4.96 6.14 7.59 9.92 12.42 13.56 13.08 12.78 12.60 13.35 14.46 16.26 18.61 24.29 19.28 15.70 10.17 11.04 9.14 7.12 5.55 4.36 2.38 0.01 -1.60 -3.79 -4.94 -4.69 -6.41 -7.09 -7.23 -9.94 -11.92 -14.13 -12.38 -6.85 -4.46 -3.73 -1.67 0.68 3.05 5.19
6.28 6.95 8.59 9.50 10.18 11.52 11.83 12.00 12.21 12.98 13.55 14.91 16.09 16.54 13.50 8.97 7.72 5.25 1.51 1.32 0.67 -0.65 -0.50 -0.64 -2.88 -5.83 -6.38 -5.83 -6.69 -5.48 -5.79 -7.47 -10.30 -13.20 -12.99 -11.51 -7.90 -7.03 -4.38 -1.78 1.07 3.84 3.89
4.91 5.60 6.29 7.81 8.29 7.20 7.74 8.90 9.69 11.08 12.44 11.02 6.00 5.34 4.66 4.22 1.44 0.43 -0.08 -0.66 -1.93 -3.63 -3.76 -3.90 -4.17 -4.87 -7.00 -9.99 -10.11 -11.50 -13.79 -13.75 -13.62 -13.32 -14.42 -11.26 -7.59 -6.07 -3.29 0.13 3.90 4.26 2.89
3.17 3.23 3.79 4.85 5.93 6.50 6.49 7.07 7.54 4.37 4.73 3.73 2.65 1.95 1.65 1.30 -0.56 -1.29 -1.49 -2.34 -4.02 -5.13 -6.29 -5.88 -5.64 -6.35 -7.28 -8.96 -10.37 -12.69 -12.58 -4.75 -6.60 -9.46 -11.91 -7.41 -7.61 -5.35 -0.25 2.20 3.97 3.22 0.34
1.33 1.63 1.95 2.48 2.79 3.73 3.78 2.86 2.32 2.16 1.33 1.24 1.42 1.27 0.60 -0.71 -1.49 -2.28 -2.98 -3.96 -4.61 -4.71 -5.57 -6.10 -6.50 -7.19 -8.09 -8.40 -10.48 -8.99 -7.65 -1.89 -5.35 -5.80 -6.72 -3.00 1.93 6.28 0.19 1.53 2.55 0.35 -1.64

GFSGL_sfc_wetblb_015.txt.gz
Wetbulb
35.27 34.15 33.00 33.41 33.35 32.82 31.75 32.40 32.43 32.40 32.01 31.19 31.37 31.50 30.97 30.61 30.47 30.02 30.74 29.85 29.39 29.42 29.08 28.62 28.18 28.61 28.60 28.49 28.62 28.32 27.48 27.23 27.46 23.39 25.94 25.74 24.89 25.04 25.41 25.79 25.83 26.48 27.53
34.59 34.30 33.74 32.84 31.78 31.36 31.78 31.99 31.84 31.41 31.04 31.11 30.69 30.59 30.40 30.06 29.80 29.53 29.25 28.90 28.91 27.72 27.46 27.62 26.91 26.74 27.04 27.30 27.12 26.39 26.43 25.71 24.99 23.99 22.34 23.16 23.24 23.91 24.29 23.80 24.51 25.79 26.85
33.35 33.27 33.36 33.64 32.21 31.65 31.68 31.82 30.85 31.67 30.86 30.63 30.02 29.71 29.61 29.43 29.21 29.36 29.67 28.66 28.47 28.53 27.58 26.82 26.42 26.30 25.51 25.43 25.43 24.57 24.72 23.76 23.39 22.02 21.26 21.99 22.33 23.16 23.43 24.22 24.35 25.55 26.09
32.50 32.31 32.21 32.51 32.70 32.78 32.46 32.05 30.90 30.78 31.09 30.43 30.02 29.71 29.40 29.07 28.86 28.62 28.56 28.37 28.03 28.11 27.48 27.44 26.45 25.61 25.47 24.53 23.87 23.82 22.91 22.61 21.51 20.49 19.61 19.60 20.54 22.45 22.58 22.45 22.93 24.76 24.54
31.54 31.46 31.51 31.94 31.98 31.81 31.47 31.53 31.35 29.95 30.25 30.28 29.71 29.38 29.28 28.62 28.25 27.80 27.81 28.29 27.56 27.08 26.42 26.50 26.25 26.26 27.56 26.02 23.85 22.69 21.53 20.67 19.79 19.05 18.41 18.66 19.82 20.13 20.53 22.98 21.64 23.13 24.27
30.06 30.36 30.88 30.95 30.35 30.13 30.89 30.46 30.23 29.57 29.36 29.81 28.77 28.83 28.30 28.10 31.63 32.68 29.65 27.85 27.53 26.32 24.55 24.99 25.37 25.24 27.15 28.18 27.84 26.21 23.31 19.01 17.36 18.10 18.87 18.16 19.96 21.67 22.25 21.41 21.23 20.77 20.70
27.88 29.36 29.22 29.34 28.22 28.05 29.02 29.03 28.28 28.79 29.18 28.24 28.36 28.66 28.02 28.58 32.39 33.56 32.57 27.81 27.09 26.44 25.62 24.24 23.22 23.81 25.04 25.87 28.35 27.30 26.12 25.68 22.93 20.39 20.32 21.18 21.52 22.44 22.42 21.31 21.64 21.60 20.91
25.19 25.28 26.54 25.35 24.11 26.66 27.06 27.35 27.68 27.97 27.64 27.65 27.88 28.25 27.86 28.47 31.54 33.47 32.77 28.55 27.08 26.53 25.71 24.67 23.79 23.01 23.93 24.35 25.09 24.55 23.78 23.88 23.16 22.48 22.99 24.07 24.08 23.87 23.54 23.85 22.68 20.09 18.83
22.76 22.66 22.70 22.29 22.06 26.04 25.41 25.60 26.51 26.60 26.77 27.30 28.09 28.07 27.44 28.15 31.44 32.57 32.93 29.56 26.25 25.90 25.07 24.65 24.18 22.90 25.15 27.40 24.16 22.96 22.22 22.08 25.99 26.84 26.77 26.16 26.08 26.71 26.31 21.70 17.45 14.79 13.67
21.17 20.75 20.46 20.44 22.42 21.21 22.39 24.30 25.60 25.62 25.61 26.52 26.60 27.39 27.26 27.07 30.31 31.28 32.80 30.28 25.71 24.74 23.89 23.31 24.94 23.94 26.24 27.92 23.62 22.95 21.65 22.44 22.72 24.60 24.24 25.78 27.50 24.08 23.28 21.60 17.49 12.96 12.79
20.03 18.73 17.56 18.03 18.34 19.03 20.13 22.85 23.93 24.12 24.44 24.24 24.18 25.31 25.68 26.15 26.80 30.84 32.43 30.37 25.74 24.19 22.50 21.16 22.05 26.61 26.76 28.53 26.25 22.46 22.44 22.84 22.83 21.28 21.58 20.28 19.15 18.52 18.06 18.51 18.66 16.34 13.18
16.08 15.00 14.60 14.33 14.81 15.93 16.12 18.16 22.00 22.64 21.47 23.30 23.22 23.10 23.39 24.22 25.84 28.84 31.20 33.55 28.74 24.23 22.18 22.03 22.13 26.96 27.54 29.00 26.53 23.53 24.65 22.58 20.41 18.30 16.76 15.91 15.63 14.94 16.26 17.00 17.69 17.98 18.21
12.49 11.50 11.31 11.64 11.80 12.77 13.36 15.09 17.90 21.73 20.63 21.10 21.20 20.47 21.14 21.53 23.09 27.83 29.19 31.83 30.56 24.53 23.82 23.79 24.12 27.42 27.64 28.89 28.27 24.86 23.67 19.10 17.15 14.41 13.61 14.88 15.06 15.92 16.17 15.68 15.68 15.08 14.85
7.91 8.55 9.19 8.76 9.11 9.95 12.03 14.38 16.70 20.09 20.64 20.65 20.80 20.45 20.81 20.04 20.13 22.10 25.33 27.99 30.93 26.80 24.39 23.45 24.10 26.37 27.23 26.77 26.50 25.78 19.97 17.98 16.61 15.57 13.94 14.17 14.53 13.35 12.79 13.38 11.92 12.28 10.92
6.51 6.80 6.52 7.06 6.67 7.67 10.25 12.59 14.85 18.94 21.92 20.64 21.07 21.10 20.55 19.02 19.72 22.90 23.88 25.63 27.43 25.31 21.98 21.78 21.84 23.39 22.98 22.22 21.17 17.12 15.73 14.41 13.81 13.14 12.06 11.10 11.25 11.37 11.21 12.16 11.21 10.09 8.00
3.14 3.34 3.80 4.26 4.81 6.06 7.13 8.81 15.94 19.41 22.92 26.27 26.93 25.96 22.50 24.74 25.80 25.65 26.97 28.26 29.94 26.09 19.99 19.06 19.97 21.52 18.07 18.43 15.50 13.90 13.68 12.45 12.81 11.54 10.93 10.39 9.84 9.69 9.70 9.76 9.72 8.05 6.74
0.17 1.12 1.80 2.45 2.88 3.63 5.24 6.61 6.72 12.23 19.67 24.37 26.21 27.40 28.09 27.25 25.64 26.56 27.52 28.54 31.00 26.61 19.05 19.12 19.50 19.41 17.23 16.57 14.71 12.76 11.35 11.95 12.47 11.08 9.95 9.34 8.72 8.21 7.16 6.94 7.24 6.87 6.18
0.02 0.53 0.65 1.12 1.83 3.30 4.44 5.68 7.46 8.64 10.63 15.90 21.87 24.00 26.80 28.25 28.29 26.84 27.24 28.40 27.17 25.00 20.07 19.50 18.31 17.54 14.01 13.05 12.37 11.80 11.11 10.47 9.94 9.55 8.66 7.41 5.98 5.17 4.10 4.39 4.81 4.12 4.51
-0.27 -0.07 0.52 1.35 2.32 2.92 4.53 4.96 5.51 7.56 9.80 13.11 17.52 20.65 22.79 28.46 28.34 26.93 27.72 24.64 24.63 21.49 18.48 17.45 15.56 15.01 14.04 13.51 12.18 10.71 9.48 8.11 7.88 6.60 5.19 3.08 2.12 1.40 1.22 2.30 3.28 3.12 3.74
0.91 1.91 2.54 2.56 3.01 3.20 3.55 4.10 6.00 7.78 9.86 13.68 15.29 16.88 19.82 22.71 23.66 22.52 24.03 23.54 24.83 21.68 16.13 15.21 14.68 13.98 12.40 10.66 8.79 7.37 5.96 4.26 2.95 1.91 1.12 0.93 0.65 1.14 2.16 1.06 1.87 2.86 3.14
1.64 1.90 2.46 2.61 2.11 2.59 3.28 4.13 6.33 9.24 12.15 14.28 14.93 17.32 21.14 20.99 21.53 20.73 22.06 22.32 15.82 14.98 14.41 11.55 10.16 9.08 7.85 6.17 4.53 3.47 2.80 1.88 0.73 0.14 -0.08 -0.81 -1.47 -1.60 0.01 1.65 1.89 1.14 1.64
2.26 2.53 3.51 4.11 6.09 6.28 7.02 8.54 9.90 12.39 14.00 13.66 14.26 16.28 21.73 22.16 20.71 19.79 14.69 11.69 11.87 10.89 9.49 6.91 4.81 4.38 4.05 3.84 2.94 2.03 1.28 0.33 -0.52 -0.30 -0.48 -1.81 -2.48 -1.84 -1.81 -0.64 -0.59 1.21 2.35
3.16 3.27 4.13 5.79 8.26 9.79 10.92 12.12 12.66 13.10 13.13 13.78 14.81 14.58 14.42 9.59 5.94 5.01 3.85 3.83 4.29 4.20 4.50 3.59 1.89 0.26 1.12 1.27 2.66 2.72 1.35 0.08 -0.06 -1.30 -2.36 -3.07 -3.67 -2.96 -3.91 -2.85 -1.44 -0.41 1.80
2.32 2.57 3.29 4.52 6.54 7.50 7.88 8.12 8.98 9.42 7.30 6.48 6.03 5.72 4.47 3.77 2.26 1.57 1.39 1.26 1.18 1.55 2.50 2.04 1.11 -0.46 -2.04 -2.40 -2.15 -1.33 -0.21 -1.40 -2.59 -3.34 -3.64 -4.84 -5.29 -5.18 -4.55 -3.87 -1.47 0.58 3.78
0.91 1.23 1.98 2.47 3.12 4.11 4.09 4.07 3.51 3.19 3.27 3.13 2.53 2.18 1.71 1.66 0.73 0.26 0.21 0.31 0.12 0.02 -0.77 -0.59 -0.58 -2.02 -3.08 -4.49 -4.87 -5.84 -6.02 -1.61 -7.30 -7.41 -8.45 -7.81 -6.50 -5.36 -4.76 -3.31 0.35 3.28 3.92
-1.03 -0.83 -0.53 0.23 0.33 0.85 1.00 1.11 1.01 1.24 1.00 1.29 1.17 0.80 0.43 -0.13 -0.17 -0.33 -0.43 -0.69 -1.61 -2.26 -2.99 -2.92 -3.37 -3.61 -3.99 -4.23 -5.19 -5.12 -5.22 -2.58 -4.47 -4.13 -6.93 -6.60 -4.97 -4.04 -2.92 1.01 1.86 2.77 3.11

GFSGL_sfc_wetblb_018.txt.gz
Wetbulb
36.17 37.22 37.74 38.11 38.15 37.90 37.60 37.81 37.76 38.42 38.38 38.01 38.27 37.85 37.95 37.30 37.43 36.98 36.85 36.77 35.53 35.85 35.52 35.99 35.95 36.88 36.02 35.73 35.86 35.46 34.89 36.26 36.35 31.20 33.68 33.24 31.90 30.93 28.71 29.42 30.10 30.57 31.63
35.30 35.88 35.74 36.56 36.18 36.08 36.77 37.00 37.38 36.52 37.14 36.77 36.90 35.90 35.80 36.41 36.25 35.47 35.34 35.12 34.40 33.88 34.52 34.32 34.80 33.13 34.86 35.11 34.58 33.90 33.54 33.92 34.59 28.54 29.23 28.70 28.74 29.11 29.26 28.68 28.13 28.32 30.08
33.75 33.94 34.29 34.17 34.05 33.59 33.64 35.06 35.93 35.80 35.72 36.22 34.82 34.85 35.01 35.07 34.68 34.47 34.35 34.94 33.96 33.54 33.63 32.43 32.64 31.95 31.93 32.60 32.42 32.34 32.13 29.55 31.88 31.96 27.10 28.25 27.18 27.65 26.53 27.58 28.21 29.03 29.29
32.13 32.54 32.45 32.52 32.80 32.56 32.76 33.31 33.67 34.27 34.20 34.11 34.52 33.87 33.85 33.64 33.26 32.93 32.26 33.22 33.26 32.51 33.20 32.29 31.62 30.35 31.07 30.73 30.13 30.75 30.74 30.40 29.33 28.28 27.93 25.07 25.86 26.28 26.67 26.72 25.89 28.46 29.06
29.71 30.50 30.50 31.72 31.71 30.79 30.61 31.63 32.48 33.06 33.00 33.23 32.80 32.87 32.24 31.78 31.54 31.55 31.29 31.56 31.27 30.91 31.38 31.18 30.95 30.71 31.93 32.08 29.85 29.69 29.27 29.40 28.29 27.26 25.65 24.99 24.63 23.49 23.51 26.52 26.44 27.80 28.90
27.95 28.39 28.84 29.73 29.12 27.68 28.51 29.67 29.53 30.14 31.58 32.51 31.42 31.52 31.12 30.67 32.95 34.40 32.92 30.34 30.49 29.97 29.70 30.62 30.10 29.67 30.72 33.23 33.27 32.69 30.38 28.38 26.96 26.83 25.39 23.52 24.73 25.31 26.08 25.42 24.94 24.38 26.14
26.77 27.56 27.39 27.17 26.02 25.38 26.62 28.94 27.93 28.31 29.39 29.24 30.16 30.88 30.78 31.71 33.21 34.02 33.98 31.37 30.09 30.08 29.92 29.43 28.21 28.56 28.60 29.42 32.37 32.26 30.87 31.53 31.07 28.26 26.52 25.59 25.36 25.98 26.52 24.80 24.66 24.79 25.20
26.21 26.29 26.50 25.07 23.68 23.84 24.35 26.02 25.66 27.38 27.58 27.89 28.56 29.95 30.42 30.70 32.63 33.27 33.52 32.39 30.89 30.33 30.64 30.11 28.73 28.34 27.65 28.05 28.39 28.59 28.12 27.97 28.40 27.23 28.21 28.05 27.93 28.03 27.22 26.89 26.05 26.08 26.17
24.79 24.91 25.20 23.59 21.14 21.25 20.35 22.21 23.58 24.76 26.39 27.30 28.19 28.96 29.76 30.26 32.14 32.44 32.43 31.36 31.02 30.22 30.18 30.45 29.59 28.41 28.61 30.84 27.77 27.23 26.78 26.24 29.19 28.63 27.69 29.09 28.96 29.30 27.46 26.94 23.45 21.67 19.72
24.35 24.18 24.00 22.43 19.64 18.77 20.14 19.85 21.59 22.75 23.54 25.69 26.79 28.25 28.91 29.41 31.14 31.82 31.65 31.70 30.34 30.28 30.05 28.80 29.39 29.25 30.29 30.02 28.14 27.61 25.08 24.58 24.42 24.29 24.75 27.58 28.01 26.99 27.77 26.60 24.87 20.53 19.48
23.78 22.88 21.64 20.79 18.68 18.51 18.45 19.18 18.57 18.88 20.32 21.59 24.19 26.01 27.20 28.57 29.51 31.01 31.63 30.53 30.40 30.40 30.16 28.47 27.96 30.35 30.82 29.73 31.11 28.16 26.96 25.93 25.31 23.83 25.16 25.80 25.29 25.96 26.65 26.19 24.19 20.82 18.54
21.05 19.32 18.49 17.53 17.29 17.13 15.32 15.50 15.80 16.61 17.26 18.46 20.92 23.68 26.11 27.75 28.59 29.34 30.81 31.40 31.90 30.24 30.21 29.15 28.19 28.50 29.71 29.65 29.93 29.06 29.41 26.79 24.63 25.01 24.66 23.24 22.05 22.00 21.99 20.85 21.20 20.99 21.65
16.00 14.12 14.05 14.40 14.27 14.00 13.05 13.02 13.86 14.79 15.56 17.25 20.06 22.35 23.76 26.23 27.64 28.19 29.56 30.42 31.15 30.27 31.09 29.86 29.14 27.95 29.04 29.28 30.88 29.58 27.84 24.59 23.98 22.54 22.17 21.18 21.42 20.93 20.18 18.97 19.19 19.49 19.32
10.48 10.54 11.21 10.50 11.03 11.33 12.11 12.57 12.42 12.82 14.03 16.01 18.17 21.12 22.93 24.16 25.42 26.46 26.01 26.25 29.06 29.74 30.89 29.93 28.31 26.70 27.70 27.59 27.73 29.56 26.70 22.89 22.71 21.16 20.28 20.01 19.50 17.55 16.72 17.35 15.65 14.85 14.33
6.43 6.75 7.06 7.65 7.34 7.59 8.84 9.63 10.38 12.42 14.15 13.87 15.80 17.93 19.56 20.73 24.06 26.76 25.50 24.54 26.48 28.13 29.24 26.83 25.53 23.90 23.81 26.01 26.60 25.90 24.36 21.62 20.75 20.71 18.89 16.65 15.66 15.13 14.88 15.68 14.91 14.28 11.94
2.71 3.37 4.07 4.20 4.46 5.02 5.14 5.65 11.03 13.22 15.43 17.56 19.61 19.86 20.62 23.70 26.39 27.08 27.48 27.77 27.62 29.34 25.68 23.04 22.82 22.22 22.93 24.52 25.32 22.80 21.78 19.78 19.51 18.33 16.83 15.17 14.30 13.78 13.23 13.38 13.55 12.00 11.31
1.22 2.10 2.73 2.74 3.08 2.88 3.30 3.32 2.46 7.35 12.96 15.31 17.50 19.62 21.36 22.62 25.93 28.46 28.88 28.65 27.94 28.85 24.85 23.10 23.26 22.96 23.89 24.49 24.05 19.53 18.58 19.75 17.96 16.42 15.28 14.28 13.99 13.88 13.00 11.91 11.72 11.30 10.13
1.89 2.01 2.36 2.53 2.54 2.59 2.75 2.88 3.62 2.99 3.59 6.84 12.87 15.17 18.81 23.23 26.03 27.84 29.48 28.67 25.03 26.50 25.99 22.74 22.98 23.77 24.31 22.32 20.36 18.28 17.04 15.03 15.48 14.54 13.53 13.15 12.75 12.03 10.80 10.70 10.52 9.43 9.04
2.35 2.86 3.29 3.38 3.35 3.24 3.45 3.53 3.84 4.05 4.66 5.89 8.01 12.34 15.76 20.50 24.04 26.13 27.17 26.51 23.93 24.46 25.36 22.40 23.10 23.71 21.66 21.04 18.42 16.82 15.33 14.83 14.07 12.96 11.93 10.99 10.48 9.37 8.93 9.13 9.01 8.09 7.74
3.69 4.06 4.18 4.22 4.01 3.93 4.31 4.15 4.45 4.93 5.41 6.36 8.29 10.65 14.38 19.42 19.51 21.26 26.27 26.47 25.09 24.99 24.87 22.65 22.17 19.39 19.00 18.18 17.28 14.90 13.39 12.00 10.90 9.62 7.90 7.56 7.24 8.00 6.93 6.87 7.53 7.70 6.98
3.83 4.38 4.16 4.53 4.40 4.94 5.37 5.39 5.59 5.79 6.17 7.47 9.81 13.79 20.02 19.15 19.20 20.95 24.38 25.35 25.01 25.70 21.35 18.82 17.59 17.05 15.80 14.14 12.87 11.93 10.58 8.92 8.12 7.01 6.16 6.05 5.62 5.39 7.56 7.48 7.54 6.27 6.13
4.95 4.73 4.75 4.64 5.97 6.91 8.19 9.80 10.67 9.68 9.37 9.72 12.32 17.21 19.69 18.88 19.97 21.15 19.69 17.71 18.21 19.19 18.23 16.63 13.83 12.45 11.26 10.68 10.19 9.52 7.83 6.50 6.45 6.19 5.72 5.14 4.61 5.45 5.38 5.72 5.66 6.12 6.14
3.63 3.61 4.42 5.38 6.70 7.61 9.55 10.27 10.48 11.38 13.68 13.77 13.59 12.88 12.90 11.37 10.98 10.16 9.55 10.35 10.61 10.33 10.33 9.25 7.99 7.35 8.44 9.27 10.29 9.74 7.62 6.38 6.41 6.45 4.73 4.00 4.05 4.40 4.57 4.85 4.33 3.99 4.85
2.56 2.60 3.29 4.10 4.39 4.85 6.00 6.17 6.03 6.29 6.52 6.17 5.98 5.61 5.16 5.11 4.91 4.88 5.62 6.46 6.62 7.24 7.64 6.99 6.38 5.33 5.03 5.67 6.67 7.22 6.88 6.07 5.70 5.58 5.44 4.43 3.57 3.24 3.74 3.35 3.84 3.93 4.72
0.78 1.07 1.68 1.88 2.16 2.12 3.26 3.90 4.03 4.45 4.24 4.04 4.00 3.74 3.53 3.09 2.67 2.96 3.54 4.22 4.27 4.65 4.52 5.09 5.30 4.45 3.77 3.64 3.33 2.52 5.16 3.66 2.51 2.16 1.68 2.73 2.87 2.28 2.32 2.86 3.83 4.77 5.60
-0.98 -0.69 -0.29 0.66 0.84 1.02 1.01 1.29 1.50 1.98 2.09 2.21 2.14 2.17 2.18 2.16 2.55 2.57 2.66 2.61 2.23 2.24 2.39 2.60 2.70 1.99 1.40 0.95 0.37 0.12 1.68 1.35 -1.67 -1.11 -0.38 0.33 0.59 1.48 1.97 1.88 2.18 3.95 5.72

GFSGL_sfc_wetblb_021.txt.gz
Wetbulb
35.53 36.26 36.55 36.50 36.44 36.20 35.75 36.90 37.63 37.66 38.00 37.67 38.01 38.13 38.57 38.64 39.38 38.77 37.89 37.85 37.13 37.19 37.38 37.38 37.32 37.99 37.41 37.04 36.65 36.22 35.09 36.09 37.37 30.93 34.15 34.48 33.31 31.57 30.12 29.48 30.75 29.58 30.05
33.97 34.85 34.56 34.49 34.72 33.86 33.67 34.16 35.18 35.70 36.63 36.39 36.43 35.95 36.15 36.89 37.48 36.86 36.46 35.53 35.83 35.50 35.93 35.42 35.61 35.52 36.00 36.14 35.34 34.26 33.78 34.17 34.93 28.47 30.37 30.49 31.08 31.40 28.79 27.19 27.16 28.40 29.70
32.38 33.06 33.19 32.78 32.34 31.40 31.28 32.42 33.10 33.36 33.75 35.03 34.82 34.79 34.89 34.95 35.33 35.89 35.42 35.09 35.21 35.35 35.40 34.95 34.38 34.75 33.70 34.58 34.32 33.55 33.13 29.63 33.03 30.37 27.21 28.69 28.83 30.01 28.12 27.53 27.88 27.48 27.87
31.37 31.07 31.10 30.99 31.33 30.63 29.72 29.85 31.22 31.97 31.88 32.67 33.05 33.04 33.45 33.74 33.40 33.71 33.40 34.00 34.14 34.46 34.82 34.64 34.67 33.82 33.70 33.48 33.15 33.07 32.36 31.18 31.31 30.57 26.60 26.47 26.15 26.86 26.57 25.04 24.47 27.02 26.99
30.82 29.60 29.45 29.89 30.14 29.50 28.49 28.22 30.11 30.39 30.33 31.13 31.09 31.79 32.06 32.15 31.79 32.12 32.21 32.32 32.14 32.62 33.49 33.18 33.58 33.77 34.23 34.45 32.93 32.55 31.58 31.19 29.93 28.95 26.93 25.19 24.72 23.40 23.17 25.46 25.46 26.36 27.06
29.84 28.13 28.62 28.47 28.04 27.34 27.10 26.39 28.05 28.78 28.47 29.06 28.80 29.47 30.08 30.66 33.27 34.31 33.84 31.96 31.21 30.68 30.62 32.11 31.98 31.71 32.70 35.09 36.09 36.24 33.74 31.35 29.72 28.88 27.98 25.98 25.14 25.33 25.09 25.11 25.34 25.50 23.29
28.80 27.90 27.22 27.24 26.53 25.99 25.34 24.86 24.90 25.59 26.41 26.48 27.47 28.33 28.42 29.78 32.50 33.50 34.34 32.20 31.34 31.04 30.37 30.35 30.56 30.67 30.55 30.82 34.27 35.57 35.45 36.22 35.74 31.24 29.46 28.13 26.64 26.20 25.78 25.96 25.43 25.68 26.10
27.98 27.52 26.98 26.69 25.53 25.06 23.72 22.76 23.06 24.19 24.11 24.27 25.41 26.86 27.46 28.28 31.39 32.46 33.32 32.20 31.64 31.52 31.47 30.84 30.20 30.25 30.38 29.29 29.31 30.95 31.53 31.37 33.07 32.74 31.78 31.43 30.02 28.48 28.26 27.98 27.22 27.29 26.25
26.36 26.42 26.55 25.88 24.23 23.24 20.52 20.42 21.65 21.92 21.88 22.15 23.42 23.58 24.49 26.41 30.02 30.99 31.11 31.16 30.82 30.77 31.26 31.63 30.96 30.39 32.19 33.36 28.48 28.86 29.53 30.16 32.88 35.09 34.12 34.30 32.61 31.87 30.40 27.50 24.61 23.42 22.27
24.80 24.78 24.99 24.57 22.74 21.42 21.08 19.98 20.49 20.27 20.51 21.13 20.84 21.95 22.55 23.15 27.93 29.65 29.85 29.62 29.58 29.88 30.90 30.93 31.24 31.20 32.87 33.55 29.53 28.22 27.35 28.57 28.28 28.94 28.72 30.27 30.56 30.53 31.75 28.09 26.33 22.97 21.82
22.85 22.31 21.75 21.87 20.71 20.46 19.85 19.38 18.30 17.44 17.64 16.77 17.27 18.71 20.16 22.32 24.30 28.28 29.81 28.49 28.67 29.06 29.74 30.17 31.03 33.21 33.60 33.77 33.06 28.68 28.55 30.28 29.75 27.55 26.02 25.94 26.54 26.95 26.88 26.92 26.78 25.53 21.62
17.87 16.75 16.44 16.24 16.55 16.94 15.40 15.19 14.89 14.42 13.42 13.35 14.31 15.93 18.85 21.30 24.71 27.54 29.29 30.28 30.67 28.76 29.10 30.13 31.06 33.37 33.14 32.61 32.64 31.57 31.52 31.25 28.30 26.14 23.44 23.84 24.36 24.15 25.02 25.73 25.69 24.72 24.61
11.10 9.30 9.40 10.27 10.82 11.59 11.01 11.07 11.33 11.90 11.56 11.47 12.41 13.30 15.49 19.63 22.37 26.83 28.82 29.63 30.25 28.44 29.15 30.84 32.36 33.16 33.34 31.96 32.86 32.50 30.18 29.41 26.44 24.10 22.18 23.26 24.66 24.92 25.17 23.39 22.44 21.64 21.42
4.88 5.08 5.98 5.52 6.07 6.76 8.04 8.71 8.07 8.15 8.18 8.98 9.59 10.57 12.72 15.58 18.54 22.88 25.36 26.34 27.19 27.14 27.77 28.87 30.31 32.38 32.69 29.94 27.96 30.43 29.09 28.95 25.73 24.10 23.35 24.71 24.76 22.93 19.56 19.78 17.63 17.81 16.48
3.42 3.66 3.84 4.53 4.39 4.67 5.65 5.53 5.78 7.28 8.08 6.53 7.79 9.22 9.20 10.01 14.22 19.41 21.26 24.15 25.69 25.66 25.33 26.30 27.56 28.32 27.89 26.07 25.92 26.90 28.01 27.95 25.53 24.75 24.84 23.64 20.71 19.04 17.61 18.22 17.04 15.40 13.63
1.92 2.65 3.25 3.34 3.63 4.13 3.84 3.95 9.69 11.61 13.17 14.27 15.28 14.30 13.20 17.37 19.42 20.80 22.23 23.88 25.23 27.08 26.35 23.76 24.23 26.08 25.09 23.39 24.27 24.85 25.99 26.69 25.13 24.47 23.44 20.34 17.93 17.55 15.82 16.29 15.97 14.27 13.05
0.91 1.46 1.99 2.45 2.77 2.64 3.01 2.55 1.22 5.69 11.42 12.71 13.76 14.84 16.11 16.88 18.46 20.00 21.74 23.35 25.00 25.81 24.81 24.17 23.70 24.67 24.07 23.70 24.62 25.08 24.55 23.10 23.58 21.36 19.75 18.00 17.13 16.75 14.81 13.88 13.96 13.18 12.58
1.17 1.44 1.84 2.60 3.11 3.46 3.49 3.33 3.41 2.36 1.58 2.99 9.30 11.55 13.71 15.86 17.24 18.57 20.37 21.92 21.60 23.14 26.04 24.23 24.02 24.10 23.84 23.55 24.77 25.07 22.85 20.73 20.02 18.59 17.44 17.07 16.14 14.65 13.57 12.64 12.65 11.67 11.64
1.36 1.32 2.27 3.68 4.73 4.73 4.75 4.71 4.74 4.54 4.24 4.45 6.08 9.62 11.34 14.63 16.74 19.06 21.23 18.42 21.13 22.53 24.69 23.99 25.03 24.79 24.35 24.71 23.51 21.28 20.41 18.86 18.39 17.21 16.41 15.43 15.21 14.24 12.98 12.80 12.30 11.92 11.38
2.34 2.74 3.26 3.90 4.70 5.02 5.41 5.13 5.09 5.29 5.47 5.60 5.92 6.89 9.37 10.94 11.60 14.83 19.38 19.78 19.51 21.16 24.66 24.68 25.00 24.87 24.73 21.87 20.09 18.75 17.43 17.23 16.06 15.33 14.08 13.50 13.15 13.12 11.23 10.64 9.92 8.64 8.67
2.53 3.66 4.11 4.17 4.23 4.83 5.47 6.17 7.52 8.80 8.73 8.30 8.29 10.17 15.78 14.74 16.38 17.67 18.67 19.70 21.36 25.39 25.11 24.67 22.96 21.91 20.59 19.89 17.35 16.70 15.76 14.47 13.18 11.51 10.34 10.08 10.61 9.29 9.89 10.57 9.80 8.89 8.40
2.83 2.67 3.18 3.16 4.70 5.66 6.20 7.36 7.93 7.90 8.05 8.70 11.02 13.14 16.92 14.04 14.17 15.15 15.73 16.24 20.08 20.96 20.81 19.93 19.83 19.34 17.89 16.10 15.35 13.89 12.08 10.22 9.67 9.43 8.56 8.50 9.02 8.73 8.94 8.59 8.08 7.28 6.96
2.06 1.87 2.07 3.10 4.51 4.86 5.21 5.83 5.82 5.95 5.88 6.35 6.51 6.20 6.64 6.62 7.14 7.50 7.92 9.07 9.72 9.86 12.09 13.29 12.11 11.52 12.75 13.43 13.78 12.29 10.05 9.06 9.44 9.30 7.61 7.47 7.18 6.85 7.48 6.52 6.86 6.40 6.19
0.90 0.73 0.72 1.57 2.21 2.71 3.63 3.70 4.19 3.88 3.77 3.73 3.73 3.92 3.97 4.18 4.38 4.82 5.61 6.58 6.88 7.26 7.67 7.70 8.26 8.73 9.23 10.12 10.78 10.78 10.15 9.70 9.78 9.02 8.42 7.28 6.15 6.34 6.61 5.94 5.48 5.73 6.03
-0.15 -0.49 -0.31 -0.18 -0.16 0.63 1.40 2.29 2.62 2.27 2.38 2.43 2.54 2.76 3.10 3.35 2.96 3.18 3.84 4.39 4.52 4.67 5.05 5.55 5.88 5.73 5.41 5.71 5.62 6.90 9.44 8.66 7.91 8.33 8.00 7.05 5.68 5.33 4.83 4.71 4.87 5.08 5.27
-0.51 -0.86 -1.21 -1.06 -1.00 -0.73 -0.12 0.17 1.01 1.59 1.35 1.69 1.88 2.06 2.34 2.19 2.24 2.39 2.71 2.91 2.62 2.34 2.40 2.78 3.02 2.96 2.74 3.46 3.57 5.60 6.37 6.88 3.96 4.80 5.62 5.08 3.66 3.19 3.35 3.61 3.39 3.57 3.46

GFSGL_sfc_wetblb_024.txt.gz
Wetbulb
31.43 32.34 31.61 31.00 31.14 30.66 29.95 30.61 31.27 31.98 33.14 33.52 33.53 33.11 32.90 33.15 33.59 32.89 32.95 33.06 32.48 32.27 32.47 31.87 32.20 32.81 34.67 33.32 32.55 32.89 32.52 31.41 28.92 26.38 28.11 29.38 31.20 31.15 30.47 28.12 29.31 28.37 29.28
30.54 30.21 30.66 30.69 30.07 28.60 28.20 28.52 29.12 30.16 30.97 31.40 32.33 31.92 32.19 32.40 32.19 31.82 31.94 32.36 31.49 31.37 31.53 31.64 31.74 33.56 32.16 30.86 30.89 33.01 34.43 30.99 29.16 24.04 25.89 27.04 28.43 30.32 28.90 26.90 26.64 27.76 27.12
29.62 29.04 28.60 27.51 27.47 27.00 25.90 26.23 27.21 28.52 28.42 28.90 29.74 30.26 30.15 30.59 30.93 31.63 31.82 31.63 31.58 31.93 32.23 31.38 32.64 30.31 31.69 33.21 31.02 32.04 32.54 31.62 29.64 24.31 24.04 25.49 25.21 28.64 24.39 24.33 24.32 24.39 26.75
29.51 28.25 26.53 26.12 26.10 26.25 26.01 25.41 24.85 26.19 26.84 26.54 27.30 28.54 29.59 29.34 29.92 30.20 30.20 30.42 30.98 31.57 31.75 31.73 32.16 31.19 31.88 31.65 31.87 31.44 31.66 30.91 31.63 26.08 23.23 24.61 23.95 27.28 26.88 24.77 23.72 25.55 24.74
27.53 26.77 26.35 26.48 26.15 25.65 25.14 24.20 24.23 24.45 26.50 26.25 25.83 26.20 26.61 28.30 29.39 29.23 29.58 28.94 29.55 30.35 30.68 30.87 31.61 32.06 33.61 33.84 32.08 32.69 31.46 31.41 31.29 29.79 24.57 21.37 22.87 24.33 24.88 25.27 24.92 24.34 24.44
25.21 24.64 26.00 25.20 25.08 23.94 23.31 23.70 23.30 23.32 23.64 23.66 24.16 24.28 24.70 26.67 30.55 32.16 31.99 30.08 30.24 30.02 29.81 30.47 30.79 30.91 32.14 35.49 36.68 36.90 34.80 31.85 31.64 31.09 29.60 26.13 25.83 25.84 26.70 25.23 25.27 23.53 21.54
22.71 23.40 23.81 23.94 23.73 24.49 23.94 23.31 22.70 21.76 21.74 21.82 22.40 22.67 23.04 24.62 29.51 30.74 32.10 29.79 29.62 30.00 29.99 30.15 30.25 30.29 30.46 30.55 33.66 36.11 36.51 37.38 36.60 32.58 30.89 29.44 27.62 26.42 26.16 25.43 25.51 26.66 26.47
23.42 22.89 23.13 23.82 22.99 23.31 22.34 21.87 22.04 21.38 20.58 20.70 20.96 21.26 21.38 22.97 27.74 29.24 30.29 28.43 28.19 28.92 29.71 29.96 29.95 30.35 30.70 29.99 29.69 29.98 31.06 32.70 34.15 34.36 32.65 33.20 31.50 28.62 28.47 28.38 27.49 28.12 24.99
23.07 23.01 22.51 21.53 20.98 21.64 21.03 21.07 21.25 20.52 19.93 19.28 19.90 19.17 19.14 20.15 25.17 26.59 27.06 25.24 26.19 26.77 28.48 29.47 29.58 29.75 32.35 34.05 30.69 28.78 29.20 30.11 33.97 36.36 36.77 36.72 36.71 34.72 31.18 28.71 25.54 22.83 18.05
20.87 21.13 20.71 19.88 18.50 18.06 18.73 18.82 19.52 19.15 19.16 19.25 18.25 18.45 18.08 17.21 22.29 24.17 24.52 22.58 22.57 24.71 26.34 27.97 30.10 30.55 32.84 34.13 31.21 30.17 27.40 28.27 29.86 30.97 31.34 33.93 35.36 33.42 32.97 29.87 27.67 24.45 23.12
17.15 16.19 14.91 14.39 13.06 13.10 13.25 13.82 13.75 13.74 14.84 14.10 14.14 14.73 14.95 15.92 16.42 21.67 23.37 21.43 21.62 22.75 24.00 25.27 27.52 31.73 33.73 34.67 34.75 30.58 29.67 30.00 30.37 30.26 29.88 30.61 31.15 29.69 29.70 29.71 29.78 29.12 25.57
11.92 10.23 8.63 7.41 7.71 8.90 7.10 7.68 8.18 8.56 8.41 8.80 9.52 10.51 12.70 14.36 17.54 19.63 21.87 23.40 24.61 22.34 23.02 25.63 26.97 30.91 32.08 33.21 33.53 34.39 34.66 32.65 29.37 28.74 28.01 27.78 27.65 27.37 27.79 28.38 28.02 28.76 29.04
6.37 4.13 3.69 4.36 4.89 5.17 3.77 3.71 3.61 4.55 4.51 4.96 6.07 6.44 7.89 11.26 12.52 17.23 19.33 20.71 22.14 21.22 24.04 27.41 29.78 30.68 31.40 31.60 33.29 34.33 32.86 31.69 29.36 27.54 26.80 26.64 26.78 27.64 27.23 25.74 26.17 23.52 22.74
1.96 2.26 3.23 2.77 2.55 3.17 4.43 4.76 3.33 2.88 2.57 3.05 2.78 2.73 3.90 5.65 7.59 9.84 11.36 12.30 16.59 19.61 24.29 25.65 27.47 28.47 29.42 29.20 29.43 31.85 32.41 30.86 29.17 27.56 26.79 26.82 26.82 26.24 25.19 25.00 22.14 21.68 19.55
1.85 2.30 2.11 2.51 2.00 2.15 3.24 3.19 3.94 5.72 6.62 5.55 6.67 7.78 7.42 7.37 9.69 14.11 14.53 13.30 13.63 16.56 18.79 21.81 22.61 21.71 21.83 24.52 26.82 29.41 29.78 30.02 28.48 28.15 26.87 24.96 24.33 24.38 23.73 24.30 22.15 20.75 18.52
1.21 1.73 1.18 0.89 0.95 1.59 1.39 1.87 8.88 11.57 13.35 14.61 15.70 14.29 12.39 16.24 17.81 18.09 18.54 19.14 19.85 20.68 17.57 16.82 17.62 20.05 20.51 22.07 25.10 26.65 26.41 27.37 27.99 27.84 25.62 24.25 23.53 22.85 20.76 20.26 20.07 18.54 17.95
-0.02 1.08 0.91 0.75 0.44 0.29 0.95 0.71 -0.10 5.05 11.87 13.32 14.11 15.07 16.08 16.42 17.22 17.64 18.32 18.90 19.64 20.26 15.58 16.54 16.93 18.47 20.99 21.60 24.49 24.55 23.86 25.66 27.80 26.90 24.78 24.28 22.41 20.29 18.06 17.36 16.58 17.35 16.19
1.74 1.34 0.29 0.07 0.05 0.63 1.42 2.24 2.75 2.00 1.52 3.21 10.01 12.47 14.78 17.08 17.87 18.24 19.02 18.85 13.77 14.84 14.53 15.31 15.74 17.76 21.13 22.94 23.09 23.12 24.45 25.36 25.72 25.21 24.04 21.12 19.83 18.20 16.59 16.19 15.74 15.44 15.30
0.63 0.47 0.79 1.05 1.59 2.32 3.22 3.85 4.03 4.05 3.97 4.62 6.37 10.43 11.68 15.25 16.95 18.08 19.11 14.68 13.57 12.90 13.67 15.65 17.33 19.99 21.78 23.15 23.23 23.12 25.19 22.52 22.22 21.50 19.89 18.98 18.91 17.44 16.29 16.19 15.55 15.27 14.52
0.01 0.83 2.40 1.72 1.69 1.68 2.51 2.87 3.81 4.58 5.23 6.72 7.23 7.83 10.58 10.86 8.79 8.95 11.62 13.21 16.14 16.88 18.04 18.24 19.89 24.65 23.97 23.16 22.94 23.48 21.54 20.87 19.99 19.64 18.50 17.77 17.34 16.78 14.92 13.79 13.39 12.44 12.34
0.74 0.64 0.02 0.77 0.19 1.32 2.66 3.48 3.68 4.59 4.48 4.81 5.39 7.81 15.02 8.65 6.98 7.44 8.81 9.30 10.13 11.47 18.14 19.15 20.82 23.80 23.32 21.02 21.14 20.92 19.80 18.94 18.22 17.37 16.16 15.67 15.48 14.06 14.08 13.66 12.81 11.88 11.07
-1.82 -1.75 -0.89 -1.61 -0.09 0.68 1.48 2.83 3.35 3.51 2.91 2.72 3.33 4.85 11.14 4.90 4.86 5.01 5.91 6.68 7.66 8.73 10.81 14.91 15.58 16.17 16.10 16.48 18.06 17.33 15.83 14.46 13.83 13.59 13.26 13.25 12.58 12.08 11.49 10.54 10.23 9.95 9.98
-2.46 -2.84 -2.74 -2.23 -1.37 -0.47 0.01 1.18 1.69 1.79 1.30 2.04 2.50 2.46 2.66 2.62 2.72 3.00 3.33 4.94 6.03 6.50 8.13 9.30 10.35 11.11 12.74 13.45 14.82 14.81 12.48 11.55 11.75 12.15 11.33 10.62 10.51 10.21 10.32 9.33 8.72 8.08 7.74
-5.58 -3.87 -3.37 -3.32 -2.96 -2.09 -1.46 -0.66 0.59 1.05 0.80 0.88 1.36 1.74 1.75 1.66 1.66 2.19 2.87 3.60 4.29 4.87 5.81 6.31 6.77 7.54 9.19 9.84 10.70 11.27 11.35 11.36 11.54 11.55 11.36 10.26 9.45 9.42 9.16 8.32 8.08 7.53 7.40
-8.71 -7.26 -6.08 -4.41 -4.46 -3.90 -3.30 -2.58 -1.25 -0.30 0.38 0.69 0.67 1.43 1.79 1.95 1.74 1.75 1.95 2.65 2.29 2.09 2.38 2.82 3.83 4.89 5.72 6.88 8.18 9.69 11.74 10.40 10.20 10.84 10.22 9.51 8.42 7.86 7.34 7.00 6.94 7.07 7.22
-9.74 -10.45 -11.10 -7.99 -5.58 -4.21 -3.80 -4.03 -3.59 -2.95 -2.20 -1.21 -0.82 -0.32 0.28 0.35 0.72 1.25 1.64 1.67 1.47 1.67 1.95 2.33 2.60 3.57 5.99 6.38 6.68 8.13 9.19 10.28 8.38 8.69 8.54 7.93 6.48 6.12 6.40 5.75 5.75 5.84 5.92

GFSGL_sfc_wetblb_027.txt.gz
Wetbulb
29.72 30.11 30.07 29.86 29.98 29.05 28.75 28.23 27.89 28.42 29.68 29.81 29.73 29.55 29.41 29.68 30.41 30.60 31.03 31.26 30.75 31.40 32.00 31.74 32.17 32.63 34.49 34.71 31.45 32.98 32.52 29.50 33.66 32.56 27.85 28.15 30.51 32.20 31.61 32.81 30.45 30.39 31.60
29.86 30.03 30.23 30.27 29.69 28.51 26.91 27.73 26.93 26.74 27.46 28.56 28.70 27.91 27.78 27.96 28.35 28.49 29.11 30.20 30.13 30.19 31.24 30.68 31.58 33.05 30.91 32.84 32.18 33.15 33.24 30.95 33.68 32.81 25.65 26.32 28.36 31.74 31.51 29.85 29.11 29.62 28.64
28.01 27.36 28.04 27.19 26.10 26.11 26.84 27.16 27.22 25.42 24.63 26.05 26.42 26.22 26.59 27.25 27.35 27.73 28.06 28.73 29.52 30.00 30.81 30.88 31.10 30.88 31.04 32.11 32.19 32.21 33.26 33.51 31.21 33.24 29.90 25.36 27.07 28.80 26.10 27.44 26.90 26.67 27.13
26.99 26.42 25.12 24.70 25.54 25.42 26.09 25.35 25.54 25.53 24.34 24.76 26.13 25.88 26.07 25.68 26.43 26.94 27.63 27.46 27.58 28.72 29.65 30.45 30.75 30.57 30.93 31.47 31.30 31.47 31.99 31.64 30.42 29.34 30.39 24.33 24.51 26.03 28.54 26.53 23.89 25.10 25.85
26.42 25.57 25.14 25.07 25.21 24.79 24.56 24.74 24.93 24.47 24.15 24.26 24.24 24.25 24.42 24.94 25.44 25.15 26.82 27.16 27.33 27.98 28.92 29.14 29.73 30.74 32.57 33.33 31.50 31.68 31.22 30.83 31.57 30.29 30.20 23.04 23.07 24.39 26.24 26.35 26.31 26.20 25.39
25.08 24.02 25.19 24.69 25.55 25.62 25.51 25.58 24.72 24.31 23.44 22.92 22.46 22.20 21.92 23.83 27.52 29.07 28.85 26.74 27.07 27.49 27.64 28.64 29.14 28.69 30.73 34.22 35.49 36.32 35.08 31.31 30.10 30.92 30.56 29.30 28.21 28.44 27.71 26.82 26.28 23.26 21.37
21.42 22.10 22.93 23.89 24.00 24.42 24.38 23.89 23.48 22.99 23.17 22.30 21.78 21.51 21.05 21.71 26.33 27.47 27.82 26.03 25.71 26.27 26.85 27.60 28.30 29.21 28.84 28.84 31.86 34.76 35.37 36.92 37.15 32.67 30.84 31.24 30.39 28.96 27.86 27.24 26.32 26.98 27.31
21.66 20.03 20.39 22.05 21.04 21.21 20.97 20.50 20.59 20.88 20.59 20.76 20.95 21.03 20.50 21.17 25.39 25.93 25.93 23.86 23.36 23.85 24.89 26.22 26.89 27.62 28.70 28.69 28.49 28.37 29.29 30.91 32.88 33.83 34.26 33.40 33.92 30.27 29.67 30.15 28.67 28.77 27.40
20.77 20.39 19.58 17.95 16.38 16.31 14.64 15.00 15.97 16.28 16.69 16.98 18.40 18.05 17.87 18.56 23.28 23.92 23.59 20.54 20.31 20.69 22.60 23.53 24.38 25.63 29.21 31.54 28.90 27.67 27.55 28.75 33.08 35.49 36.27 37.05 37.79 37.59 31.25 29.10 27.19 25.47 23.93
18.30 17.28 16.18 14.61 11.51 10.73 11.10 10.34 11.12 11.13 12.29 13.23 12.88 13.62 13.84 13.47 18.56 20.11 20.09 17.51 16.42 17.72 18.97 21.10 24.03 25.09 28.33 30.08 27.87 27.60 26.57 27.75 28.36 29.01 30.45 34.03 36.02 35.36 36.54 30.01 28.95 25.21 26.31
14.10 12.83 11.44 10.68 8.16 7.36 7.23 7.66 6.92 6.49 7.78 6.47 7.54 8.62 9.32 10.80 11.71 17.07 18.83 16.74 16.22 16.23 17.06 18.27 20.82 25.04 27.08 29.00 30.87 28.51 28.22 29.77 29.69 29.04 28.38 29.61 31.51 32.66 33.25 33.14 30.30 29.52 27.94
9.03 7.66 6.28 4.79 4.86 6.23 3.50 3.80 3.66 3.34 2.80 2.84 3.31 4.51 7.23 9.29 12.42 14.24 16.58 17.71 18.11 14.31 14.96 17.81 19.75 24.10 26.11 27.97 28.33 30.63 33.30 33.32 30.94 29.07 27.88 28.30 29.05 29.80 31.70 32.21 30.82 30.26 31.31
1.23 -0.18 1.20 2.87 3.70 3.82 1.97 1.86 1.91 2.65 2.46 2.39 3.07 2.86 3.83 7.03 8.00 13.14 15.06 15.81 16.13 13.30 13.75 15.90 19.43 21.28 24.46 25.13 27.88 31.22 30.53 29.65 29.76 29.56 27.99 26.98 28.43 29.58 30.75 31.35 31.03 29.72 28.50
-6.42 -0.03 2.44 2.27 2.05 2.32 3.39 3.24 1.73 1.42 1.37 2.02 2.02 2.22 3.74 5.91 7.81 9.47 9.81 9.19 12.80 13.14 14.29 12.81 14.79 17.97 20.82 21.88 23.23 28.28 28.70 28.66 27.90 28.50 29.36 28.15 28.87 28.45 27.95 28.83 27.83 26.51 24.84
-0.52 1.82 1.86 2.24 0.81 0.97 2.00 1.64 2.62 4.66 5.96 5.78 7.67 9.13 8.71 8.59 10.71 15.83 17.11 16.03 15.95 16.55 14.62 11.90 11.70 14.52 15.50 16.92 22.02 23.80 23.97 24.96 25.82 27.79 29.59 28.24 27.74 27.03 26.02 26.08 25.58 22.94 22.82
-0.56 1.59 1.46 1.58 1.30 1.62 0.84 1.00 8.25 10.82 12.82 14.54 15.86 14.64 12.99 16.84 18.41 19.03 20.04 20.64 21.18 21.45 16.24 13.78 12.88 12.82 13.10 14.46 16.53 20.34 21.53 22.40 24.54 27.33 28.11 28.39 26.50 24.76 24.42 24.91 24.82 22.52 21.85
-1.80 0.75 1.15 1.25 0.21 -0.13 -0.03 -0.41 -1.04 4.24 11.47 12.93 14.11 15.32 16.24 16.97 18.77 19.92 20.77 21.21 21.76 21.10 14.88 12.92 11.98 12.01 13.13 15.17 16.92 18.20 21.21 22.90 25.59 26.63 27.94 27.93 26.16 24.53 23.93 23.26 22.63 21.31 20.80
-2.48 0.42 0.21 0.24 0.23 0.00 0.34 0.71 1.45 0.94 0.79 2.79 9.88 12.61 15.39 16.20 17.22 18.74 20.58 20.37 14.94 15.47 14.26 12.70 11.04 11.63 13.06 13.94 15.80 17.72 20.05 23.28 24.08 25.59 27.23 27.12 25.29 24.42 22.99 21.03 20.32 19.25 19.86
-1.04 0.16 0.06 -0.01 0.63 1.13 0.99 1.08 1.66 2.10 2.59 2.88 4.72 8.21 8.90 12.94 15.53 15.12 15.32 9.88 9.47 9.64 11.82 13.55 13.43 12.60 12.96 14.20 15.89 17.30 19.85 22.31 23.28 23.93 25.67 24.93 24.49 22.24 20.41 20.24 19.44 19.37 19.23
-1.51 -0.22 1.06 -0.94 -0.93 -0.90 -0.40 0.18 0.94 1.14 1.82 2.10 1.96 2.60 4.30 8.77 2.64 3.10 5.09 6.15 6.12 6.96 8.06 8.09 10.10 15.23 15.72 18.49 17.82 19.40 21.19 22.31 22.86 23.79 23.80 22.40 21.78 21.68 19.55 18.94 18.05 17.21 16.65
-1.50 -2.04 -2.70 -2.41 -3.45 -2.63 -1.46 -1.18 -0.05 0.35 0.75 0.46 1.05 3.74 12.94 3.97 1.97 1.96 2.55 3.45 4.29 5.10 6.10 8.02 12.68 17.03 18.22 20.26 24.00 23.15 22.54 21.92 22.14 22.04 20.04 19.41 19.53 18.02 18.77 18.02 16.93 16.64 15.50
-5.79 -5.80 -5.02 -6.81 -4.04 -3.51 -3.46 -2.05 -1.18 -0.52 0.23 0.24 0.90 2.54 9.81 2.35 1.47 1.34 1.77 2.17 3.40 4.67 5.75 6.51 8.96 10.93 12.06 13.83 17.35 18.62 18.84 17.77 17.45 17.29 16.93 16.66 16.66 15.42 15.21 14.51 14.22 13.23 12.62
-6.96 -7.60 -7.62 -7.88 -5.77 -4.64 -4.58 -4.75 -3.22 -1.43 -0.55 0.16 0.77 0.85 1.15 1.01 1.26 1.15 1.01 1.83 2.12 2.69 3.62 4.41 5.15 6.39 9.36 10.91 12.46 13.09 12.32 12.12 13.64 15.11 13.97 13.56 13.21 12.89 12.75 11.94 11.49 11.26 11.08
-11.76 -11.36 -11.29 -11.16 -9.12 -6.48 -7.41 -6.03 -4.70 -3.18 -2.50 -1.55 -1.38 -1.04 -0.29 0.01 0.33 0.97 1.63 2.08 2.31 2.50 3.17 3.66 4.66 4.73 5.67 8.34 9.77 10.42 10.87 11.69 12.47 12.87 13.22 12.08 11.34 11.65 11.14 10.54 10.34 9.96 9.59
-16.69 -15.98 -15.93 -15.62 -15.08 -10.76 -9.69 -9.35 -6.31 -6.17 -4.75 -3.06 -3.00 -2.81 -2.23 -1.68 -1.21 -0.29 0.94 1.73 2.16 2.26 2.70 3.52 4.15 6.02 6.51 6.91 8.01 8.92 10.68 11.15 11.17 11.86 11.62 11.09 10.11 9.76 9.45 8.82 8.58 8.75 8.61
-14.23 -15.02 -16.95 -17.60 -16.49 -15.74 -14.90 -11.45 -10.06 -8.81 -8.77 -6.73 -6.10 -5.87 -5.14 -5.13 -3.74 -2.37 -0.91 0.35 0.93 1.56 1.98 2.90 3.61 4.58 6.50 9.47 10.18 11.03 11.38 11.87 9.83 10.27 10.15 9.44 8.18 7.90 8.12 7.75 7.78 7.56 7.14

GFSGL_sfc_wetblb_030.txt.gz
Wetbulb
27.83 28.16 28.73 27.80 27.59 27.47 26.57 26.48 25.24 25.15 25.29 25.41 26.07 26.73 27.26 27.85 27.35 27.65 28.05 28.24 28.09 28.88 29.50 29.65 30.55 32.09 33.01 32.30 30.79 32.40 33.70 34.37 32.14 34.74 29.13 28.82 28.31 30.70 31.12 34.08 34.04 32.91 35.03
28.20 27.94 27.77 27.33 26.15 25.41 25.26 25.58 26.22 25.80 25.99 24.76 25.22 25.27 25.57 25.57 25.67 26.36 26.32 27.21 27.19 26.78 27.71 28.46 29.20 31.60 30.09 31.02 31.60 31.13 30.49 31.92 32.62 32.21 34.27 26.51 27.47 29.21 31.49 31.12 31.93 31.85 32.16
26.97 25.96 25.71 25.24 24.77 24.75 25.08 25.46 25.54 25.20 24.89 24.45 24.34 24.13 24.89 24.81 24.66 24.76 24.87 25.61 26.05 26.79 26.97 27.79 27.95 28.64 29.32 30.30 30.48 30.90 31.26 32.18 30.90 30.60 31.21 27.28 26.58 27.35 27.22 28.18 29.88 28.72 29.69
26.25 25.58 24.72 24.33 24.51 24.52 24.82 24.69 24.29 24.37 24.54 24.08 23.63 23.97 24.21 24.20 24.35 24.45 24.78 24.41 25.34 26.50 27.22 27.50 28.04 28.01 28.03 28.69 29.56 30.34 30.90 30.75 30.63 29.98 30.04 30.59 25.50 26.37 28.22 28.03 25.67 27.06 27.51
25.27 25.09 24.66 24.86 24.65 24.15 23.69 23.33 23.72 23.69 24.05 23.91 23.47 23.02 22.90 22.99 23.55 23.31 24.52 24.36 24.57 25.38 26.39 26.85 27.49 28.41 30.50 31.08 29.40 29.17 29.60 30.14 30.22 29.64 29.24 29.01 25.45 24.29 26.06 26.96 28.35 27.59 27.27
23.87 22.61 23.98 23.13 23.29 23.42 23.05 23.31 22.91 22.63 22.03 21.92 21.59 21.54 21.36 22.89 26.04 27.12 26.35 23.77 23.94 23.64 23.56 24.95 25.88 27.14 28.84 31.55 32.62 34.10 33.18 29.53 28.46 29.44 29.37 28.98 29.62 27.23 28.68 28.36 27.26 26.14 24.96
20.11 18.72 19.51 20.52 20.23 20.52 19.94 19.49 18.83 17.99 18.36 18.06 18.49 19.12 19.20 20.32 24.66 25.75 26.17 23.98 22.87 22.16 22.08 22.92 23.87 25.43 26.06 26.65 29.58 31.47 31.84 33.97 35.42 31.98 29.52 29.66 29.90 30.87 28.99 27.67 27.18 28.42 28.80
18.91 16.63 17.26 18.35 16.08 16.12 15.20 14.27 14.24 14.56 14.25 14.31 14.62 15.19 15.46 17.10 21.43 22.14 22.13 20.45 20.23 20.83 21.16 21.11 20.90 21.33 22.84 24.21 25.30 25.89 27.05 27.88 28.75 30.36 31.71 32.59 33.12 32.80 31.56 29.98 30.02 28.52 30.20
18.33 18.22 16.41 14.03 11.59 12.09 9.70 10.26 10.86 10.28 10.07 9.70 11.61 11.09 10.53 11.16 16.52 18.01 18.36 15.80 16.12 16.41 18.18 18.48 18.69 19.10 22.31 24.68 22.35 21.63 23.46 26.26 30.93 33.33 34.34 35.00 36.45 37.51 36.49 31.85 28.48 27.02 25.38
16.53 14.98 13.61 12.19 6.26 7.72 8.30 7.21 7.96 7.43 8.43 8.90 8.29 8.40 8.09 7.07 12.97 15.50 16.60 13.97 12.14 13.63 15.36 17.39 19.80 19.87 22.53 24.09 21.42 20.68 20.23 22.93 25.75 27.23 28.09 30.65 34.21 33.77 36.12 35.43 30.71 27.51 26.44
12.62 11.27 9.57 9.11 6.69 5.83 5.56 6.05 5.01 4.34 5.54 3.70 4.46 5.23 5.67 7.10 7.85 14.28 16.50 14.40 12.99 12.03 12.39 13.69 15.92 19.35 20.68 22.22 24.01 21.81 22.45 25.07 26.83 27.22 27.54 27.58 27.86 28.65 30.75 33.12 34.21 30.35 27.86
7.61 5.98 4.63 2.06 3.01 5.36 1.64 2.46 2.39 1.90 1.26 1.46 2.04 3.37 5.75 7.37 10.61 13.01 15.72 17.27 17.68 13.33 12.12 13.44 13.85 17.95 19.32 20.63 20.30 21.82 23.88 25.35 25.60 25.89 27.18 27.28 27.16 26.88 28.61 31.12 32.34 32.89 32.04
-0.43 -3.55 -3.01 -0.03 2.60 3.00 0.52 1.14 0.91 0.99 0.49 0.92 2.07 1.88 3.06 6.41 7.56 13.28 15.69 16.88 17.31 14.01 13.79 15.37 19.38 20.77 21.44 20.51 20.10 20.33 19.24 18.00 19.83 21.76 25.03 27.25 27.87 28.64 28.80 28.93 31.03 32.45 32.32
-10.58 -3.85 -0.09 -0.34 0.55 0.45 2.81 2.90 0.60 -0.40 0.16 1.25 1.30 2.05 4.49 7.69 10.16 12.07 12.44 12.59 15.54 15.66 16.08 14.04 15.43 18.08 19.95 19.81 17.25 17.77 17.42 17.02 17.17 18.68 24.21 27.97 29.33 27.65 27.74 29.38 28.64 29.79 29.38
-4.46 -0.44 -0.16 0.14 -2.35 0.90 1.94 1.92 2.57 4.71 5.98 6.26 8.54 9.67 9.27 8.88 10.94 16.76 18.08 16.47 16.97 18.71 19.51 18.94 16.45 11.54 8.73 9.34 11.09 14.01 15.65 16.55 15.42 21.10 22.68 26.18 27.89 28.12 27.73 28.76 28.04 28.31 26.38
-3.03 -0.27 0.29 0.79 1.06 1.62 0.89 0.65 8.05 10.67 12.86 14.75 16.07 14.57 12.98 16.67 18.30 19.61 20.33 20.66 21.41 22.27 18.84 16.62 15.27 14.78 14.00 13.73 12.83 12.40 13.95 15.32 16.99 22.66 24.00 23.96 23.41 25.88 26.73 26.80 27.33 26.63 23.52
-9.36 -2.42 -0.39 0.47 -0.12 -0.32 -0.10 -1.00 -1.79 3.40 10.83 11.81 13.17 14.52 15.47 16.51 16.79 17.69 19.00 19.61 19.39 17.94 12.52 11.46 11.53 12.83 13.55 14.14 13.50 12.41 12.59 15.54 18.24 19.61 22.46 21.59 22.40 24.06 25.87 25.66 24.26 24.61 22.99
-10.90 -3.43 -2.87 -1.81 -1.42 -0.67 -1.05 -0.72 -0.39 -1.45 -1.37 0.88 7.64 10.88 12.67 13.69 15.28 16.85 15.69 13.24 3.23 6.18 6.12 7.32 8.50 9.79 11.56 13.17 13.59 13.44 14.25 15.56 17.43 18.90 21.82 21.86 24.25 26.06 24.75 24.60 23.90 22.35 22.04
-8.33 -5.77 -6.18 -3.13 -0.56 -0.34 -1.20 -1.29 -0.87 -0.48 -0.21 0.01 1.60 5.14 5.94 11.30 13.30 11.47 11.26 2.47 1.74 2.13 3.95 4.70 6.30 6.86 7.88 8.43 13.56 13.53 12.98 12.93 14.60 15.60 18.47 21.42 23.43 25.82 24.87 24.78 24.12 22.44 21.30
-12.19 -5.02 -2.20 -7.30 -2.82 -3.52 -2.99 -3.25 -2.35 -2.05 -1.50 -1.15 -0.77 0.40 2.06 6.28 0.10 0.20 0.78 0.85 0.98 1.32 2.51 3.05 4.43 5.80 9.34 12.17 14.59 15.71 15.66 15.68 15.40 16.51 18.69 22.26 23.31 24.09 24.18 23.26 22.03 20.79 20.84
-12.86 -9.73 -5.96 -7.96 -6.83 -6.78 -5.43 -5.12 -4.08 -3.38 -2.93 -2.28 -1.09 1.82 12.43 2.13 -0.14 0.19 0.43 0.60 0.71 0.33 0.81 1.60 2.89 4.87 7.03 8.99 11.00 14.66 19.20 18.44 18.77 19.72 21.29 23.49 22.60 22.05 23.65 22.40 21.34 20.52 20.43
-14.09 -15.29 -14.51 -10.20 -7.17 -7.63 -8.68 -5.84 -5.99 -5.25 -4.04 -3.34 -1.62 0.05 8.43 -0.21 -0.51 -0.37 0.42 1.25 2.12 2.81 3.00 2.55 2.90 4.77 6.04 7.31 8.47 9.40 11.49 13.05 15.48 17.74 18.12 18.12 18.41 18.27 18.93 18.56 18.24 17.66 16.20
-14.07 -14.17 -10.89 -7.80 -9.27 -9.57 -10.19 -12.86 -12.05 -8.75 -6.68 -5.98 -4.42 -3.41 -2.80 -2.75 -2.42 -1.43 -0.85 0.85 2.36 2.94 3.74 3.80 3.86 4.67 6.96 7.89 9.37 10.08 9.15 9.49 11.49 14.06 13.46 14.09 14.41 14.66 15.11 14.36 14.04 13.41 12.87
-15.19 -12.79 -7.45 -6.88 -12.37 -13.77 -13.62 -13.33 -12.21 -9.80 -9.46 -9.19 -10.17 -7.86 -5.75 -5.37 -4.94 -3.63 -2.08 -0.40 1.35 2.38 3.35 3.63 4.37 5.06 6.40 8.10 8.83 9.49 10.75 11.67 11.89 12.57 13.02 12.15 11.45 12.01 12.20 11.97 12.35 12.15 12.06
-12.50 -7.89 -7.30 -8.70 -18.55 -16.54 -16.40 -17.59 -14.34 -16.71 -15.19 -12.86 -10.74 -10.41 -8.74 -7.99 -7.16 -6.51 -4.81 -3.01 -0.84 0.99 1.79 2.82 4.13 4.70 6.37 8.97 9.68 9.55 10.38 10.20 10.40 11.57 11.61 11.33 10.47 10.24 9.89 9.95 10.08 10.01 9.99
-6.21 -6.95 -7.94 -12.48 -13.85 -17.11 -20.88 -20.30 -18.31 -16.34 -15.88 -12.64 -11.57 -11.49 -10.49 -9.24 -8.08 -7.34 -6.54 -5.64 -3.89 -1.92 0.36 2.07 2.62 3.11 4.64 9.28 10.64 14.62 14.24 13.37 10.21 10.40 10.32 9.87 9.02 8.91 9.19 8.70 8.54 8.24 7.93

GFSGL_sfc_wetblb_033.txt.gz
Wetbulb
26.13 26.05 25.70 25.31 25.19 25.17 24.81 24.59 24.74 25.32 24.70 24.68 24.90 24.50 24.20 24.18 24.18 24.03 24.28 25.09 25.19 25.54 26.21 26.40 27.69 29.71 30.34 31.50 30.99 31.26 31.67 30.93 30.23 32.83 32.94 30.88 29.20 29.57 30.68 32.00 33.66 33.92 35.03
26.40 26.08 25.90 25.56 25.24 24.74 24.46 24.55 24.71 24.42 24.71 24.32 24.34 24.63 23.81 24.00 23.38 22.93 22.63 23.03 23.04 23.59 24.68 25.36 25.57 28.18 27.57 29.24 30.11 30.22 30.57 30.83 30.18 29.15 32.05 32.02 28.07 29.36 30.15 30.62 31.48 32.88 32.91
25.89 25.52 25.44 25.13 24.47 24.44 24.47 24.82 24.77 24.38 23.87 23.94 23.92 23.31 23.22 23.38 23.08 23.03 22.69 22.66 22.57 22.75 23.72 24.54 25.23 25.64 25.79 26.69 27.59 28.59 29.46 30.90 30.15 29.27 29.19 31.29 29.93 27.52 28.42 29.29 30.80 30.83 30.97
25.69 24.84 24.38 23.95 24.19 23.92 24.13 23.83 23.53 23.57 22.91 23.04 23.10 23.10 22.98 22.83 22.98 22.82 23.01 22.34 22.46 23.39 24.02 24.21 24.45 24.88 25.19 25.54 26.20 26.64 27.85 28.25 28.77 28.27 28.37 28.97 29.86 29.06 28.09 27.90 27.22 28.97 29.59
23.92 24.15 23.82 24.10 23.86 23.28 22.44 21.69 22.06 21.89 21.60 21.27 20.56 20.10 20.60 21.13 22.38 22.46 23.42 23.00 22.72 22.69 23.34 23.79 24.00 24.66 27.55 27.83 26.30 26.51 27.01 26.97 27.18 26.97 26.83 27.44 28.14 25.07 26.59 28.68 28.31 30.41 29.00
23.77 22.19 22.99 21.30 21.08 20.19 19.28 18.82 18.28 17.90 17.36 17.25 17.21 17.16 16.94 19.40 22.56 23.78 23.60 21.58 22.20 22.36 22.02 22.69 23.15 23.05 24.30 26.94 28.44 29.68 29.32 26.39 26.15 26.94 26.77 25.95 26.83 27.78 28.63 28.82 27.97 27.41 26.01
19.56 16.89 17.16 18.09 17.18 16.64 15.87 15.37 14.86 14.11 14.47 13.94 14.03 14.24 13.77 14.37 19.13 21.19 21.48 19.31 18.31 17.95 18.67 19.90 21.28 22.72 22.49 22.39 24.21 25.91 26.25 27.96 29.37 27.36 26.57 27.56 27.86 28.66 28.63 27.85 28.78 28.79 28.72
17.57 15.57 15.78 15.72 13.14 13.24 12.57 11.76 11.79 11.91 11.18 10.88 10.86 10.75 11.30 12.72 16.89 17.95 18.46 16.56 15.77 15.91 16.35 17.03 17.32 18.02 19.33 19.74 19.52 19.15 20.50 22.04 23.71 25.58 26.16 26.75 28.21 30.60 30.62 30.86 29.93 29.54 30.42
17.86 16.95 14.68 12.47 9.44 10.24 6.77 8.29 9.14 8.56 8.20 7.37 9.75 8.19 7.13 7.68 13.54 16.05 16.31 13.74 13.90 13.80 15.09 15.81 16.17 16.28 18.77 21.00 18.90 17.00 17.69 19.33 24.00 26.24 27.66 29.48 31.78 33.45 33.07 31.15 28.71 26.92 26.55
16.50 15.07 13.08 11.59 4.80 4.63 7.18 6.17 6.93 5.52 7.49 7.78 7.21 6.44 6.10 4.80 11.11 14.53 15.62 13.23 11.24 12.55 13.84 15.09 17.54 17.52 20.00 21.36 18.32 17.13 15.69 17.46 20.15 21.48 22.42 24.69 27.22 27.93 32.69 31.94 30.67 28.67 28.03
12.30 11.17 9.35 8.55 4.29 4.18 3.58 4.78 3.69 3.00 4.77 2.47 3.41 3.95 4.43 5.99 6.80 14.04 16.27 14.18 12.80 12.04 12.70 14.03 15.62 18.70 19.73 20.70 21.47 17.59 16.55 18.60 18.58 18.58 18.99 21.99 24.19 25.61 27.12 28.50 30.57 30.80 29.13
8.43 7.01 4.30 -0.66 0.98 3.42 -4.91 -0.74 -1.71 -0.74 -0.49 -0.03 0.44 1.79 4.74 6.66 10.37 13.03 16.25 17.89 18.38 14.27 13.06 14.15 14.57 18.81 20.19 21.30 21.33 22.66 24.08 23.65 19.94 17.79 16.62 17.77 19.36 22.66 26.01 28.09 28.69 30.28 32.13
3.44 -0.64 -5.94 -2.18 0.67 1.11 -4.57 -0.85 -0.90 -2.30 -2.23 -0.31 1.05 1.11 2.80 6.43 7.52 13.62 16.54 17.74 18.61 16.18 16.21 17.84 21.22 22.01 22.73 21.77 21.60 21.62 19.83 16.56 14.36 12.44 12.21 13.92 16.22 20.05 23.32 27.67 28.51 28.76 29.71
-0.75 -1.65 -1.05 -2.99 -2.25 -2.34 1.69 2.39 -1.13 -1.77 -0.88 0.81 0.84 1.71 4.51 8.21 11.04 12.02 12.29 13.27 17.08 17.92 18.63 16.90 18.27 20.78 22.74 21.97 18.77 19.10 17.41 16.39 15.16 14.10 13.88 15.30 17.10 17.38 18.84 23.47 26.32 26.99 27.04
-1.69 0.57 0.43 -1.59 -4.42 -1.93 0.11 0.60 1.84 3.92 5.60 6.39 9.04 9.80 9.57 8.86 11.29 17.67 18.47 16.75 17.13 18.90 19.37 17.80 15.64 15.56 16.35 16.27 13.13 12.54 12.90 12.77 11.77 12.78 13.54 14.19 14.97 15.57 17.17 19.54 26.91 26.67 26.03
-0.61 1.00 -0.77 -0.85 -1.15 0.53 0.01 -0.03 7.35 11.00 13.25 14.74 15.83 14.42 13.21 16.23 18.10 18.88 19.43 20.44 20.37 19.40 12.51 6.86 6.66 7.74 8.68 10.11 11.10 12.39 14.69 15.54 14.79 14.24 13.73 14.54 15.47 16.02 17.40 19.81 27.16 26.51 25.50
-5.81 -2.31 -2.82 -0.45 -1.67 -2.36 -2.34 -2.43 -3.53 2.23 10.32 10.59 12.30 13.63 14.71 15.68 16.59 18.17 17.75 17.68 14.21 12.37 0.06 1.76 2.98 4.23 5.49 7.02 7.14 8.41 9.49 13.49 15.58 14.55 14.45 15.30 16.99 17.30 23.25 23.99 25.48 25.08 24.48
-5.52 -4.12 -6.94 -5.07 -5.66 -6.27 -5.18 -3.54 -3.42 -4.04 -3.98 -1.63 5.51 9.54 12.26 13.57 15.83 15.15 14.55 8.51 -0.72 1.16 -0.32 0.42 1.11 2.38 3.70 4.53 5.76 7.13 9.26 11.48 14.62 14.79 14.80 16.18 17.33 16.78 21.13 20.87 20.71 21.83 23.32
-7.51 -7.06 -6.91 -7.35 -6.72 -4.47 -5.07 -3.97 -3.83 -3.51 -3.48 -3.03 -1.19 3.38 4.56 10.32 12.47 10.99 10.41 -3.83 -1.59 -1.82 -1.00 -0.82 0.40 1.13 2.07 3.94 5.81 8.12 10.05 12.98 14.37 13.78 13.11 13.62 14.63 16.08 18.09 22.15 23.45 23.73 22.64
-12.16 -6.36 -5.57 -9.70 -10.42 -10.33 -6.67 -7.23 -5.51 -4.94 -5.04 -4.72 -3.59 -2.78 -0.10 4.06 -1.82 -2.11 -1.39 -1.00 -0.90 -0.80 0.08 0.21 0.98 1.30 1.65 3.40 4.83 6.57 7.97 10.31 13.20 15.21 14.17 14.17 14.80 16.85 18.91 20.89 23.10 23.87 22.66
-11.82 -12.42 -6.43 -6.63 -9.30 -15.09 -12.83 -10.39 -6.73 -7.46 -6.95 -6.86 -4.89 -1.18 10.81 -0.67 -3.76 -3.61 -2.98 -1.82 -0.88 -0.34 0.47 1.41 2.37 2.66 3.22 4.44 5.43 6.30 7.70 9.15 10.78 13.07 16.87 17.13 18.08 19.07 20.76 22.64 22.24 21.84 22.53
-9.64 -9.00 -15.15 -17.03 -14.23 -12.96 -13.91 -9.25 -7.31 -9.37 -9.96 -8.31 -5.80 -3.61 6.06 -4.53 -5.38 -5.23 -3.93 -3.00 -1.46 0.35 2.29 2.46 2.71 3.70 4.86 5.62 6.73 6.80 6.82 8.39 9.70 10.54 12.24 13.04 15.05 17.57 19.72 20.50 20.55 20.42 19.87
-10.41 -14.91 -17.14 -17.93 -15.12 -13.12 -13.08 -9.95 -9.60 -13.95 -13.27 -12.22 -10.04 -7.95 -8.03 -8.20 -8.17 -7.56 -6.67 -5.66 -3.65 -1.58 1.00 2.63 3.03 3.65 5.17 6.45 9.62 9.46 7.75 8.07 9.61 10.60 10.93 10.94 11.06 9.44 8.71 11.20 13.32 13.92 13.95
-16.78 -15.70 -14.27 -15.82 -15.39 -13.65 -9.92 -8.91 -11.22 -11.30 -12.57 -12.85 -16.32 -15.10 -10.87 -10.39 -10.63 -9.69 -8.35 -7.34 -5.92 -4.52 -2.27 0.70 2.78 3.29 3.32 4.71 8.96 11.84 10.77 11.17 10.29 10.05 10.32 10.37 10.65 10.95 10.80 11.12 11.47 11.65 12.42
-21.47 -18.21 -15.46 -14.47 -16.01 -10.73 -9.64 -10.82 -12.21 -18.67 -17.69 -16.32 -15.58 -17.72 -14.38 -12.81 -11.11 -10.44 -9.41 -8.38 -7.62 -6.94 -5.59 -3.35 0.27 1.37 1.85 2.82 6.46 11.05 14.22 11.34 10.00 10.30 9.71 9.57 8.72 8.76 9.15 9.30 9.72 10.49 10.83
-10.48 -11.52 -12.47 -13.40 -10.94 -9.20 -10.69 -12.78 -14.71 -16.97 -17.57 -16.56 -16.68 -16.68 -15.62 -13.53 -11.85 -11.21 -10.50 -10.00 -9.11 -8.81 -8.12 -4.96 -3.46 -2.39 -0.59 2.64 4.66 12.84 13.67 16.19 10.21 9.84 9.44 9.00 8.06 8.17 8.23 7.84 7.96 8.30 8.28

GFSGL_sfc_wetblb_036.txt.gz
Wetbulb
25.50 24.93 24.70 24.59 24.41 24.54 24.40 24.03 24.06 24.25 24.16 24.12 24.00 23.62 23.28 22.86 22.84 22.07 21.72 22.12 21.85 22.23 22.66 23.18 24.44 25.49 25.60 26.75 27.87 29.33 29.14 28.36 27.32 29.05 31.95 32.79 32.54 32.25 33.76 31.13 32.08 32.23 33.57
25.06 25.25 25.06 24.92 24.66 24.11 23.71 23.88 23.96 23.71 24.07 23.65 23.73 23.07 22.76 22.62 22.02 21.68 21.20 21.24 20.70 20.99 21.95 22.21 22.60 25.40 24.03 24.07 25.01 25.45 26.59 27.58 27.34 25.43 28.11 29.49 30.44 32.53 32.18 31.59 31.60 31.58 31.78
25.27 24.87 24.79 24.41 23.87 23.50 23.38 23.71 23.71 23.10 22.47 22.43 22.48 21.71 21.40 21.60 21.44 21.60 21.53 21.48 21.13 21.23 21.71 21.90 22.32 22.67 22.79 23.49 23.60 23.86 24.64 26.61 26.28 26.16 26.01 28.21 29.04 30.32 30.85 30.82 30.75 31.82 31.30
25.09 24.34 24.34 23.84 23.62 22.92 22.99 22.57 21.72 21.58 20.36 19.45 19.18 19.02 19.29 19.47 20.10 21.02 21.87 21.50 21.52 22.21 22.81 22.87 22.62 22.38 22.21 22.23 23.12 23.66 24.79 24.39 24.99 24.92 25.16 25.70 26.68 28.40 28.03 28.66 29.09 29.44 30.47
23.83 23.70 23.49 23.80 22.80 21.95 20.47 19.74 18.73 18.28 17.82 17.73 17.24 16.86 17.09 17.51 19.70 19.65 20.09 19.66 19.52 19.74 20.78 21.69 22.37 23.27 25.77 25.79 24.00 23.12 22.98 22.62 23.54 24.26 24.23 25.00 25.04 25.40 25.96 27.82 27.37 29.27 30.59
22.99 22.92 23.42 20.88 20.49 18.96 17.69 17.08 16.50 15.92 15.20 15.18 14.82 14.32 13.79 15.80 19.21 21.06 21.06 18.49 18.02 17.29 16.51 17.58 18.28 18.93 20.93 23.90 25.60 26.70 26.08 23.50 22.07 22.26 23.58 22.97 24.16 26.10 27.09 27.39 27.94 27.27 25.85
20.52 17.56 17.25 17.12 16.36 15.31 14.83 14.37 13.72 12.68 12.86 12.12 12.07 12.06 11.42 12.27 17.72 19.66 19.84 17.34 16.26 15.65 15.66 15.81 16.26 17.82 17.53 17.86 20.17 22.17 22.76 23.85 24.85 21.86 20.00 20.98 21.82 24.60 26.51 26.85 27.37 27.43 27.31
18.41 15.71 15.33 14.93 12.70 12.81 11.74 10.88 10.78 10.72 10.01 9.69 9.62 9.44 10.34 11.08 16.39 17.56 18.40 16.36 14.65 14.46 14.72 15.04 14.88 15.25 16.23 17.06 17.12 17.04 18.21 19.22 20.21 20.95 20.39 20.73 21.92 23.40 24.39 25.59 25.70 26.78 29.17
17.50 16.89 14.42 12.13 9.54 9.63 5.95 7.40 8.17 7.61 7.42 6.23 9.41 6.98 6.37 6.82 13.44 16.54 16.67 14.65 13.55 13.42 14.43 15.06 14.89 14.64 17.40 19.92 17.93 16.89 17.61 18.26 21.76 23.47 24.60 25.88 27.17 28.20 27.78 25.11 23.38 24.80 24.12
17.21 16.38 13.25 11.09 5.56 4.53 7.02 5.05 5.89 3.33 7.26 7.61 7.23 6.23 5.74 4.35 11.24 14.92 16.34 14.38 11.47 12.59 13.56 14.77 17.53 17.75 20.22 21.41 18.26 16.40 14.06 15.46 16.81 16.44 17.82 19.94 21.94 21.42 24.46 23.70 23.29 21.38 22.85
13.58 11.58 9.84 8.77 5.05 4.04 2.53 3.65 0.63 0.25 4.25 0.93 2.84 3.61 3.78 5.40 6.33 14.14 17.36 15.39 13.86 13.69 14.69 14.99 15.84 19.35 20.58 21.55 22.34 18.78 17.53 19.30 19.22 18.84 18.58 18.90 19.05 19.01 19.70 20.86 22.92 23.28 22.08
9.63 8.55 7.23 3.81 3.43 5.46 -5.16 -2.97 -4.40 -4.35 -4.11 -3.04 -1.54 0.92 4.42 6.63 10.56 14.20 17.68 19.02 19.43 15.51 14.96 16.21 16.61 20.44 21.87 23.54 23.58 24.71 25.73 25.17 20.31 15.93 14.50 14.12 14.64 15.47 17.25 18.90 20.71 22.05 22.89
5.01 2.50 1.28 3.33 3.83 3.54 -4.02 -1.21 -1.70 -5.24 -5.60 -2.12 0.92 1.15 3.20 6.96 8.14 14.88 17.47 19.01 19.92 17.58 18.05 19.51 22.56 22.93 23.27 22.14 22.42 23.17 20.98 18.48 16.57 14.83 14.17 14.76 15.92 17.12 18.16 17.80 18.57 19.06 19.19
-3.02 2.11 2.87 -0.54 1.98 1.62 2.69 2.55 -3.65 -4.76 -2.70 -0.19 0.30 1.46 4.05 9.64 10.82 11.75 13.37 16.75 18.94 17.85 19.45 18.60 17.63 17.35 17.46 17.66 15.76 17.23 16.70 16.89 15.88 14.58 14.40 15.80 16.79 15.98 15.13 16.15 14.60 15.20 15.07
-2.06 2.09 2.44 2.43 0.71 0.65 1.60 0.90 1.24 2.26 2.70 0.65 4.39 8.72 8.95 8.35 10.96 18.20 18.45 17.17 17.45 18.04 15.08 9.47 5.09 5.06 5.81 7.27 8.62 10.10 11.78 12.69 12.40 12.92 12.77 12.56 12.97 13.48 13.75 15.47 15.10 14.35 12.68
0.75 1.75 2.44 2.62 2.06 1.51 0.35 -0.04 7.27 11.51 14.02 15.67 16.68 14.93 12.31 15.82 18.04 18.85 20.08 19.52 18.49 16.20 4.15 -1.62 -0.32 1.52 2.58 3.71 4.26 5.54 6.95 7.80 9.17 10.69 11.97 13.79 13.32 13.17 13.06 14.40 15.69 15.35 13.58
-1.15 2.40 1.94 1.51 0.48 -0.20 -1.07 -3.17 -4.50 0.52 8.78 10.81 12.02 13.27 14.29 15.80 16.41 18.05 17.75 17.45 12.45 9.61 -6.43 -3.37 -2.40 -0.97 0.41 1.85 2.72 3.67 3.97 6.48 9.06 10.14 10.50 11.66 13.86 13.89 13.74 13.93 15.20 16.66 16.73
-2.75 0.06 -1.68 -0.80 -2.17 -3.26 -5.53 -5.73 -5.29 -6.06 -6.89 -4.03 3.57 7.92 11.64 12.95 14.88 15.46 14.54 7.93 -2.60 -1.91 -12.48 -4.21 -3.10 -1.57 -0.24 0.49 1.52 2.29 3.79 5.69 6.99 8.61 10.59 13.42 13.66 13.18 13.45 14.12 14.39 15.14 20.77
-2.29 -2.33 -2.97 -2.87 -4.39 -4.28 -4.01 -3.84 -5.51 -6.08 -6.39 -6.73 -4.23 0.90 2.68 9.00 11.41 10.08 9.05 -11.73 -5.92 -3.86 -2.71 -2.33 -1.04 0.05 0.93 1.65 2.12 2.86 4.09 5.05 6.57 7.71 9.91 12.65 14.00 12.63 12.40 13.74 14.87 16.56 20.11
-4.54 -2.06 -3.08 -6.25 -5.70 -5.85 -5.85 -7.54 -6.66 -8.14 -8.62 -9.16 -7.73 -5.20 -3.68 -3.55 -12.17 -12.19 -12.34 -13.57 -9.40 -4.50 -2.74 -1.92 -0.50 0.56 1.43 2.25 3.02 3.84 4.37 5.59 6.55 7.67 9.09 10.53 14.33 14.27 13.19 13.59 14.80 15.95 18.37
-8.46 -9.80 -6.13 -11.50 -11.94 -12.67 -12.52 -11.19 -9.11 -11.38 -10.19 -10.81 -8.13 -3.19 7.97 -2.17 -10.30 -12.02 -9.39 -9.11 -8.93 -5.27 -3.20 -2.00 -0.63 0.45 1.58 2.84 3.90 3.94 5.13 6.29 7.02 7.90 8.96 9.71 11.68 12.21 16.46 17.35 18.56 19.93 20.43
-12.38 -12.95 -17.09 -14.19 -13.31 -12.93 -13.33 -11.43 -11.22 -11.82 -11.50 -9.85 -5.75 -5.18 4.69 -8.62 -9.06 -9.85 -9.46 -10.12 -8.43 -7.36 -4.92 -3.15 -1.72 0.19 2.00 3.17 3.88 3.83 5.30 7.03 7.64 8.02 7.77 8.61 10.41 11.50 11.46 13.05 14.78 18.35 20.37
-10.70 -11.15 -12.92 -17.32 -15.84 -14.84 -15.54 -16.15 -14.98 -14.20 -11.76 -9.06 -7.67 -8.71 -11.87 -13.01 -13.55 -13.16 -11.78 -10.52 -9.57 -8.06 -6.75 -6.02 -4.76 -2.68 0.34 2.57 3.57 4.82 5.92 8.89 9.72 8.85 7.39 7.89 9.12 9.78 10.77 10.06 11.01 11.18 12.54
-14.33 -13.97 -12.88 -15.77 -18.79 -17.04 -15.54 -14.87 -13.36 -10.12 -8.59 -7.82 -13.58 -15.28 -12.98 -13.42 -16.56 -15.33 -13.32 -11.68 -10.35 -9.53 -8.33 -7.82 -6.43 -6.22 -3.32 -2.13 1.06 4.11 5.50 10.68 10.86 8.93 8.28 7.82 8.10 9.10 9.62 9.53 10.64 11.74 12.33
-17.18 -17.59 -17.60 -15.36 -18.18 -14.42 -13.25 -11.61 -9.20 -9.09 -9.36 -10.99 -13.38 -17.44 -16.13 -16.98 -16.02 -16.89 -16.02 -14.94 -12.56 -11.18 -10.01 -8.99 -7.28 -7.15 -6.39 -5.42 -3.56 -0.42 2.77 11.89 9.18 9.42 8.27 7.99 7.68 8.07 8.08 8.40 8.70 10.01 10.37
-9.38 -10.94 -11.89 -10.83 -11.83 -12.63 -11.61 -9.66 -8.15 -7.98 -9.34 -12.59 -15.11 -16.00 -17.41 -16.38 -15.62 -15.47 -14.74 -15.53 -13.10 -11.93 -12.24 -9.87 -8.47 -9.98 -8.49 -5.30 -2.92 2.58 7.08 15.23 10.51 8.79 7.66 7.44 6.69 6.83 7.24 7.15 7.03 7.47 7.51

GFSGL_sfc_wetblb_039.txt.gz
Wetbulb
27.27 26.90 26.77 26.74 26.79 27.23 26.74 26.41 26.26 26.31 25.80 25.38 25.10 24.81 24.58 24.33 24.39 24.01 23.85 24.46 23.49 23.86 24.56 24.72 24.69 25.84 25.91 26.72 27.26 27.47 27.24 27.80 26.25 28.60 31.54 32.90 32.59 33.70 34.70 36.13 36.55 36.38 37.45
27.02 27.06 27.13 27.12 26.94 26.21 25.73 25.79 25.81 24.85 24.90 24.36 23.84 23.42 23.05 22.92 22.97 22.57 22.25 22.98 22.71 22.61 23.27 23.58 23.62 24.77 24.36 25.23 25.49 25.17 25.70 26.79 26.24 24.27 27.59 29.24 30.06 31.96 33.13 33.39 33.61 34.48 34.61
26.78 26.70 26.46 26.22 25.98 25.41 25.08 24.94 24.21 23.18 22.68 22.18 21.51 20.77 20.59 20.71 20.71 21.53 22.38 21.99 21.93 21.85 22.20 22.24 22.52 23.14 23.23 24.25 24.20 24.09 25.13 25.39 25.92 25.01 24.77 28.15 29.06 30.67 30.47 32.00 32.54 33.51 33.97
26.39 26.05 26.04 25.89 25.48 24.88 24.15 22.70 21.69 21.15 20.06 19.67 19.54 18.87 18.82 18.88 19.81 20.63 20.92 20.59 20.75 20.93 21.12 21.10 20.79 20.76 20.96 22.06 22.81 23.79 24.68 24.48 24.65 23.92 23.75 24.64 26.78 29.00 29.88 28.87 29.23 31.88 31.42
25.48 25.44 25.69 25.82 24.41 23.31 21.19 19.65 19.25 18.80 18.15 17.89 17.47 16.78 16.88 17.53 19.29 20.08 20.46 20.06 19.07 18.71 18.89 19.00 19.31 19.85 21.06 21.35 21.20 21.50 22.10 22.40 23.22 22.88 22.24 23.33 24.44 24.51 25.67 28.37 27.97 30.02 31.54
25.12 25.25 25.12 23.36 21.60 19.91 18.53 17.75 17.16 16.38 15.84 15.58 14.92 14.35 14.02 15.86 18.92 21.43 21.35 18.89 18.08 16.95 16.36 17.21 17.61 17.54 18.62 20.28 21.07 21.90 21.98 19.65 18.89 20.05 21.21 20.99 21.83 22.61 24.28 24.56 25.31 25.50 24.73
22.59 21.24 21.09 20.25 19.32 17.34 16.27 15.58 14.82 13.63 13.46 12.67 12.69 12.51 12.26 13.15 17.85 20.44 20.24 18.23 17.18 16.07 15.39 15.43 15.79 17.11 16.97 16.83 18.39 20.06 20.39 21.19 22.41 20.59 18.77 19.09 19.41 20.65 21.79 21.43 22.12 23.03 24.18
21.69 19.86 18.45 17.61 15.98 14.53 13.20 12.51 12.26 12.05 11.11 10.78 10.55 10.84 11.19 11.85 17.00 18.80 19.31 17.38 15.76 15.74 15.45 15.26 15.07 15.48 16.59 17.14 17.26 17.82 18.51 19.31 19.96 20.81 20.48 20.81 21.65 22.66 22.71 22.76 22.59 22.96 24.46
21.12 19.69 17.67 15.93 13.03 12.41 9.99 9.95 10.14 9.39 9.03 8.39 10.99 9.00 7.60 8.25 14.43 17.72 17.78 15.97 14.71 14.79 15.53 15.95 15.85 15.90 18.15 20.61 19.44 18.67 18.87 19.11 22.13 23.52 24.06 24.69 25.39 25.83 25.37 23.20 20.32 19.38 18.09
20.66 19.66 16.36 13.50 9.41 8.43 9.99 8.23 8.45 7.01 8.99 9.05 8.16 7.82 6.76 6.31 11.83 15.85 16.99 16.52 14.55 15.21 15.82 16.17 18.90 19.40 21.49 22.53 19.75 18.64 16.60 17.75 19.04 19.25 20.04 21.54 22.92 22.79 24.16 23.07 21.56 17.69 17.65
17.41 15.26 12.74 11.41 8.39 7.96 6.40 7.06 5.07 4.04 5.86 2.42 4.19 5.09 5.21 6.67 7.62 14.71 18.08 17.51 16.66 16.41 17.23 16.86 17.87 20.93 22.21 23.38 24.18 21.16 19.89 21.64 21.82 21.37 21.36 21.53 21.78 21.59 21.95 22.40 22.42 20.81 18.00
13.56 11.58 9.25 6.04 8.68 6.37 1.06 2.63 1.36 0.86 0.20 -0.06 0.51 2.69 6.09 7.75 11.19 14.83 18.34 20.14 20.73 17.85 17.05 18.00 18.58 22.65 24.12 23.45 22.02 22.28 22.90 22.77 21.11 19.65 18.70 18.17 18.21 18.64 20.03 20.73 21.32 21.59 22.07
9.59 6.35 3.60 3.26 4.76 3.26 0.35 2.81 2.80 0.61 0.20 0.97 2.93 3.58 5.25 8.66 9.75 15.07 17.91 19.28 20.39 19.10 19.38 20.25 21.06 19.52 19.14 16.59 17.12 19.11 17.41 15.70 15.19 14.57 15.03 16.85 18.77 19.87 20.44 20.27 20.89 21.01 20.62
4.82 4.02 2.80 2.02 3.25 2.14 5.53 4.83 2.80 2.26 1.85 1.99 2.11 2.90 4.79 7.12 10.82 13.03 13.59 16.21 19.73 19.50 17.30 13.35 13.01 12.21 12.69 12.81 10.25 11.68 11.59 12.45 11.94 11.63 12.69 14.83 16.49 16.27 16.05 17.68 16.53 17.04 15.99
3.41 4.28 4.43 3.10 2.71 4.65 4.72 5.09 5.06 5.69 3.62 -1.68 0.54 3.15 4.91 9.41 11.09 17.51 19.36 18.46 18.96 17.36 9.24 4.63 2.90 3.40 3.88 5.22 6.03 6.68 8.13 8.79 8.32 9.51 9.86 10.58 12.03 13.40 14.27 16.07 15.71 15.37 13.79
3.85 3.89 3.74 3.79 3.61 4.16 3.55 3.40 8.95 12.68 14.77 16.60 17.91 17.42 14.18 16.73 17.89 19.22 19.73 20.35 19.45 16.42 3.01 -1.81 -0.75 0.55 0.98 2.28 2.69 3.59 5.32 5.71 7.11 8.00 8.50 9.48 10.14 10.84 11.68 14.30 16.17 14.92 13.57
3.85 3.61 3.72 4.11 2.99 2.28 1.49 0.48 -0.69 3.48 8.89 11.63 14.17 16.17 15.99 15.90 17.52 17.58 18.71 17.96 12.98 9.44 -2.20 -2.24 -1.92 -0.79 0.14 1.49 2.34 3.10 3.15 5.23 6.75 7.25 7.91 8.73 9.91 11.09 11.94 13.35 14.20 14.32 13.80
-4.49 1.66 0.65 1.88 2.01 0.99 0.15 -1.08 -1.71 -2.96 -4.29 -2.17 3.81 8.56 11.23 14.32 14.43 16.13 14.97 8.86 -2.46 -1.80 -4.39 -3.71 -2.49 -0.95 0.39 1.35 2.45 3.04 3.80 4.77 5.88 7.01 7.66 8.47 9.40 11.00 11.73 13.73 13.98 13.31 14.24
-4.63 -2.61 -0.71 -0.13 -0.99 -1.50 -1.15 -1.86 -3.16 -3.82 -4.09 -5.99 -3.88 0.37 3.50 8.04 11.48 11.05 8.70 -3.86 -7.08 -4.94 -3.56 -3.02 -1.61 -0.87 0.38 1.59 2.50 3.36 4.14 4.60 5.64 6.62 7.80 8.08 9.58 10.62 10.62 13.49 14.13 13.35 13.74
-7.09 -1.76 -1.89 -3.18 -3.32 -3.51 -2.78 -3.41 -3.38 -4.79 -5.52 -6.55 -5.94 -4.97 -5.46 -5.04 -5.20 -7.15 -7.08 -8.28 -8.23 -7.08 -4.80 -4.29 -2.83 -1.54 -0.43 0.78 2.07 3.12 3.91 4.37 5.55 7.23 8.18 8.67 9.29 10.07 10.37 11.74 13.63 14.93 14.74
-10.13 -9.13 -4.74 -8.53 -9.63 -8.29 -7.14 -6.06 -5.29 -7.11 -7.73 -8.10 -7.24 -3.39 6.12 3.77 -3.90 -5.54 -8.38 -8.52 -9.00 -8.04 -6.67 -5.79 -4.73 -3.47 -1.93 -0.07 1.45 2.47 2.61 3.86 5.33 7.60 9.37 8.71 8.29 8.08 10.26 11.87 12.60 14.52 16.67
-14.54 -13.81 -15.68 -13.94 -9.91 -9.30 -9.76 -7.95 -7.67 -8.17 -7.99 -8.34 -6.24 -4.79 6.35 -2.14 -4.09 -6.56 -7.57 -8.53 -8.98 -9.00 -8.03 -7.39 -6.47 -5.13 -3.82 -2.36 -0.32 0.70 1.01 2.46 4.96 6.64 9.35 7.54 7.62 8.58 9.92 10.78 11.89 12.84 14.40
-16.19 -16.24 -14.62 -15.69 -13.69 -13.22 -12.90 -11.62 -10.49 -10.41 -9.74 -10.78 -8.90 -6.92 -6.03 -6.28 -7.32 -9.63 -9.85 -10.13 -10.30 -9.67 -8.01 -9.06 -7.89 -7.24 -4.74 -3.78 -1.82 -0.95 0.16 1.93 5.06 6.86 8.51 7.47 7.11 8.02 8.91 9.52 10.49 11.40 12.67
-12.97 -11.49 -10.55 -11.46 -14.89 -14.70 -14.31 -13.60 -13.33 -11.75 -11.45 -10.18 -11.01 -9.94 -7.57 -7.22 -10.62 -12.19 -11.70 -11.31 -11.36 -10.64 -10.40 -10.17 -8.95 -8.81 -7.84 -6.45 -4.44 -2.78 -1.42 1.34 5.14 9.70 8.73 7.46 7.12 7.71 8.05 8.14 9.10 9.92 11.24
-20.76 -14.80 -10.71 -9.95 -12.11 -13.75 -14.68 -14.67 -12.38 -11.32 -10.71 -9.62 -8.08 -7.56 -8.05 -10.40 -12.73 -13.46 -14.01 -14.00 -13.77 -12.28 -11.33 -10.84 -9.77 -9.11 -9.32 -8.58 -7.84 -6.86 -3.86 0.58 7.92 9.74 6.71 6.28 6.03 5.03 5.98 6.85 6.73 8.33 8.46
-15.16 -14.18 -11.92 -8.28 -10.09 -10.48 -11.03 -9.64 -7.87 -7.04 -6.54 -5.79 -6.63 -7.50 -9.76 -12.49 -13.00 -13.96 -14.66 -15.40 -13.89 -12.76 -12.98 -11.41 -10.61 -11.58 -11.11 -8.07 -6.38 -2.45 2.57 9.01 14.27 7.81 5.97 4.98 3.83 4.91 5.65 5.25 4.80 5.77 6.17

GFSGL_sfc_wetblb_042.txt.gz
Wetbulb
33.53 33.54 33.17 32.90 32.97 33.09 32.59 32.19 31.70 31.05 30.23 29.38 28.95 28.65 28.25 28.01 28.10 28.17 27.98 28.04 27.30 27.66 28.54 27.94 27.76 28.78 28.42 28.95 29.20 29.06 28.49 28.59 26.36 29.17 31.63 33.17 32.78 33.18 34.58 35.62 36.48 36.59 37.21
33.40 33.08 32.97 32.55 32.29 32.18 31.72 31.24 30.83 29.70 29.01 28.21 27.51 26.98 26.53 26.32 26.42 26.05 25.98 26.40 25.73 25.54 25.85 25.89 25.83 26.50 26.13 27.18 27.52 26.96 27.01 27.64 26.14 24.59 27.62 28.85 29.76 31.75 32.75 32.73 33.58 34.91 35.33
32.73 32.63 32.27 32.08 32.02 31.79 30.97 30.22 29.27 28.25 27.28 26.25 25.72 25.01 24.34 24.16 24.34 25.10 25.05 25.09 24.98 24.99 24.84 24.06 24.03 23.81 22.94 23.95 24.09 24.01 24.73 25.37 26.04 25.47 25.05 27.88 28.95 30.13 29.99 31.32 32.21 33.65 34.65
32.06 31.98 31.87 32.02 31.89 31.53 30.41 28.63 27.37 26.50 25.45 24.62 24.14 22.93 22.70 22.47 22.95 23.45 23.68 24.25 24.37 24.11 23.91 23.31 22.75 22.17 21.45 21.30 21.16 21.56 22.51 22.82 22.85 22.87 23.65 24.79 26.10 27.71 28.69 28.15 28.90 32.23 32.23
31.03 31.67 31.79 32.23 31.70 30.24 27.65 25.49 24.43 23.88 23.45 22.65 21.85 21.23 21.27 21.33 22.18 22.61 23.36 23.37 22.71 22.28 22.48 22.24 22.14 21.55 20.90 20.93 20.73 20.44 20.28 20.18 19.83 20.06 20.15 21.49 21.95 23.22 23.42 25.79 25.51 27.24 28.37
31.68 31.13 31.94 31.03 28.38 26.54 24.69 23.13 22.40 21.68 21.23 20.38 19.51 18.92 18.78 19.91 19.38 21.64 22.50 21.84 21.47 20.71 20.00 20.51 20.87 20.40 20.75 20.79 21.10 21.70 21.87 19.55 18.41 18.67 18.55 17.82 19.23 21.11 22.80 22.62 22.69 22.11 20.93
29.86 30.03 29.14 28.56 26.29 24.84 23.16 21.50 20.89 20.20 19.70 18.52 18.10 17.71 17.63 18.25 18.09 20.82 21.32 20.81 20.51 19.86 19.09 18.98 18.96 19.97 19.49 19.48 20.14 21.18 21.35 22.12 22.87 20.96 19.11 18.69 18.94 20.32 21.15 20.21 20.61 21.11 21.41
29.27 28.59 27.61 26.54 25.33 23.03 20.55 19.85 19.65 19.11 18.04 17.59 17.14 16.76 16.67 17.15 17.44 19.18 20.51 20.44 19.65 19.22 18.94 18.91 18.49 18.79 19.60 19.26 19.18 19.70 19.92 21.06 21.61 22.09 21.79 21.89 22.45 23.28 23.13 22.65 22.64 23.04 24.47
28.05 27.57 26.64 25.49 23.13 20.78 18.76 18.57 18.60 17.75 16.90 16.15 16.26 15.21 13.74 14.36 15.71 18.28 19.18 19.23 18.68 18.37 19.09 19.60 19.41 18.69 20.58 22.87 21.64 20.40 20.77 21.48 24.05 25.02 25.46 26.02 26.38 26.62 26.27 24.57 22.38 21.14 19.43
28.19 27.78 26.55 24.29 21.49 19.17 18.64 17.10 17.59 16.44 15.85 15.42 14.94 14.27 12.46 11.58 14.23 16.51 18.54 19.34 18.31 18.79 19.57 20.01 21.63 21.55 22.82 23.97 22.37 21.93 20.68 21.85 22.60 23.32 23.41 24.10 24.95 24.67 25.26 24.13 22.76 19.21 19.24
28.17 25.60 23.00 21.52 18.92 18.43 16.88 16.26 14.57 13.74 13.30 11.91 11.35 12.52 11.64 11.93 13.03 16.08 18.33 19.05 18.92 19.13 19.84 19.74 20.68 22.44 23.59 24.56 23.56 20.91 20.07 21.72 21.41 20.84 21.38 22.31 23.23 23.67 24.10 24.12 23.67 22.11 19.67
23.86 21.87 19.86 17.37 17.16 15.15 12.92 12.78 11.26 11.22 9.98 10.15 10.42 11.60 13.72 13.16 13.89 16.50 18.41 20.19 21.42 19.90 18.97 20.26 20.60 22.16 20.94 20.82 19.66 19.77 20.68 19.91 17.29 17.03 17.07 17.63 18.60 20.05 21.96 23.04 23.30 23.48 23.71
19.74 18.12 15.86 14.09 14.43 13.22 11.29 11.43 11.73 11.30 11.13 12.73 12.09 13.01 13.45 14.16 15.20 16.39 17.90 19.47 20.85 20.19 21.03 20.88 19.76 18.03 17.12 15.65 16.25 16.75 14.94 13.46 13.42 12.70 12.79 13.94 16.08 18.01 18.75 19.49 20.95 21.68 21.89
17.58 15.09 13.10 10.95 11.85 10.60 12.25 12.73 12.47 13.11 12.80 12.36 12.13 12.20 12.82 13.53 14.72 16.47 17.13 18.54 19.84 21.07 20.03 15.44 15.12 13.88 13.84 13.63 11.74 12.49 11.90 11.62 10.36 10.11 11.34 13.07 14.70 14.86 15.07 16.67 16.88 17.78 17.38
16.37 14.29 13.95 13.23 11.11 12.70 12.03 13.25 12.73 13.74 13.58 12.16 11.77 11.36 12.15 13.58 15.68 17.64 19.51 19.95 20.88 21.01 16.16 12.76 9.99 9.31 8.69 9.41 9.85 9.88 10.53 10.54 9.66 10.57 10.21 10.44 11.36 12.74 13.57 15.70 15.47 15.49 15.03
14.80 13.43 14.09 13.81 12.54 12.38 12.45 12.20 14.81 15.94 16.47 17.58 19.05 18.46 18.34 17.71 19.92 19.40 19.88 20.67 20.81 17.49 12.41 7.89 6.66 7.12 6.82 7.15 7.29 7.81 9.05 8.98 9.68 9.19 9.26 10.07 10.39 10.86 11.75 13.15 14.73 14.77 14.23
16.43 14.70 13.41 11.48 12.18 11.71 10.86 10.36 10.64 12.55 13.67 15.25 16.27 17.16 18.45 19.24 18.80 18.58 19.22 19.58 14.98 12.26 7.27 5.97 5.31 5.75 5.84 6.39 6.87 7.09 7.04 8.68 8.86 9.07 9.35 9.93 10.51 10.78 10.71 11.80 13.27 14.40 15.80
10.83 9.23 12.27 12.14 11.70 11.22 10.32 9.77 8.77 7.85 7.56 8.62 9.79 10.73 12.87 14.48 15.85 17.03 17.42 15.75 8.69 6.51 4.25 3.86 3.73 4.38 4.91 5.19 5.87 5.94 6.56 7.45 7.82 8.41 8.85 9.55 10.25 10.53 10.33 10.89 12.25 12.39 14.36
7.85 9.10 8.50 8.93 8.62 7.84 7.75 6.74 5.99 5.48 5.03 4.69 4.91 6.49 7.36 10.33 12.13 13.79 13.56 7.50 3.77 2.64 2.98 2.62 3.45 3.29 3.62 4.15 4.63 5.17 5.66 6.24 6.97 7.16 8.45 9.58 10.78 11.19 10.15 10.62 11.38 11.29 12.78
3.80 2.06 3.50 6.19 5.99 5.04 4.99 4.27 4.05 3.88 3.80 3.50 3.26 3.72 4.75 1.22 3.18 5.53 4.94 3.10 2.15 1.74 1.40 1.01 1.60 1.80 2.06 2.41 3.17 4.03 4.61 5.68 6.55 7.39 8.29 9.48 11.36 11.44 9.91 9.82 10.80 11.46 12.57
4.17 3.70 1.08 3.08 3.37 3.44 3.42 2.89 2.93 2.86 2.06 2.29 2.38 3.65 6.48 2.41 3.90 5.00 3.94 2.58 1.59 0.45 0.12 0.10 0.27 0.43 0.90 1.26 1.72 2.54 3.55 4.47 5.34 6.37 7.78 8.78 10.60 9.29 10.32 10.86 11.46 12.10 13.20
0.14 0.44 0.16 -0.70 0.15 0.37 0.78 1.11 0.82 0.56 0.60 0.44 1.25 2.48 7.26 6.38 6.20 3.93 2.55 1.50 0.68 -0.51 -1.08 -1.64 -1.28 -0.30 0.11 -0.11 0.37 0.95 1.31 2.10 3.97 5.75 7.02 6.72 9.92 10.35 10.19 10.36 10.76 11.68 12.38
-1.37 -1.74 -1.59 -2.22 -2.37 -3.02 -2.99 -2.02 -1.86 -1.44 -1.20 -0.85 -0.63 -0.44 0.54 0.75 0.88 0.62 0.18 -0.33 -1.84 -2.55 -2.05 -2.27 -2.31 -2.52 -0.93 -0.74 0.51 0.70 -0.19 0.83 3.04 4.07 4.22 6.40 9.43 9.74 9.67 9.77 9.82 9.87 10.83
-1.26 -1.60 -1.75 -1.47 -1.82 -2.48 -2.81 -2.66 -2.02 -3.97 -4.50 -2.48 -2.06 -1.76 -1.22 -0.56 -0.90 -1.10 -1.92 -2.66 -3.49 -3.58 -3.38 -3.88 -4.20 -4.11 -3.80 -3.54 -1.14 0.17 1.02 0.99 2.54 3.00 4.99 9.67 8.86 9.16 8.71 8.55 9.08 8.93 9.78
-2.05 -2.27 -2.50 -2.44 -2.74 -2.88 -3.32 -3.41 -3.90 -4.02 -3.71 -3.32 -2.68 -2.12 -1.52 -1.71 -1.97 -2.46 -3.30 -4.45 -6.09 -6.22 -5.42 -4.96 -4.52 -4.20 -4.54 -5.17 -5.06 -4.36 -2.99 -1.46 -0.36 4.78 10.55 9.99 8.70 7.83 8.34 8.36 7.49 8.71 8.22
-1.00 -1.89 -2.16 -2.26 -2.83 -2.92 -3.22 -3.32 -2.96 -2.30 -2.22 -1.28 -0.89 -0.80 -0.90 -1.62 -2.40 -3.60 -4.69 -6.28 -6.87 -6.51 -6.04 -5.35 -5.25 -5.97 -6.08 -4.88 -3.63 -1.78 -0.64 4.51 7.25 13.13 9.52 10.32 8.43 8.57 8.11 8.27 7.26 8.28 7.63

GFSGL_sfc_wetblb_045.txt.gz
Wetbulb
35.31 35.35 35.08 34.93 34.95 34.94 34.31 33.72 33.20 32.70 31.91 31.01 30.55 30.12 29.54 29.10 29.06 28.83 28.79 28.45 27.81 28.11 28.70 27.94 27.53 28.50 27.68 27.92 28.30 28.40 27.68 27.24 23.59 25.80 28.43 29.87 29.35 29.46 30.82 32.08 32.90 32.34 32.86
35.25 34.96 34.59 34.45 34.20 33.81 33.20 33.07 33.01 31.46 31.22 30.05 29.25 28.58 28.12 27.77 27.45 26.92 26.65 27.02 26.28 25.97 26.40 26.10 25.53 26.42 25.09 25.42 25.63 24.67 24.56 25.13 23.16 20.96 23.90 24.94 26.01 27.98 28.46 28.00 29.84 31.82 31.49
34.75 34.35 34.09 33.56 33.25 33.13 32.86 32.33 31.81 30.81 29.84 28.00 27.74 27.02 26.28 25.85 25.45 25.98 25.48 25.62 25.72 25.69 25.42 24.51 24.10 23.82 22.85 23.25 22.76 21.99 22.36 22.94 22.57 21.29 20.54 23.41 23.98 25.33 25.37 27.15 27.86 28.49 31.02
34.04 33.77 33.43 33.13 33.20 33.32 32.71 31.64 30.37 29.92 28.32 27.31 26.63 25.30 24.73 24.32 24.16 24.35 24.41 24.81 25.08 25.02 24.93 24.23 23.54 22.67 21.93 20.88 20.46 20.65 21.27 20.38 20.40 19.39 19.08 19.31 20.64 22.78 23.38 22.32 22.81 25.67 25.55
33.55 33.09 33.15 33.68 33.55 33.18 31.52 29.83 28.60 27.42 26.88 26.02 24.87 23.82 23.62 23.18 23.73 23.00 23.83 23.99 23.57 23.22 23.59 23.59 23.20 22.74 22.56 22.31 21.03 20.25 19.67 18.51 18.26 17.55 17.29 17.89 18.10 18.73 19.01 21.30 20.47 21.74 22.97
32.82 32.12 33.01 32.64 31.53 30.50 28.95 26.99 25.83 24.91 24.25 23.39 22.47 22.04 21.80 22.58 22.70 22.05 23.16 22.55 22.54 22.11 21.54 21.94 22.02 22.05 22.02 22.62 22.78 23.21 22.41 19.18 17.52 16.74 17.16 16.97 18.31 19.16 20.01 19.50 19.38 18.44 16.29
30.91 30.68 30.94 31.13 29.33 28.35 27.08 25.23 24.10 23.42 23.33 22.07 21.51 21.18 20.44 21.40 21.96 21.75 22.62 21.70 21.39 21.48 20.87 20.56 20.47 21.35 21.00 20.58 21.76 22.80 22.80 23.43 24.37 21.41 18.72 18.77 18.60 19.98 20.27 19.17 19.23 18.97 18.46
30.29 30.35 29.92 29.34 27.84 27.06 25.04 23.58 23.40 23.24 21.69 20.71 20.39 20.25 19.96 20.34 21.30 21.22 21.50 21.02 20.96 20.91 20.73 20.17 19.77 19.85 20.70 20.70 20.40 20.92 21.80 22.31 22.55 22.64 21.87 21.65 21.95 22.53 21.94 21.49 20.92 21.07 22.14
29.22 29.42 28.98 28.43 27.06 25.74 23.06 22.41 22.92 22.03 20.96 20.20 19.78 18.48 17.94 18.13 20.32 20.23 20.46 19.92 20.09 20.18 20.97 20.97 20.73 20.13 22.07 24.31 22.04 20.44 21.49 22.13 24.89 25.85 25.96 26.57 27.06 27.35 27.29 24.38 21.60 19.19 17.15
28.75 29.15 29.20 28.13 26.89 24.87 23.52 22.09 22.71 21.69 20.73 19.86 19.08 18.65 16.93 15.52 18.47 19.80 19.85 19.18 18.44 19.64 20.76 21.55 23.14 22.81 23.90 24.81 22.17 19.43 16.65 17.72 18.41 19.19 20.73 21.64 22.70 23.07 25.20 23.60 21.75 17.66 17.12
29.15 28.09 27.48 27.25 25.54 24.89 23.14 22.43 20.43 18.96 18.28 16.98 16.41 16.52 15.98 15.32 14.84 19.26 20.38 18.99 19.09 19.18 19.80 20.21 21.27 23.08 23.76 23.87 22.99 18.34 16.81 19.82 18.60 15.64 15.25 16.60 18.18 19.41 20.66 21.96 23.05 22.14 19.38
27.71 26.05 24.52 23.62 23.38 22.26 19.68 18.87 17.68 16.69 15.02 13.92 13.94 14.50 16.15 15.80 16.51 18.02 20.44 21.52 21.66 19.28 18.73 20.08 20.74 22.93 22.25 21.66 19.58 19.73 20.22 17.73 12.66 12.43 12.01 12.56 13.91 15.33 17.59 18.57 19.23 19.78 20.67
23.66 22.52 21.15 19.86 20.50 18.91 16.84 16.25 14.69 14.63 14.82 15.35 15.42 15.20 16.69 17.77 16.54 19.41 20.52 21.22 21.53 19.91 20.44 21.34 23.36 20.21 19.84 17.26 17.17 17.81 15.21 12.16 10.74 9.11 8.77 10.60 13.34 14.53 15.76 15.81 16.99 18.09 18.72
21.05 19.44 18.17 16.52 17.22 15.83 16.73 17.14 16.20 16.41 15.06 15.20 16.11 15.98 16.55 16.68 16.26 17.38 17.43 18.13 20.24 20.46 21.62 18.04 16.72 17.92 16.56 15.49 12.94 13.56 12.72 11.90 10.40 9.66 10.34 11.46 12.36 11.70 11.63 13.71 13.17 14.21 13.78
20.96 18.71 18.77 17.47 15.64 15.54 15.57 16.70 16.31 17.70 18.71 17.00 17.13 16.94 15.51 14.59 16.85 19.17 18.61 17.85 19.49 20.57 19.25 13.62 11.79 10.85 9.95 10.30 10.45 10.29 11.05 10.85 9.71 10.46 9.19 8.49 9.48 10.45 10.46 12.05 12.23 11.95 10.68
19.79 18.61 19.09 17.96 16.07 16.54 16.16 15.04 19.49 19.98 19.77 20.05 20.06 16.85 14.95 18.25 20.32 20.88 21.95 21.98 22.35 19.66 13.38 9.58 8.90 8.46 7.98 8.20 7.65 8.05 9.12 9.11 9.63 8.88 8.20 9.05 8.47 8.69 8.99 10.08 10.98 10.61 10.31
20.85 19.54 18.67 16.50 16.93 15.56 14.82 14.52 13.98 17.52 19.62 20.43 21.16 21.75 21.93 21.58 21.72 22.17 22.31 21.37 21.16 13.78 8.14 7.47 6.84 6.89 6.70 7.11 7.16 7.15 6.72 8.16 8.53 8.04 8.06 7.85 7.99 8.26 8.44 8.81 9.56 9.97 9.58
15.51 11.83 16.65 15.14 15.66 15.30 14.53 13.92 13.47 12.07 11.39 12.59 16.07 16.22 16.95 17.85 18.80 20.05 20.07 20.02 13.27 10.22 5.71 4.29 4.36 4.85 5.00 5.24 5.47 5.33 5.67 6.07 6.07 6.42 6.12 6.29 7.06 7.71 7.83 8.59 8.90 8.22 8.50
12.61 12.67 12.33 12.77 12.24 10.84 11.23 11.07 10.30 9.38 8.71 8.50 9.15 10.52 11.64 14.04 16.03 17.50 18.79 14.26 10.01 5.66 4.84 3.99 3.97 3.67 3.47 3.80 3.49 3.52 3.32 3.63 4.40 4.20 5.36 5.98 6.84 7.25 7.28 8.51 8.26 8.24 8.65
7.03 4.60 5.37 9.03 8.84 8.10 7.96 7.42 7.11 7.08 6.72 6.48 6.49 6.54 7.89 3.17 2.30 4.73 7.53 6.83 5.05 3.55 3.54 2.50 1.91 1.66 1.91 0.99 1.07 1.32 1.45 1.99 2.97 3.65 4.16 5.14 6.10 7.04 6.95 7.76 8.07 7.76 7.99
6.92 6.15 1.65 4.62 5.50 5.76 5.59 5.09 5.54 5.01 4.38 4.38 4.80 6.79 10.45 4.28 2.97 4.41 5.73 6.12 4.73 3.07 2.24 1.43 0.47 0.57 0.25 -0.48 -1.11 -0.50 -0.39 0.95 1.47 2.13 3.27 4.38 5.37 4.28 6.74 8.90 8.54 8.54 8.92
3.13 2.96 2.67 2.00 2.30 2.29 2.45 3.14 2.90 2.53 2.28 1.83 2.58 4.15 9.62 6.72 6.97 7.58 7.11 6.04 4.92 2.87 0.04 -1.58 -1.53 -0.60 -1.21 -2.32 -2.89 -1.83 -2.11 -1.71 -0.61 1.03 2.31 2.63 2.54 3.93 7.62 7.68 7.27 7.73 7.54
1.46 1.08 1.18 0.93 0.66 -0.36 -0.64 -0.05 0.07 -0.04 -0.12 0.35 0.65 0.70 0.95 1.33 2.45 3.89 4.38 4.06 3.14 1.36 -1.52 -2.65 -2.20 -2.65 -2.59 -3.92 -2.18 -1.75 -2.40 -2.43 -1.32 0.91 0.08 0.10 1.11 3.67 7.37 6.15 6.03 5.49 5.93
0.87 0.55 0.38 0.42 0.24 -0.41 -1.04 -1.10 -0.69 -1.80 -1.57 -2.20 -2.67 -1.36 -0.67 -0.04 1.29 2.23 2.27 1.85 0.84 -0.48 -2.14 -4.17 -3.75 -5.82 -5.31 -6.46 -4.19 -3.51 -2.42 -1.54 -0.57 -0.51 0.01 0.24 0.83 7.22 6.31 5.17 5.21 4.83 6.15
0.26 0.06 -0.25 -0.62 -1.39 -1.38 -1.39 -1.50 -1.46 -1.71 -1.95 -2.23 -2.51 -2.04 -0.99 -0.59 -0.42 0.30 0.97 0.81 -1.17 -2.92 -3.53 -4.13 -4.85 -5.90 -6.96 -8.40 -7.71 -8.13 -5.98 -2.64 -4.31 -2.27 -1.07 1.34 6.32 6.21 2.62 3.40 1.79 4.08 3.25
1.28 0.50 -0.17 -0.35 -1.22 -1.41 -1.64 -1.75 -1.68 -1.39 -1.74 -1.17 -0.59 -0.03 0.54 0.53 0.82 0.88 0.47 -0.88 -2.97 -4.16 -4.80 -5.63 -6.01 -7.75 -8.39 -7.38 -7.58 -5.54 -4.14 1.02 0.76 2.59 7.04 9.86 7.63 -1.47 -2.12 -2.05 -1.85 -0.48 0.11

GFSGL_sfc_wetblb_048.txt.gz
Wetbulb
31.55 31.26 30.79 30.49 30.65 30.49 29.38 28.71 28.11 27.81 27.41 26.65 26.27 25.81 25.34 24.69 24.32 23.54 23.47 23.23 22.81 22.88 22.93 22.66 22.77 23.37 21.90 21.78 21.92 22.31 21.58 20.83 18.24 20.60 22.41 23.47 22.87 23.40 25.02 25.91 27.01 27.01 28.41
31.29 30.77 30.32 30.35 29.82 29.00 28.52 28.18 27.40 26.44 26.28 25.59 25.47 24.81 24.44 24.06 23.30 23.06 22.34 22.48 21.96 21.87 22.41 21.94 21.11 24.06 20.25 20.45 19.90 19.32 19.22 19.40 18.01 16.88 19.51 20.22 20.08 21.56 22.14 21.97 24.46 26.62 25.68
30.93 30.04 29.11 28.41 28.21 27.63 27.25 27.05 26.75 25.53 24.80 24.34 24.12 23.65 23.27 23.10 22.40 22.55 22.09 21.95 21.43 21.52 21.62 21.33 20.79 20.45 19.97 19.31 18.01 17.51 18.11 20.47 18.37 17.72 16.72 19.26 19.33 20.23 20.21 21.31 21.75 22.45 25.59
30.19 29.26 27.84 27.85 27.83 27.60 27.13 26.44 25.90 25.22 23.99 22.97 23.16 22.81 22.33 21.93 22.03 22.40 22.49 21.40 21.23 21.75 22.11 21.46 20.63 20.10 19.43 18.17 18.88 18.64 19.37 17.91 17.80 16.92 16.67 17.07 18.07 19.87 19.75 18.53 18.92 21.10 20.77
30.08 28.86 28.26 27.89 27.97 27.62 26.75 25.76 25.02 24.44 23.66 23.39 22.41 21.41 21.19 21.14 22.12 21.25 22.46 21.50 21.16 21.09 21.27 21.84 21.31 21.24 23.52 22.91 20.79 18.93 18.58 16.27 16.55 16.49 16.67 16.74 16.93 17.91 17.86 19.56 18.58 19.17 20.09
29.43 28.52 28.22 28.15 27.64 27.29 25.70 24.80 23.76 23.04 22.21 21.60 20.74 20.63 19.61 21.67 24.54 24.10 23.44 21.61 21.95 21.45 20.33 20.47 20.34 20.45 21.27 23.28 23.87 24.25 23.32 18.89 16.15 15.10 17.14 17.50 18.04 18.57 19.60 19.05 18.47 17.29 15.24
27.85 27.06 27.66 27.78 28.41 26.09 25.07 23.43 22.34 21.40 20.97 20.05 19.72 19.47 18.80 19.34 24.84 24.37 23.98 22.21 20.85 20.32 20.42 20.50 20.50 21.19 20.04 19.84 21.55 23.44 23.64 23.84 25.27 22.40 19.52 18.92 18.67 19.90 20.20 19.23 19.42 19.29 18.60
28.34 28.36 27.51 28.36 26.64 24.70 23.54 22.61 21.24 20.74 19.82 18.86 18.26 18.43 18.21 19.05 24.52 24.49 23.79 21.08 20.05 20.12 20.06 19.93 19.33 19.40 19.72 20.20 20.11 20.11 21.18 21.82 22.42 22.84 21.89 21.30 21.63 22.93 23.35 23.50 22.32 21.53 22.69
28.40 28.24 28.11 27.50 26.03 24.66 23.46 21.39 21.45 19.90 18.12 17.10 17.57 15.73 15.29 15.97 23.69 24.10 22.82 19.41 19.38 19.28 20.64 20.32 19.86 19.37 21.82 24.25 21.93 16.98 19.15 18.71 22.37 23.43 24.06 25.10 25.17 24.69 23.46 19.64 16.31 16.72 15.71
28.10 28.46 28.10 27.68 26.65 24.66 23.52 20.67 19.94 16.87 18.86 18.77 18.05 15.55 15.03 12.94 21.67 23.49 22.79 18.84 13.37 17.43 18.86 20.85 23.01 22.32 24.68 25.26 21.73 15.98 14.02 15.58 16.74 17.70 15.55 16.73 18.57 18.65 21.16 19.54 18.74 16.00 16.02
27.15 26.24 26.05 25.89 25.65 24.63 21.99 18.11 18.30 16.04 17.82 14.79 14.94 14.52 13.63 14.10 13.75 21.89 23.20 19.77 17.03 15.57 16.68 17.84 20.29 23.41 24.20 25.13 24.80 18.21 14.70 19.18 12.43 9.80 10.96 12.02 12.99 14.17 15.40 17.41 18.65 16.29 12.95
24.86 24.63 24.01 24.44 24.00 22.16 20.03 14.30 15.04 15.53 12.08 10.69 10.54 11.16 13.75 14.70 17.21 19.36 22.38 23.75 22.23 17.02 14.79 18.70 18.88 22.86 24.09 24.05 22.05 21.13 21.32 18.39 6.37 6.98 7.82 8.21 9.91 11.76 13.59 14.37 15.53 16.06 16.92
22.85 22.12 19.55 18.50 19.20 18.69 16.52 13.97 12.12 11.47 12.51 11.54 12.01 11.13 11.93 14.90 14.81 21.20 22.15 22.91 23.74 20.91 19.72 20.35 23.13 24.38 22.23 18.73 18.30 18.97 15.75 7.04 4.18 0.78 5.91 8.43 11.20 12.17 13.23 12.89 13.92 14.76 15.19
19.54 17.61 16.40 16.46 14.12 12.66 15.17 14.43 13.80 12.11 11.48 12.17 12.27 12.52 9.97 12.28 13.21 13.76 14.99 15.61 19.59 19.92 20.34 17.35 18.13 20.38 20.37 16.78 11.93 13.18 11.69 9.45 8.79 7.78 8.32 10.35 10.72 9.57 9.75 11.55 10.13 10.80 10.02
16.73 15.16 13.80 12.57 12.90 10.75 12.05 13.28 13.98 11.49 14.01 7.87 9.41 8.49 7.40 9.47 12.23 16.81 14.91 10.38 10.41 15.08 16.18 9.98 5.59 4.82 4.02 4.93 4.81 5.28 6.72 6.65 6.22 7.19 7.04 6.55 7.42 8.86 8.46 9.81 9.51 9.04 7.59
13.83 13.97 13.54 12.47 10.37 10.96 10.07 7.82 19.84 20.32 21.30 22.87 23.26 15.11 8.21 18.38 20.51 21.58 22.90 23.81 24.16 24.60 17.50 0.60 -0.29 1.75 4.16 4.50 3.39 3.64 3.92 4.97 6.28 6.50 5.89 6.10 6.36 6.52 6.62 7.64 8.78 7.98 7.47
11.93 13.30 12.30 12.23 10.46 8.89 7.25 7.58 5.40 12.64 22.07 22.94 23.19 23.17 23.65 24.23 24.32 24.92 24.84 25.01 25.31 24.83 5.36 -2.00 -0.20 1.66 3.24 4.40 2.76 2.55 3.96 5.43 5.98 5.46 5.28 5.02 5.29 5.18 5.61 6.06 6.87 8.15 7.02
6.50 9.08 8.88 5.87 6.42 5.36 5.52 6.59 5.75 3.82 5.33 6.97 14.43 17.41 18.77 19.79 20.41 21.23 21.87 21.86 18.29 17.27 -3.47 -2.66 1.99 0.65 0.84 1.08 0.13 -0.44 0.49 3.44 2.63 2.74 2.75 2.13 2.97 3.97 4.01 4.57 5.55 5.99 6.13
6.31 4.39 4.63 4.68 4.00 4.20 5.33 5.41 4.98 4.94 0.78 -2.92 -2.06 7.46 10.12 15.25 16.62 17.71 19.06 15.60 14.33 12.70 5.62 0.46 0.35 0.57 -0.11 -1.34 -4.65 -6.07 -5.37 -0.29 -2.80 -2.12 -0.59 0.72 2.11 2.91 2.83 4.41 4.69 6.02 7.04
-0.00 3.19 1.73 0.09 -0.99 0.83 1.91 -0.38 -0.87 -1.54 -2.78 -3.18 -1.84 -0.16 0.71 -2.97 -6.65 -7.50 -2.34 1.62 0.98 1.70 -1.32 -0.01 -1.87 -2.84 -3.78 -3.18 -8.31 -10.86 -4.36 -6.50 -6.78 -8.81 -6.04 -2.02 0.77 2.64 2.79 2.54 3.38 5.73 5.73
-0.98 -3.29 -1.23 -4.21 -5.38 -5.05 -6.01 -5.02 -3.39 -4.75 -4.70 -4.53 -2.05 2.45 10.79 6.89 5.00 -2.92 -4.65 -3.35 -0.59 -5.14 -3.59 -1.46 -2.89 -4.40 -3.22 -4.69 -11.06 -11.11 -6.55 -6.16 -9.49 -10.75 -9.82 -1.72 0.01 0.10 0.31 2.06 4.56 5.96 5.36
-1.20 -4.22 -7.88 -10.23 -5.65 -6.57 -7.12 -4.36 -5.47 -6.61 -6.86 -7.40 -5.45 -3.42 8.04 1.32 -2.05 -0.23 2.34 4.51 4.27 -0.01 1.28 1.04 -2.98 -3.22 -2.62 -3.95 -8.32 -7.88 -9.97 -10.48 -10.95 -13.68 -8.50 -3.10 -2.94 -2.44 -1.29 0.93 4.76 4.42 4.33
-1.87 -6.46 -8.87 -9.16 -6.41 -5.00 -7.64 -9.59 -10.46 -11.52 -10.04 -10.97 -9.69 -7.11 -10.68 -9.50 -8.50 -7.33 -1.65 0.18 -0.43 -0.96 0.11 -0.21 -2.71 -2.75 -2.33 -3.62 -7.24 -6.51 -8.18 -7.38 -9.79 -15.57 -7.05 -4.33 -4.66 -3.35 -2.56 1.35 3.47 2.59 3.30
-5.28 -8.43 -7.20 -6.53 -6.45 -7.79 -10.84 -12.27 -10.46 -8.91 -12.39 -12.92 -15.48 -12.89 -8.38 -8.37 -11.32 -7.97 -3.44 -1.75 -2.65 -2.46 -0.83 -0.95 -1.62 -3.21 -2.49 -5.56 -8.60 -11.50 -11.30 -7.89 -14.48 -9.48 -7.37 -3.27 -3.67 -3.28 -1.96 2.93 -0.64 -0.45 0.78
-6.38 -5.66 -4.55 -5.90 -8.74 -11.83 -14.04 -14.25 -12.69 -16.40 -16.09 -12.47 -11.00 -10.99 -10.91 -9.86 -9.23 -10.29 -6.83 -0.90 0.45 -1.02 -1.58 -1.44 -2.19 -3.18 -4.17 -6.12 -9.73 -13.37 -12.40 -3.70 -6.52 -9.53 -11.58 -5.41 -4.42 -4.92 -1.03 -1.11 -7.59 -5.32 -5.36
-3.99 -2.90 -5.22 -7.87 -8.40 -13.86 -15.96 -14.67 -14.85 -13.74 -13.06 -10.87 -10.08 -9.42 -9.36 -5.93 -3.30 -1.88 -3.84 -2.33 -1.34 -1.65 -2.70 -2.77 -3.67 -5.07 -5.47 -8.17 -10.77 -9.49 -8.35 -2.37 -5.28 -6.22 -6.35 -4.37 -1.95 3.68 0.90 -7.57 -8.26 -9.49 -7.73

GFSGL_sfc_wetblb_051.txt.gz
Wetbulb
31.48 30.30 30.42 30.05 29.98 29.52 28.80 27.78 27.16 26.72 26.08 25.80 25.71 25.19 24.70 23.91 23.70 23.08 22.65 22.50 22.33 22.19 21.99 21.91 21.95 22.27 20.67 20.25 20.34 20.79 19.92 18.99 16.37 18.71 19.76 21.36 20.53 20.22 21.65 22.30 23.19 22.73 23.62
30.95 30.25 29.72 29.75 29.24 28.42 27.59 26.75 26.12 25.60 25.54 25.15 25.02 24.45 24.01 23.48 22.75 22.64 22.33 22.16 21.66 21.62 21.87 21.39 20.68 23.34 19.52 19.49 18.99 18.24 18.07 18.41 16.86 15.97 18.41 18.49 18.45 19.70 20.09 19.56 22.39 23.89 22.66
30.48 29.73 28.77 28.35 27.89 27.15 26.46 26.11 25.54 24.69 24.15 24.07 23.90 23.43 23.01 22.81 22.25 22.26 22.08 21.82 21.29 21.14 21.27 21.11 20.66 20.16 19.66 18.90 17.54 16.84 17.44 19.65 17.61 17.09 16.10 18.61 18.78 19.63 19.38 20.36 20.68 21.33 23.82
29.84 29.28 28.29 27.66 27.57 27.07 26.64 25.82 25.13 24.26 23.31 22.90 22.93 22.94 22.53 22.05 22.10 22.47 22.15 21.21 20.95 21.32 21.74 21.43 20.46 19.95 19.41 18.21 18.45 18.44 19.21 18.01 17.86 16.83 16.65 17.32 18.34 20.01 20.02 18.95 18.98 21.07 20.77
29.94 28.87 28.42 28.11 27.18 26.91 26.27 25.62 24.65 24.16 23.37 23.11 22.20 21.47 21.22 21.17 21.99 21.17 22.29 21.47 21.16 20.89 21.35 21.68 21.31 21.11 23.22 23.32 20.68 18.98 18.37 16.66 16.76 16.51 16.59 17.09 17.67 18.96 18.16 19.97 19.14 19.88 20.63
30.05 29.10 28.67 28.04 28.03 26.97 26.24 25.86 24.60 23.55 22.89 22.11 21.14 20.37 19.27 21.42 25.55 27.00 23.41 21.50 22.18 21.44 20.21 20.33 20.69 19.85 21.53 24.35 24.70 25.05 24.01 17.19 9.87 8.77 18.17 18.65 18.48 19.03 20.08 19.23 18.68 18.17 17.00
29.33 28.65 28.02 28.45 27.51 27.03 26.99 25.11 23.88 23.08 21.23 20.49 19.85 19.61 19.36 19.90 26.61 27.44 26.56 22.60 21.38 20.47 20.21 20.45 20.64 21.21 19.58 19.52 21.60 23.57 23.88 24.72 25.22 22.93 19.24 18.25 17.51 18.57 19.05 19.30 19.24 18.07 17.20
28.62 28.12 28.24 27.79 27.76 26.88 25.44 25.32 23.04 21.49 20.70 19.79 19.45 19.58 19.18 19.42 26.11 27.57 27.05 21.99 20.53 20.07 19.88 20.03 19.56 19.44 19.33 19.26 18.92 19.03 19.97 21.28 21.99 21.75 20.34 19.49 20.16 21.59 19.52 18.66 17.57 16.95 17.74
28.67 28.46 28.46 28.96 27.87 26.37 25.32 24.13 23.38 21.65 20.29 19.81 19.16 17.55 16.92 17.19 26.12 27.24 26.11 20.83 20.22 19.39 20.18 20.00 19.59 19.06 21.58 24.06 21.27 18.49 18.01 18.93 22.30 23.64 23.60 23.80 22.91 22.29 20.68 16.79 12.24 12.01 11.29
28.94 29.06 29.24 29.69 28.48 26.68 26.44 24.22 23.07 22.16 21.81 20.12 19.50 17.46 16.89 15.69 23.97 26.58 25.94 19.98 13.20 17.48 18.10 19.90 22.54 21.75 23.60 25.20 21.73 15.95 13.19 15.43 17.17 15.01 12.61 14.87 16.38 15.94 18.50 16.06 13.81 10.28 10.04
28.47 27.20 27.19 27.36 27.80 27.26 25.96 22.63 19.40 20.20 18.93 17.58 16.72 15.96 14.97 15.46 15.49 25.24 26.37 21.41 17.89 15.11 15.42 16.41 18.99 23.03 24.42 25.31 25.80 21.37 14.34 20.31 8.80 5.99 8.48 9.99 11.18 12.00 13.46 15.21 15.27 12.96 9.76
25.13 25.31 26.23 26.14 26.20 24.47 22.94 19.09 18.55 18.09 16.13 15.26 13.96 12.49 15.00 15.52 17.91 22.09 24.73 25.67 24.09 15.74 14.00 17.47 18.39 22.86 24.09 24.86 24.99 24.20 23.63 19.92 1.66 1.91 3.78 7.10 8.59 10.28 12.45 13.07 13.96 14.19 14.64
22.94 23.49 22.78 21.51 22.66 22.61 21.66 16.84 14.01 15.13 17.05 15.49 14.30 14.73 14.24 14.31 14.72 21.99 23.73 24.35 25.43 22.79 20.68 20.68 23.25 24.25 25.13 23.73 20.96 21.65 17.88 8.06 1.05 -1.93 4.10 7.22 9.98 11.71 12.21 11.66 12.75 12.93 12.88
18.71 16.58 15.07 18.17 13.65 11.65 15.30 16.43 16.67 14.80 14.41 14.45 12.62 13.15 8.17 10.94 13.52 14.40 15.77 16.68 21.70 22.94 22.49 19.12 20.59 22.19 21.58 19.95 13.03 14.51 12.10 8.94 7.57 6.72 7.49 9.47 10.56 8.70 8.12 10.05 8.47 8.68 7.92
13.93 14.61 14.54 12.56 12.36 11.47 12.35 11.82 13.53 11.02 15.15 9.81 7.16 7.97 6.14 8.61 13.78 17.37 15.38 11.55 11.68 15.32 13.94 3.66 5.87 10.59 9.04 9.38 7.11 5.94 6.77 6.68 4.69 4.11 5.68 5.70 6.48 7.01 7.17 8.14 7.48 7.04 5.51
14.71 13.99 12.97 12.38 10.50 10.31 10.47 8.77 20.01 19.92 21.51 22.85 22.31 15.09 9.56 18.55 21.27 22.36 23.28 24.16 24.79 24.53 17.54 14.35 10.32 12.29 11.20 9.65 6.42 4.74 5.24 5.61 6.71 4.01 0.79 3.06 4.41 4.65 4.58 5.16 6.29 5.59 4.42
12.35 11.31 10.73 12.03 11.07 9.74 7.46 8.53 6.02 10.85 23.12 24.09 24.28 24.29 24.63 23.77 24.65 25.26 25.69 26.13 27.07 26.38 21.74 20.45 12.09 9.80 8.91 8.48 6.90 4.72 4.18 5.81 6.40 1.88 1.53 2.42 3.29 2.70 2.15 2.96 3.88 4.95 3.87
9.45 11.67 11.01 9.23 8.62 7.08 5.63 3.70 3.07 2.14 1.91 4.55 14.74 17.67 18.70 19.77 20.61 21.61 22.10 21.82 16.68 15.98 16.20 5.99 8.90 6.74 6.36 6.24 5.33 4.21 3.01 1.23 2.63 -0.61 -3.64 -5.89 -6.10 -0.07 0.55 0.66 2.03 2.49 2.52
7.42 5.89 4.97 3.69 3.03 4.25 4.29 3.43 1.71 0.97 1.55 2.42 5.02 8.53 7.57 13.35 14.96 15.98 16.55 1.63 -0.11 3.08 5.37 3.81 2.21 3.68 4.30 4.42 2.95 0.30 -1.73 -2.27 -1.23 -9.37 -13.12 -12.52 -8.04 -1.43 -1.29 -0.13 1.82 1.70 2.24
1.60 4.23 2.00 1.03 -0.15 0.32 1.24 0.23 0.90 1.78 -1.66 -5.10 -4.76 -1.78 -5.55 -6.64 -9.25 -7.82 -8.17 -9.85 -6.00 -2.09 -1.05 0.86 2.07 2.63 2.46 1.84 -0.16 -2.92 -4.72 -4.79 -6.82 -11.02 -14.12 -14.15 -10.37 -3.99 -1.08 -0.54 -0.30 -0.23 1.32
-2.96 -2.27 -0.54 -2.48 -3.30 -0.87 -0.27 0.33 -3.81 -7.69 -6.92 -7.83 -4.48 -1.04 9.87 0.56 -3.94 -7.86 -8.62 -8.99 -6.87 -5.30 -1.86 -2.12 -5.81 -1.69 -0.51 -0.84 -2.53 -3.05 -4.58 -3.35 -4.63 -12.30 -15.55 -17.33 -14.53 -5.25 -3.15 -1.14 -1.42 -1.00 2.99
-4.76 -5.87 -5.10 -2.59 -1.43 -1.42 -3.45 -5.59 -8.38 -8.50 -9.65 -9.35 -7.09 -5.17 6.87 -7.69 -10.68 -9.15 -10.17 -10.84 -8.63 -2.86 -1.86 -2.10 -1.67 -3.45 -2.30 -0.48 -1.16 -2.12 -3.93 -4.74 -6.92 -18.49 -16.02 -15.86 -14.23 -11.62 -5.96 -3.67 -3.76 -0.49 0.86
-0.71 -1.47 -3.33 -6.08 -5.68 -5.62 -7.03 -12.33 -12.42 -13.14 -13.51 -14.59 -12.74 -10.32 -13.84 -14.31 -12.54 -11.80 -10.47 -10.06 -9.43 -5.71 -8.01 -5.90 -2.45 -2.72 -1.86 -0.53 -0.42 -1.49 -3.25 -3.78 -6.07 -16.18 -16.60 -17.25 -16.78 -14.13 -11.85 -5.48 -4.86 -0.89 -2.29
-3.46 -3.33 -3.52 -7.10 -7.59 -6.97 -8.29 -10.53 -10.37 -7.58 -9.98 -12.91 -17.51 -15.81 -12.01 -12.57 -13.62 -12.20 -11.33 -9.81 -9.37 -9.80 -12.09 -6.13 -2.56 -1.98 -0.95 -1.12 -2.53 -3.64 -5.65 -6.47 -16.44 -17.06 -16.00 -14.01 -9.29 -11.44 -9.97 -5.41 -4.45 -2.90 -5.25
-8.09 -6.84 -6.81 -8.86 -9.98 -10.93 -12.63 -15.13 -13.03 -17.51 -17.09 -14.88 -13.20 -15.23 -12.45 -12.57 -12.12 -12.34 -11.79 -10.60 -9.27 -9.45 -8.90 -10.35 -6.44 -2.19 -2.77 -3.13 -3.52 -5.45 -8.08 -4.38 -10.58 -14.16 -18.59 -17.85 -12.12 -11.86 -8.44 -5.46 -4.23 -2.13 -9.17
-5.81 -5.62 -6.61 -8.96 -12.34 -15.73 -17.42 -16.51 -16.35 -15.36 -14.27 -12.35 -12.64 -12.98 -12.63 -11.49 -10.41 -10.10 -9.99 -9.89 -8.38 -9.16 -10.82 -11.86 -8.33 -5.58 -4.23 -3.50 -5.13 -4.72 -6.83 -3.49 -8.04 -9.57 -12.72 -14.92 -12.09 -8.48 -6.42 -3.02 -1.40 -2.48 -5.70

GFSGL_sfc_wetblb_054.txt.gz
Wetbulb
31.96 31.71 30.94 30.32 29.86 29.29 28.19 27.38 27.09 26.72 26.05 25.58 25.43 24.98 24.74 24.36 23.99 23.20 22.72 22.54 22.34 22.11 21.76 21.85 21.84 22.17 20.35 19.73 20.06 20.42 19.54 18.53 15.83 17.80 19.22 20.46 19.41 19.67 21.05 21.52 22.39 21.57 22.78
31.16 30.68 30.61 29.61 28.90 27.93 27.32 26.76 26.45 26.16 25.72 25.72 25.15 24.58 24.02 23.68 23.01 22.75 22.16 22.28 21.77 21.68 21.83 21.32 20.81 22.93 19.50 19.42 18.97 18.50 18.07 17.93 16.81 15.44 18.24 18.14 18.50 19.86 20.16 19.45 22.04 23.74 22.45
30.00 29.35 28.28 28.29 28.37 27.83 26.91 26.62 26.09 25.27 24.85 24.30 24.24 23.80 23.32 23.06 22.54 22.65 22.57 21.97 21.35 21.15 21.31 21.05 20.76 20.28 19.41 19.08 17.80 16.93 17.25 19.43 17.37 16.88 16.12 18.79 19.22 20.25 19.90 20.91 21.53 21.82 23.93
29.63 29.26 28.54 28.21 28.39 27.93 27.03 26.24 25.84 25.52 24.63 24.15 23.85 23.43 22.88 22.19 22.45 22.64 22.29 21.10 20.69 20.89 21.51 21.21 20.58 19.93 19.77 18.79 18.26 17.90 18.87 17.82 17.78 16.77 16.61 17.41 18.76 20.52 20.84 19.24 18.85 20.99 20.50
30.10 29.08 28.67 28.71 28.48 27.39 26.60 26.31 25.78 24.79 24.59 24.21 23.13 22.58 21.78 21.61 22.46 21.54 22.10 21.01 20.58 20.53 21.19 21.87 21.53 21.25 23.76 22.24 19.91 18.85 18.13 16.29 16.86 16.27 16.73 17.46 17.94 18.69 17.42 18.78 17.56 18.79 20.34
30.01 28.90 28.94 27.88 27.77 27.45 26.86 25.89 24.88 24.70 23.59 23.61 22.81 22.29 20.31 22.10 26.70 28.14 23.63 21.31 21.69 21.15 20.30 20.57 20.77 20.32 22.61 25.67 26.11 26.43 24.23 14.10 3.21 10.05 17.91 18.55 18.00 17.64 17.93 17.62 18.09 15.22 12.71
29.46 29.17 28.59 28.28 27.83 27.23 26.92 25.98 24.91 24.33 24.14 22.81 22.57 21.47 20.88 20.89 28.28 29.40 28.80 21.77 21.37 20.84 20.57 20.54 20.66 21.31 19.65 19.22 22.21 24.57 24.51 24.79 25.43 22.95 20.29 18.46 17.26 17.87 19.05 17.31 15.96 15.13 13.94
29.60 29.40 28.63 28.51 27.95 27.22 26.49 25.70 25.10 24.50 23.47 22.91 21.94 21.94 21.15 20.68 28.02 29.69 29.21 23.03 21.66 20.82 20.00 19.98 19.86 19.57 19.36 18.80 18.38 18.05 18.71 19.47 20.62 22.16 21.52 20.29 19.55 21.61 19.66 17.88 16.04 13.63 13.72
29.04 29.17 28.74 28.77 28.16 26.98 26.33 25.76 25.57 24.47 23.09 22.44 22.97 21.11 20.78 20.76 27.92 29.21 28.28 22.72 21.53 20.23 20.29 19.77 19.35 18.91 21.52 24.45 20.98 16.39 18.27 19.95 24.42 25.79 25.39 24.88 24.08 23.41 20.68 15.70 8.27 8.15 7.22
29.49 29.52 29.27 29.14 29.30 27.67 27.70 26.89 27.02 25.69 24.70 23.17 22.58 21.35 20.47 20.06 25.93 28.96 28.27 21.53 16.25 19.18 18.75 19.95 22.60 21.08 22.97 24.44 21.17 17.84 16.48 17.11 17.84 13.61 13.81 15.11 16.70 15.31 18.26 15.43 12.66 7.29 7.82
30.26 29.63 28.86 29.12 29.60 29.18 28.89 27.98 26.84 24.35 23.21 21.11 19.89 19.34 17.71 17.55 17.22 27.67 29.09 22.12 20.03 16.41 16.85 16.72 18.63 23.25 25.02 25.90 26.71 20.83 18.77 19.79 15.37 7.89 6.83 9.29 10.83 11.44 12.46 14.24 14.70 12.13 8.66
29.51 28.36 28.21 28.95 29.11 28.56 28.19 26.79 23.69 22.39 19.91 18.27 15.96 14.42 16.06 16.68 18.87 23.87 27.65 28.27 26.07 17.18 15.76 17.84 18.09 23.14 24.67 25.81 25.73 26.33 26.94 25.70 2.47 -1.06 0.28 6.17 8.23 9.53 11.58 12.83 13.21 13.23 13.74
25.19 25.75 25.89 26.14 25.75 25.50 24.73 20.29 16.10 17.48 18.60 18.16 16.71 17.70 17.38 15.05 15.83 23.93 24.76 27.00 27.63 24.60 22.35 20.67 23.28 24.32 25.36 25.50 26.85 27.03 22.12 9.48 1.88 -2.40 2.11 6.57 9.28 11.02 12.21 10.95 11.32 11.95 11.61
23.01 20.72 19.17 20.88 17.34 16.43 19.11 18.94 18.74 17.79 17.46 17.74 14.82 15.78 9.02 11.52 13.34 14.27 16.08 18.75 23.07 24.32 24.73 21.74 23.38 25.29 25.07 23.26 17.28 20.58 16.78 12.11 9.69 7.78 7.18 8.96 9.98 8.57 7.14 8.63 7.28 7.30 5.90
16.69 15.68 15.51 15.72 16.19 13.74 14.20 15.65 17.78 12.08 17.28 11.49 11.75 10.88 8.97 8.28 12.01 17.65 16.41 12.10 11.70 16.78 16.92 3.96 5.26 10.99 13.45 13.49 9.96 9.96 11.80 10.71 8.64 7.40 4.05 3.64 5.84 6.14 5.70 6.98 5.93 4.46 2.73
16.10 14.89 14.04 14.66 12.80 13.20 12.29 8.17 20.66 19.77 22.54 23.58 21.93 13.32 6.97 18.37 21.72 22.68 23.77 24.59 25.00 25.19 19.30 15.26 12.21 11.37 11.37 12.73 13.09 13.26 11.14 9.13 8.46 6.44 2.06 1.97 3.10 3.31 3.01 3.56 3.66 2.03 1.56
14.43 13.24 11.33 11.92 10.40 9.31 7.14 10.18 9.70 11.79 23.40 23.36 24.14 24.86 24.95 20.57 23.49 24.59 25.00 26.26 26.79 25.60 20.41 18.51 17.92 15.09 12.41 13.57 13.76 11.87 9.20 8.55 8.62 6.67 5.98 4.20 3.43 1.81 0.27 -0.45 1.01 1.62 0.22
5.67 9.28 8.23 7.04 7.23 6.17 5.74 4.08 3.97 3.51 4.12 2.88 14.34 18.26 19.22 18.99 19.23 19.95 21.17 19.89 4.90 5.30 3.41 0.35 2.83 4.87 7.31 9.27 10.12 8.96 7.78 6.62 4.48 3.99 1.30 -0.56 -4.71 -3.21 -3.29 -2.88 -1.59 -1.86 -0.62
7.59 5.10 4.40 2.96 2.13 4.36 3.74 2.55 1.13 0.61 -1.80 -3.03 -0.38 9.67 7.58 13.29 13.44 14.06 14.30 -4.88 -8.23 -7.96 -8.37 -7.56 -6.99 -5.03 2.16 4.49 5.36 4.12 4.00 1.40 -1.06 -2.62 -5.11 -5.66 -7.07 -8.90 -6.42 -5.31 -2.17 -0.92 -0.87
1.46 4.23 2.36 1.72 1.07 1.74 2.38 1.48 0.07 -0.46 -1.69 0.46 0.17 -1.53 -4.94 -4.99 -8.59 -8.35 -9.84 -12.03 -12.01 -13.45 -13.07 -15.17 -11.14 -11.74 -4.60 -1.58 -0.67 -2.01 -2.98 -6.74 -6.04 -3.17 -4.93 -6.93 -6.55 -8.88 -4.55 -4.30 -4.70 -3.26 -3.82
-2.11 -1.62 -0.31 -2.19 -2.70 -3.69 -3.98 -2.19 -2.08 -5.23 -5.94 -10.66 -8.23 -3.85 8.68 -4.74 -7.27 -9.86 -12.45 -15.06 -16.76 -15.08 -11.86 -14.39 -11.16 -9.30 -3.94 -2.80 -6.58 -6.70 -5.68 -2.57 -1.85 -2.14 -5.01 -8.80 -9.46 -12.49 -9.61 -2.68 -3.60 -4.77 -4.64
-4.92 -6.89 -7.01 -6.58 -5.01 -3.31 -1.58 -4.29 -5.72 -6.54 -9.20 -9.09 -7.32 -4.79 5.93 -7.48 -12.74 -15.24 -16.81 -17.84 -15.46 -14.82 -12.99 -10.58 -3.68 -10.13 -6.74 -5.40 -4.91 -3.54 -3.07 -3.26 -2.75 -2.73 -7.20 -8.39 -10.51 -17.49 -11.24 -5.69 -6.47 -6.23 -6.11
-5.17 -5.23 -5.07 -4.25 -3.33 -3.67 -5.78 -10.81 -9.40 -10.73 -11.91 -13.82 -12.30 -10.58 -15.08 -17.04 -18.18 -18.17 -16.85 -16.82 -16.03 -13.69 -11.89 -16.09 -9.55 -8.26 -12.12 -10.91 -2.91 -1.60 -2.29 -2.70 -1.53 -3.69 -8.68 -9.40 -14.79 -22.91 -15.22 -9.14 -8.56 -9.71 -8.02
-5.34 -5.48 -5.36 -7.77 -7.81 -8.63 -9.33 -12.59 -12.51 -11.16 -12.36 -14.40 -19.65 -20.01 -15.62 -17.69 -19.10 -17.11 -16.08 -15.36 -15.27 -14.22 -13.97 -14.09 -11.28 -9.88 -12.32 -12.31 -10.35 -3.90 -2.87 -2.88 -4.41 -8.25 -9.50 -11.51 -17.91 -19.58 -19.01 -12.16 -9.97 -8.40 -5.25
-8.07 -6.73 -6.12 -6.72 -9.36 -10.41 -12.20 -13.51 -11.83 -16.53 -17.36 -16.04 -16.75 -18.11 -18.38 -17.36 -16.18 -16.81 -15.82 -14.81 -13.86 -13.53 -11.70 -10.95 -11.13 -10.96 -9.27 -9.55 -8.33 -6.00 -3.94 -1.01 -2.92 -7.32 -13.15 -21.42 -18.72 -21.06 -22.87 -18.80 -11.26 -8.10 -6.33
-9.74 -9.58 -10.02 -10.93 -12.78 -14.76 -15.46 -14.38 -15.19 -16.12 -17.58 -16.13 -15.99 -17.39 -16.90 -15.14 -14.22 -14.38 -13.92 -14.16 -11.97 -11.10 -11.69 -12.16 -12.42 -11.25 -10.71 -9.58 -10.02 -5.97 -4.43 0.17 -2.72 -6.98 -15.83 -17.48 -17.60 -17.66 -18.79 -14.74 -12.12 -5.98 -4.08